[[{"header":{"parameterUnit":"m.s-1","parameterCategory":1,"la1":31.0,"la2":29.5877,"lo1":-88.7671,"lo2":-86.6584,"dy":0.0162,"dx":0.0185,"nx":115,"ny":88,"refTime":"2024-05-12T06:00:00:Z","depth":0,"parameterNumber":2,"parameterNumberName":"U-component_of_WINDS"},"data":[0.0,0.0,0.0,0.0,0.0,0.0,0.0,0.0,0.0,0.0,0.0,0.0,0.0,0.0,0.0,0.0,0.0,0.0,0.0,0.0,0.0,0.0,0.0,0.0,0.0,0.0,0.0,0.0,0.0,0.0,0.0,0.0,0.0,0.0,0.0,0.0,0.0,0.0,0.0,0.0,0.0,0.0,0.0,0.0,0.0,0.0,0.0,0.0,0.0,0.0,0.0,0.0,0.0,0.0,0.0,0.0,0.0,0.0,0.0,0.0,0.0,0.0,0.0,0.0,0.0,0.0,0.0,0.0,0.0,0.0,0.0,0.0,0.0,0.0,0.0,0.0,0.0,0.0,0.0,0.0,0.0,0.0,0.0,0.0,0.0,0.0,0.0,0.0,0.0,0.0,0.0,0.0,0.0,0.0,0.0,0.0,0.0,0.0,0.0,0.0,0.0,0.0,0.0,0.0,0.0,0.0,0.0,0.0,0.0,0.0,0.0,0.0,0.0,0.0,0.0,0.0,0.0,0.0,0.0,0.0,0.0,0.0,0.0,0.0,0.0,0.0,0.0,0.0,0.0,0.0,0.0,0.0,0.0,0.0,0.0,0.0,0.0,0.0,0.0,0.0,0.0,0.0,0.0,0.0,0.0,0.0,0.0,0.0,0.0,0.0,0.0,0.0,0.0,0.0,0.0,0.0,0.0,0.0,0.0,0.0,0.0,0.0,0.0,0.0,0.0,0.0,0.0,0.0,0.0,0.0,0.0,0.0,0.0,0.0,0.0,0.0,0.0,0.0,0.0,0.0,0.0,0.0,0.0,0.0,0.0,0.0,0.0,0.0,0.0,0.0,0.0,0.0,0.0,0.0,0.0,0.0,0.0,0.0,0.0,0.0,0.0,0.0,0.0,0.0,0.0,0.0,0.0,0.0,0.0,0.0,0.0,0.0,0.0,0.0,0.0,0.0,0.0,0.0,0.0,0.0,0.0,0.0,0.0,0.0,0.0,0.0,0.0,0.0,0.0,0.0,0.0,0.0,0.0,0.0,0.0,0.0,0.0,0.0,0.0,0.0,0.0,0.0,0.0,0.0,0.0,0.0,0.0,0.0,0.0,0.0,0.0,0.0,0.0,0.0,0.0,0.0,0.0,0.0,0.0,0.0,0.0,0.0,0.0,0.0,0.0,0.0,0.0,0.0,0.0,0.0,0.0,0.0,0.0,0.0,0.0,0.0,0.0,0.0,0.0,0.0,0.0,0.0,0.0,0.0,0.0,0.0,0.0,0.0,0.0,0.0,0.0,0.0,0.0,0.0,0.0,0.0,0.0,0.0,0.0,0.0,0.0,0.0,0.0,0.0,0.0,0.0,0.0,0.0,0.0,0.0,0.0,0.0,0.0,0.0,0.0,0.0,0.0,0.0,0.0,0.0,0.0,0.0,0.0,0.0,0.0,0.0,0.0,0.0,0.0,0.0,0.0,0.0,0.0,0.0,0.0,0.0,0.0,0.0,0.0,0.0,0.0,0.0,0.0,0.0,0.0,0.0,0.0,0.0,0.0,0.0,0.0,0.0,0.0,0.0,0.0,0.0,0.0,0.0,0.0,0.0,0.0,0.0,0.0,0.0,0.0,0.0,0.0,0.0,0.0,0.0,0.0,0.0,0.0,0.0,0.0,0.0,0.0,0.0,0.0,0.0,0.0,0.0,0.0,0.0,0.0,0.0,0.0,0.0,0.0,0.0,0.0,0.0,0.0,0.0,0.0,0.0,0.0,0.0,0.0,0.0,0.0,0.0,0.0,0.0,0.0,0.0,0.0,0.0,0.0,0.0,0.0,0.0,0.0,0.0,0.0,0.0,0.0,0.0,0.0,0.0,0.0,0.0,0.0,0.0,0.0,0.0,0.0,0.0,0.0,0.0,0.0,0.0,0.0,0.0,0.0,0.0,0.0,0.0,0.0,0.0,0.0,0.0,0.0,0.0,0.0,0.0,0.0,0.0,0.0,0.0,0.0,0.0,0.0,0.0,0.0,0.0,0.0,0.0,0.0,0.0,0.0,0.0,0.0,0.0,0.0,0.0,0.0,0.0,0.0,0.0,0.0,0.0,0.0,0.0,0.0,0.0,0.0,0.0,0.0,0.0,0.0,0.0,0.0,0.0,0.0,0.0,0.0,0.0,0.0,0.0,0.0,0.0,0.0,0.0,0.0,0.0,0.0,0.0,0.0,0.0,0.0,0.0,0.0,0.0,0.0,0.0,0.0,0.0,0.0,0.0,0.0,0.0,0.0,0.0,0.0,0.0,0.0,0.0,0.0,0.0,0.0,0.0,0.0,0.0,0.0,0.0,0.0,0.0,0.0,0.0,0.0,0.0,0.0,0.0,0.0,0.0,0.0,0.0,0.0,0.0,0.0,0.0,0.0,0.0,0.0,0.0,0.0,0.0,0.0,0.0,0.0,0.0,0.0,0.0,0.0,0.0,0.0,0.0,0.0,0.0,0.0,0.0,0.0,0.0,0.0,0.0,0.0,0.0,0.0,0.0,0.0,0.0,0.0,0.0,0.0,0.0,0.0,0.0,0.0,0.0,0.0,0.0,0.0,0.0,0.0,0.0,0.0,0.0,0.0,0.0,0.0,0.0,0.0,0.0,0.0,0.0,0.0,0.0,0.0,0.0,0.0,0.0,0.0,0.0,0.0,0.0,0.0,0.0,0.0,0.0,0.0,0.0,0.0,0.0,0.0,0.0,0.0,0.0,0.0,0.0,0.0,0.0,0.0,0.0,0.0,0.0,0.0,0.0,0.0,0.0,0.0,0.0,0.0,0.0,0.0,0.0,0.0,0.0,0.0,0.0,0.0,0.0,0.0,0.0,0.0,0.0,0.0,0.0,0.0,0.0,0.0,0.0,0.0,0.0,0.0,0.0,0.0,0.0,0.0,0.0,0.0,0.0,0.0,0.0,0.0,0.0,0.0,0.0,0.0,0.0,0.0,0.0,0.0,0.0,0.0,0.0,0.0,0.0,0.0,0.0,0.0,0.0,0.0,0.0,0.0,0.0,0.0,0.0,0.0,0.0,0.0,0.0,0.0,0.0,0.0,0.0,0.0,0.0,0.0,0.0,0.0,0.0,0.0,0.0,0.0,0.0,0.0,0.0,0.0,0.0,0.0,0.0,0.0,0.0,0.0,0.0,0.0,0.0,0.0,0.0,0.0,0.0,0.0,0.0,0.0,0.0,0.0,0.0,0.0,0.0,0.0,0.0,0.0,0.0,0.0,0.0,0.0,0.0,0.0,0.0,0.0,0.0,0.0,0.0,0.0,0.0,0.0,0.0,0.0,0.0,0.0,0.0,0.0,0.0,0.0,0.0,0.0,0.0,0.0,0.0,0.0,0.0,0.0,0.0,0.0,0.0,0.0,0.0,0.0,0.0,0.0,0.0,0.0,0.0,0.0,0.0,0.0,0.0,0.0,0.0,0.0,0.0,0.0,0.0,0.0,0.0,0.0,0.0,0.0,0.0,0.0,0.0,0.0,0.0,0.0,0.0,0.0,0.0,0.0,0.0,0.0,0.0,0.0,0.0,0.0,0.0,0.0,0.0,0.0,0.0,0.0,0.0,0.0,0.0,0.0,0.0,0.0,0.0,0.0,0.0,0.0,0.0,0.0,0.0,0.0,0.0,0.0,0.0,0.0,0.0,0.0,0.0,0.0,0.0,0.0,0.0,0.0,0.0,0.0,0.0,0.0,0.0,0.0,0.0,0.0,0.0,0.0,0.0,0.0,0.0,0.0,0.0,0.0,0.0,0.0,0.0,0.0,0.0,0.0,0.0,0.0,0.0,0.0,0.0,0.0,0.0,0.0,0.0,0.0,0.0,0.0,0.0,0.0,0.0,0.0,0.0,0.0,0.0,0.0,0.0,0.0,0.0,0.0,0.0,0.0,0.0,0.0,0.0,0.0,0.0,0.0,0.0,0.0,0.0,0.0,0.0,0.0,0.0,0.0,0.0,0.0,0.0,0.0,0.0,0.0,0.0,0.0,0.0,0.0,0.0,0.0,0.0,0.0,0.0,0.0,0.0,0.0,0.0,0.0,0.0,0.0,0.0,0.0,0.0,0.0,0.0,0.0,0.0,0.0,0.0,0.0,0.0,0.0,0.0,0.0,0.0,0.0,0.0,0.0,0.0,0.0,0.0,0.0,0.0,0.0,0.0,0.0,0.0,0.0,0.0,0.0,0.0,0.0,0.0,0.0,0.0,0.0,0.0,0.0,0.0,0.0,0.0,0.0,0.0,0.0,0.0,1.0784,0.0,0.0,0.0,0.0,0.0,0.0,0.0,0.0,0.0,0.0,0.0,0.0,0.0,0.0,0.0,0.0,0.0,0.0,0.0,0.0,0.0,0.0,0.0,0.0,0.0,0.0,0.0,0.0,0.0,0.0,0.0,0.0,0.0,0.0,0.0,0.0,0.0,0.0,0.0,0.0,0.0,0.0,0.0,0.0,0.0,0.0,0.0,0.0,0.0,0.0,0.0,0.0,0.0,0.0,0.0,0.0,0.0,0.0,0.0,0.0,0.0,0.0,0.0,0.0,0.0,0.0,0.0,0.0,0.0,0.0,0.0,0.0,0.0,0.0,0.0,0.0,0.0,0.0,0.0,0.0,0.0,0.0,0.0,0.0,0.0,0.0,0.0,0.0,0.0,0.0,0.0,0.0,0.0,0.0,0.0,0.0,0.0,0.0,0.0,0.0,0.0,0.0,0.0,0.0,0.0,0.0,0.0,0.0,0.0,0.0,1.2073,1.2256,1.2176,1.1949,1.1565,0.0,0.0,0.0,0.0,0.0,0.0,0.0,0.0,0.0,0.0,0.0,0.0,0.0,0.0,0.0,0.0,0.0,0.0,0.0,0.0,0.0,0.0,0.0,0.0,0.0,0.0,0.0,0.0,0.0,0.0,0.0,0.0,0.0,0.0,0.0,0.0,0.0,0.0,0.0,0.0,0.0,0.0,0.0,0.0,0.0,0.0,0.0,0.0,0.0,0.0,0.0,0.0,0.0,0.0,0.0,0.0,0.0,0.0,0.0,0.0,0.0,0.0,0.0,0.0,0.0,0.0,0.0,0.0,0.0,0.0,0.0,0.0,0.0,0.0,0.0,0.0,0.0,0.0,0.0,0.0,0.0,0.0,0.0,0.0,0.0,0.0,0.0,0.0,0.0,0.0,0.0,0.0,0.0,0.0,0.0,0.0,0.0,0.0,0.0,0.0,0.0,0.0,0.0,0.0,0.0,0.0,0.0,0.0,0.0,0.0,0.0,0.0,1.286,1.2629,1.2314,0.0,0.0,0.0,0.0,0.0,0.0,0.0,0.0,0.0,0.0,0.0,0.0,0.0,0.0,0.0,0.0,0.0,0.0,0.0,0.0,0.0,0.0,0.0,0.0,0.0,0.0,0.0,0.0,0.0,0.0,0.0,0.0,0.0,0.0,0.0,0.0,0.0,0.0,0.0,0.0,0.0,0.0,0.0,0.0,0.0,0.0,0.0,0.0,0.0,0.0,0.0,0.0,0.0,0.0,0.0,0.0,0.0,0.0,0.0,0.0,0.0,0.0,0.0,0.0,0.0,0.0,0.0,0.0,0.0,0.0,0.0,0.0,0.0,0.0,0.0,0.0,0.0,0.0,0.0,0.0,0.0,0.0,0.0,0.0,0.0,0.0,0.0,0.0,0.0,0.0,0.0,0.0,0.0,0.0,0.0,0.0,0.0,0.0,0.0,0.0,0.0,0.0,0.0,0.0,0.0,0.0,0.0,0.0,0.0,0.0,1.4303,1.3996,1.4595,0.0,1.2983,0.0,0.0,0.0,0.0,0.0,0.0,0.0,0.0,0.0,0.0,0.0,0.0,0.0,0.0,0.0,0.0,0.0,0.0,0.0,0.0,0.0,0.0,0.0,0.0,0.0,0.0,0.0,0.0,0.0,0.0,0.0,0.0,0.0,0.0,0.0,0.0,0.0,0.0,0.0,0.0,0.0,0.0,0.0,0.0,0.0,0.0,0.0,0.0,0.0,0.0,0.0,0.0,0.0,0.0,0.0,0.0,0.0,0.0,0.0,0.0,0.0,0.0,0.0,0.0,0.0,0.0,0.0,0.0,0.0,0.0,0.0,0.0,0.0,0.0,0.0,0.0,0.0,0.0,0.0,0.0,0.0,0.0,0.0,0.0,0.0,0.0,0.0,0.0,0.0,0.0,0.0,0.0,0.0,0.0,0.0,0.0,0.0,0.0,0.0,0.0,0.0,0.0,0.0,0.0,0.0,0.0,0.0,0.0,0.0,0.0,1.4264,1.4101,1.4615,1.4832,0.0,0.0,0.0,0.0,0.0,0.0,0.0,0.0,0.0,0.0,0.0,0.0,0.0,0.0,0.0,0.0,0.0,0.0,0.0,0.0,0.0,0.0,0.0,0.0,0.0,0.0,0.0,0.0,0.0,0.0,0.0,0.0,0.0,0.0,0.0,0.0,0.0,0.0,0.0,0.0,0.0,0.0,0.0,0.0,0.0,0.0,0.0,0.0,0.0,0.0,0.0,0.0,0.0,0.0,0.0,0.0,0.0,0.0,0.0,0.0,0.0,0.0,0.0,0.0,0.0,0.0,0.0,0.0,0.0,0.0,0.0,0.0,0.0,0.0,0.0,0.0,0.0,0.0,0.0,0.0,0.0,0.0,0.0,0.0,0.0,0.0,0.0,0.0,0.0,0.0,0.0,0.0,0.0,0.0,0.0,0.0,0.0,0.0,0.0,0.0,0.0,0.0,0.0,0.0,0.0,0.0,0.0,0.0,0.0,0.0,1.4093,1.4144,1.4264,1.4538,1.4916,1.5337,0.0,0.0,0.0,0.0,0.0,0.0,0.0,0.0,0.0,0.0,0.0,0.0,0.0,0.0,0.0,0.0,0.0,0.0,0.0,0.0,0.0,0.0,0.0,0.0,0.0,0.0,0.0,0.0,0.0,0.0,0.0,0.0,0.0,0.0,0.0,0.0,0.0,0.0,0.0,0.0,0.0,0.0,0.0,0.0,0.0,0.0,0.0,0.0,0.0,0.0,0.0,0.0,0.0,0.0,0.0,0.0,0.0,0.0,0.0,0.0,0.0,0.0,0.0,0.0,0.0,0.0,0.0,0.0,0.0,0.0,0.0,0.0,0.0,0.0,0.0,0.0,0.0,0.0,0.0,0.0,0.0,0.0,0.0,0.0,0.0,0.0,0.0,0.0,0.0,0.0,0.0,0.0,0.0,0.0,0.0,0.0,0.0,0.0,0.0,0.0,0.0,0.0,0.0,0.0,0.0,0.0,0.0,0.0,1.4076,1.4093,1.4281,1.4641,1.4675,1.4522,0.0,0.0,0.0,0.0,0.0,0.0,0.0,0.0,0.0,0.0,0.0,0.0,0.0,0.0,0.0,0.0,0.0,0.0,0.0,0.0,0.0,0.0,0.0,0.0,0.0,0.0,0.0,0.0,0.0,0.0,0.0,0.0,0.0,0.0,0.0,0.0,0.0,0.0,0.0,0.0,0.0,0.0,0.0,0.0,0.0,0.0,0.0,0.0,0.0,0.0,0.0,0.0,0.0,0.0,0.0,0.0,0.0,0.0,0.0,0.0,0.0,0.0,0.0,0.0,0.0,0.0,0.0,0.0,0.0,0.0,0.0,0.0,0.0,0.0,0.0,0.0,0.0,0.0,0.0,0.0,0.0,0.0,0.0,0.0,0.0,0.0,0.0,0.0,0.0,0.0,0.0,0.0,0.0,0.0,0.0,0.0,0.0,0.0,0.0,0.0,0.0,0.0,0.0,0.0,0.0,0.0,0.0,0.0,0.0,1.3725,1.3964,1.4393,1.4975,1.4564,1.4459,0.0,0.0,0.0,0.0,0.0,0.0,0.0,0.0,0.0,0.0,0.0,0.0,0.0,0.0,0.0,0.0,0.0,0.0,0.0,0.0,0.0,0.0,0.0,0.0,0.0,0.0,0.0,0.0,0.0,0.0,0.0,0.0,0.0,0.0,0.0,0.0,0.0,0.0,0.0,0.0,0.0,0.0,0.0,0.0,0.0,0.0,0.0,0.0,0.0,0.0,0.0,0.0,0.0,0.0,0.0,0.0,0.0,0.0,0.0,0.0,0.0,0.0,0.0,0.0,0.0,0.0,0.0,0.0,0.0,0.0,0.0,0.0,0.0,0.0,0.0,0.0,0.0,0.0,0.0,0.0,0.0,0.0,0.0,0.0,0.0,0.0,0.0,0.0,0.0,0.0,0.0,0.0,0.0,0.0,0.0,0.0,0.0,0.0,0.0,0.0,0.0,0.0,0.0,0.0,0.0,0.0,0.0,0.0,0.0,1.3699,0.0,1.4341,1.4812,1.4487,1.447,0.0,0.0,0.0,0.0,0.0,0.0,0.0,0.0,0.0,0.0,0.0,0.0,0.0,0.0,0.0,0.0,0.0,0.0,0.0,0.0,0.0,0.0,0.0,0.0,0.0,0.0,0.0,0.0,0.0,0.0,0.0,0.0,0.0,0.0,0.0,0.0,0.0,0.0,0.0,0.0,0.0,0.0,0.0,0.0,0.0,0.0,0.0,0.0,0.0,0.0,0.0,0.0,0.0,0.0,0.0,0.0,0.0,0.0,0.0,0.0,0.0,0.0,0.0,0.0,0.0,0.0,0.0,0.0,0.0,0.0,0.0,0.0,0.0,0.0,0.0,0.0,0.0,0.0,0.0,0.0,0.0,0.0,0.0,0.0,0.0,0.0,0.0,0.0,0.0,0.0,0.0,0.0,0.0,0.0,0.0,0.0,0.0,0.0,0.0,0.0,0.0,0.0,0.0,0.0,0.0,0.0,0.0,0.0,1.3699,1.4076,1.4093,1.4136,1.4144,1.4478,1.4495,0.0,0.0,0.0,0.0,0.0,0.0,0.0,0.0,0.0,0.0,0.0,0.0,0.0,0.0,0.0,0.0,0.0,0.0,0.0,0.0,0.0,0.0,0.0,0.0,0.0,0.0,0.0,0.0,0.0,0.0,0.0,0.0,0.0,0.0,0.0,0.0,0.0,0.0,0.0,0.0,0.0,0.0,0.0,0.0,0.0,0.0,0.0,0.0,0.0,0.0,0.0,0.0,0.0,0.0,0.0,0.0,0.0,0.0,0.0,0.0,0.0,0.0,0.0,0.0,0.0,0.0,0.0,0.0,0.0,0.0,0.0,0.0,0.0,0.0,0.0,0.0,0.0,0.0,0.0,0.0,0.0,0.0,0.0,0.0,0.0,0.0,0.0,0.0,0.0,0.0,0.0,0.0,0.0,0.0,0.0,0.0,0.0,0.0,0.0,0.0,0.0,0.0,0.0,0.0,0.0,0.0,0.0,0.0,0.0,1.4631,1.4273,1.4655,1.573,1.4811,1.459,0.0,0.0,0.0,0.0,0.0,0.0,0.0,0.0,0.0,0.0,0.0,0.0,0.0,0.0,0.0,0.0,0.0,0.0,0.0,0.0,0.0,0.0,0.0,0.0,0.0,0.0,0.0,0.0,0.0,0.0,0.0,0.0,0.0,0.0,0.0,0.0,0.0,0.0,0.0,0.0,0.0,0.0,0.0,0.0,0.0,0.0,0.0,0.0,0.0,0.0,0.0,0.0,0.0,0.0,0.0,0.0,0.0,0.0,0.0,0.0,0.0,0.0,0.0,0.0,0.0,0.0,0.0,0.0,0.0,0.0,0.0,0.0,0.0,0.0,0.0,0.0,0.0,0.0,0.0,0.0,0.0,0.0,0.0,0.0,0.0,0.0,0.0,0.0,0.0,0.0,0.0,0.0,0.0,0.0,0.0,0.0,0.0,0.0,0.0,0.0,0.0,0.0,0.0,0.0,0.0,0.0,0.0,0.0,0.0,1.6058,1.5033,1.5103,1.6309,1.5345,1.5107,1.5659,0.0,0.0,0.0,0.0,0.0,0.0,0.0,0.0,0.0,0.0,0.0,0.0,0.0,0.0,0.0,0.0,0.0,0.0,0.0,0.0,0.0,0.0,0.0,0.0,0.0,0.0,0.0,0.0,0.0,0.0,0.0,0.0,0.0,0.0,0.0,0.0,0.0,0.0,0.0,0.0,0.0,0.0,0.0,0.0,0.0,0.0,0.0,0.0,0.0,0.0,0.0,0.0,0.0,0.0,0.0,0.0,0.0,0.0,0.0,0.0,0.0,0.0,0.0,0.0,0.0,0.0,0.0,0.0,0.0,0.0,0.0,0.0,0.0,0.0,0.0,0.0,0.0,0.0,0.0,0.0,0.0,0.0,0.0,0.0,0.0,0.0,0.0,0.0,0.0,0.0,0.0,0.0,0.0,0.0,0.0,0.0,0.0,0.0,0.0,0.0,0.0,0.0,0.0,0.0,0.0,0.0,0.0,0.0,1.8151,1.6339,1.5668,1.6188,1.6098,1.59,0.0,0.0,0.0,0.0,0.0,0.0,0.0,0.0,0.0,0.0,0.0,0.0,0.0,0.0,0.0,0.0,0.0,0.0,0.0,0.0,0.0,0.0,0.0,0.0,0.0,0.0,0.0,0.0,0.0,0.0,0.0,0.0,0.0,0.0,0.0,0.0,0.0,0.0,0.0,0.0,0.0,0.0,0.0,0.0,0.0,0.0,0.0,0.0,0.0,0.0,0.0,0.0,0.0,0.0,0.0,0.0,0.0,0.0,0.0,0.0,0.0,0.0,0.0,0.0,0.0,0.0,0.0,0.0,0.0,0.0,0.0,0.0,0.0,0.0,0.0,0.0,0.0,0.0,0.0,0.0,0.0,0.0,0.0,0.0,0.0,0.0,0.0,0.0,0.0,0.0,0.0,0.0,0.0,0.0,0.0,0.0,0.0,0.0,0.0,0.0,0.0,0.0,0.0,0.0,0.0,0.0,0.0,0.0,0.0,1.7732,1.783,1.8043,1.8479,1.7193,1.6392,0.0,0.0,0.0,0.0,0.0,0.0,0.0,0.0,0.0,0.0,0.0,0.0,0.0,0.0,0.0,0.0,0.0,0.0,0.0,0.0,0.0,0.0,0.0,0.0,0.0,0.0,0.0,0.0,0.0,0.0,0.0,0.0,0.0,0.0,0.0,0.0,0.0,0.0,0.0,0.0,0.0,0.0,0.0,0.0,0.0,0.0,0.0,0.0,0.0,0.0,0.0,0.0,0.0,0.0,0.0,0.0,0.0,0.0,0.0,0.0,0.0,0.0,0.0,0.0,0.0,0.0,0.0,0.0,0.0,0.0,0.0,0.0,0.0,0.0,0.0,0.0,0.0,0.0,0.0,0.0,0.0,0.0,0.0,0.0,0.0,0.0,0.0,0.0,0.0,0.0,0.0,0.0,0.0,0.0,0.0,0.0,0.0,0.0,0.0,0.0,0.0,0.0,0.0,0.0,0.0,0.0,0.0,0.0,1.752,1.8423,1.9058,1.9671,2.0033,1.8544,1.7423,0.0,0.0,0.0,0.0,0.0,0.0,0.0,0.0,0.0,0.0,0.0,0.0,0.0,0.0,0.0,0.0,0.0,0.0,0.0,0.0,0.0,0.0,0.0,0.0,0.0,0.0,0.0,0.0,0.0,0.0,0.0,0.0,0.0,0.0,0.0,0.0,0.0,0.0,0.0,0.0,0.0,0.0,0.0,0.0,0.0,0.0,0.0,0.0,0.0,0.0,0.0,0.0,0.0,0.0,0.0,0.0,0.0,0.0,0.0,0.0,0.0,0.0,0.0,0.0,0.0,0.0,0.0,0.0,0.0,0.0,0.0,0.0,0.0,0.0,0.0,0.0,0.0,0.0,0.0,0.0,0.0,0.0,0.0,0.0,0.0,0.0,0.0,0.0,0.0,0.0,0.0,0.0,0.0,0.0,0.0,0.0,0.0,0.0,0.0,0.0,0.0,0.0,0.0,0.0,0.0,0.0,0.0,0.0,1.8209,1.957,2.0167,2.0621,2.0941,1.9889,1.8748,0.0,0.0,0.0,0.0,0.0,0.0,0.0,0.0,0.0,0.0,0.0,0.0,0.0,0.0,0.0,0.0,0.0,0.0,0.0,0.0,0.0,0.0,0.0,0.0,0.0,0.0,0.0,0.0,0.0,0.0,0.0,0.0,0.0,0.0,0.0,0.0,0.0,0.0,0.0,0.0,0.0,0.0,0.0,0.0,0.0,0.0,0.0,0.0,0.0,0.0,0.0,0.0,0.0,0.0,0.0,0.0,0.0,0.0,0.0,0.0,0.0,0.0,0.0,0.0,0.0,0.0,0.0,0.0,0.0,0.0,0.0,0.0,0.0,0.0,0.0,0.0,0.0,0.0,0.0,0.0,0.0,0.0,0.0,0.0,0.0,0.0,0.0,0.0,0.0,0.0,0.0,0.0,0.0,0.0,0.0,0.0,0.0,0.0,0.0,0.0,0.0,0.0,0.0,0.0,0.0,0.0,0.0,0.0,1.9062,2.0195,2.1056,2.1388,2.112,2.0422,1.9389,0.0,0.0,0.0,0.0,0.0,0.0,0.0,0.0,0.0,0.0,0.0,0.0,0.0,0.0,0.0,0.0,0.0,0.0,0.0,0.0,0.0,0.0,0.0,0.0,0.0,0.0,0.0,0.0,0.0,0.0,0.0,0.0,0.0,0.0,0.0,0.0,0.0,0.0,0.0,0.0,0.0,0.0,0.0,0.0,0.0,0.0,0.0,0.0,1.1267,0.0,0.0,0.0,0.0,0.0,0.0,0.0,0.0,0.0,0.0,0.0,0.0,0.0,0.0,0.0,0.0,0.0,0.0,0.0,0.0,0.0,0.0,0.0,0.0,0.0,0.0,0.0,0.0,0.0,0.0,0.0,0.0,0.0,0.0,0.0,0.0,0.0,0.0,0.0,0.0,0.0,0.0,0.0,0.0,0.0,0.0,0.0,0.0,0.0,0.0,0.0,0.0,0.0,0.0,0.0,0.0,0.0,0.0,0.0,1.9064,1.9991,2.0966,2.1466,2.1435,2.0931,2.0025,0.0,0.0,0.0,0.0,0.0,0.0,0.0,0.0,0.0,0.0,0.0,0.0,0.0,0.0,0.0,0.0,0.0,0.0,0.0,0.0,0.0,0.0,0.0,0.0,0.0,0.0,0.0,0.0,0.0,0.0,0.0,0.0,0.0,0.0,0.0,0.0,0.0,0.0,0.0,0.0,0.0,0.0,0.0,0.0,0.0,0.0,0.0,0.0,0.0,0.0,0.0,0.0,0.0,0.0,0.0,0.0,0.0,0.0,0.0,0.0,0.0,0.0,0.0,0.0,0.0,0.0,0.0,0.0,0.0,0.0,0.0,0.0,0.0,0.0,0.0,0.0,0.0,0.0,0.0,0.0,0.0,0.0,0.0,0.0,0.0,0.0,0.0,0.0,0.0,0.0,0.0,0.0,0.0,0.0,0.0,0.0,0.0,0.0,0.0,0.0,0.0,0.0,0.0,0.0,0.0,0.0,0.0,1.865,1.8964,1.9693,2.0728,2.1373,2.1673,2.1248,2.0401,1.9084,0.0,0.0,0.0,0.0,0.0,0.0,0.0,0.0,0.0,0.0,0.0,0.0,0.0,0.0,0.0,0.0,0.0,0.0,0.0,0.0,0.0,0.0,0.0,0.0,0.0,0.0,0.0,0.0,0.0,0.0,0.0,0.0,0.0,0.0,0.0,0.0,0.0,0.0,1.1611,1.2058,0.0,0.0,0.0,0.0,0.0,0.0,0.0,0.0,1.1322,0.0,0.0,0.0,0.0,0.0,0.0,0.0,0.0,0.0,0.0,0.0,0.0,0.0,0.0,0.0,0.0,0.0,0.0,0.0,0.0,0.0,0.0,0.0,0.0,0.0,0.0,0.0,0.0,0.0,0.0,0.0,0.0,0.0,0.0,0.0,0.0,0.0,0.0,0.0,0.0,0.0,0.0,0.0,0.0,0.0,0.0,0.0,0.0,0.0,0.0,0.0,0.0,0.0,0.0,0.0,0.0,1.8844,1.9432,1.9971,2.0298,2.1185,2.1549,2.1228,2.0783,2.0215,1.964,0.0,0.0,0.0,0.0,0.0,0.0,0.0,0.0,0.0,0.0,0.0,0.0,0.0,0.0,0.0,0.0,0.0,0.0,0.0,0.0,0.0,0.0,0.0,0.0,0.0,0.0,0.0,0.0,0.0,0.0,0.0,0.0,0.0,0.0,0.0,0.0,0.0,0.0,0.0,1.1674,1.1688,0.0,0.0,0.0,0.0,0.0,0.0,0.0,0.0,1.012,0.0,0.0,0.0,0.0,0.0,0.0,0.0,0.0,0.0,0.0,0.0,0.0,0.0,0.0,0.0,0.0,0.0,0.0,0.0,0.0,0.0,0.0,0.0,0.0,0.0,0.0,0.0,0.0,0.0,0.0,0.0,0.0,0.0,0.0,0.0,0.0,0.0,0.0,0.0,0.0,0.0,0.0,0.0,0.0,0.0,0.0,0.0,0.0,0.0,0.0,0.0,0.0,0.0,0.0,0.0,1.9208,1.9206,1.9483,2.0089,2.0741,2.0979,2.0772,2.0534,2.0213,0.0,0.0,0.0,0.0,0.0,0.0,0.0,0.0,0.0,0.0,0.0,0.0,0.0,0.0,0.0,0.0,0.0,0.0,0.0,0.0,0.0,0.0,0.0,0.0,0.0,0.0,0.0,0.0,0.0,0.0,0.0,0.0,0.0,0.0,0.0,0.0,0.0,0.0,0.0,0.0,1.2204,1.2369,1.2369,0.0,0.0,0.0,0.0,0.0,0.0,1.1746,1.1316,0.0,0.0,0.0,0.0,0.0,0.0,0.0,0.0,0.0,0.0,0.0,0.0,0.0,0.0,0.0,0.0,0.0,0.0,0.0,0.0,0.0,0.0,0.0,0.0,0.0,0.0,0.0,0.0,0.0,0.0,0.0,0.0,0.0,0.0,0.0,0.0,0.0,0.0,0.0,0.0,0.0,0.0,0.0,0.0,0.0,0.0,0.0,0.0,0.0,0.0,0.0,0.0,0.0,0.0,0.0,1.9671,1.9024,1.9056,1.9758,2.0203,2.0379,2.0296,2.0286,2.0079,0.0,0.0,0.0,0.0,0.0,0.0,0.0,0.0,0.0,0.0,0.0,0.0,0.0,0.0,0.0,0.0,0.0,0.0,0.0,0.0,0.0,0.0,0.0,0.0,0.0,0.0,0.0,0.0,0.0,0.0,0.0,0.0,0.0,0.0,0.0,0.0,0.0,0.0,0.0,0.0,0.0,1.3045,1.2534,1.296,0.0,0.0,0.0,0.0,1.2169,1.2375,0.0,0.0,0.0,0.0,0.0,0.0,0.0,0.0,0.0,0.0,0.0,0.0,0.0,0.0,0.0,0.0,0.0,0.0,0.0,0.0,0.0,0.0,0.0,0.0,0.0,0.0,0.0,0.0,0.0,0.0,0.0,0.0,0.0,0.0,0.0,0.0,0.0,0.0,0.0,0.0,0.0,0.0,0.0,0.0,0.0,0.0,0.0,0.0,0.0,0.0,0.0,0.0,0.0,0.0,0.0,0.0,2.0053,2.0076,1.9981,1.9848,2.0203,2.0234,1.9841,1.9841,1.9624,0.0,0.0,0.0,0.0,0.0,0.0,0.0,0.0,0.0,0.0,0.0,0.0,0.0,0.0,0.0,0.0,0.0,0.0,0.0,0.0,0.0,0.0,0.0,0.0,0.0,0.0,0.0,0.0,0.0,0.0,0.0,0.0,0.0,0.0,0.0,0.0,0.0,0.0,0.0,0.0,0.0,1.2528,1.2674,1.3124,1.2881,0.0,0.0,1.2077,1.0033,0.9832,0.0,0.0,0.0,0.0,0.0,0.0,0.0,0.0,0.0,0.0,0.0,0.0,0.0,0.0,0.0,0.0,0.0,0.0,0.0,0.0,0.0,0.0,0.0,0.0,0.0,0.0,0.0,0.0,0.0,0.0,0.0,0.0,0.0,0.0,0.0,0.0,0.0,0.0,0.0,0.0,0.0,0.0,0.0,0.0,0.0,0.0,0.0,0.0,0.0,0.0,0.0,0.0,0.0,0.0,0.0,2.0172,1.9791,1.9674,1.9578,1.9463,2.0058,2.0213,1.9837,2.0265,2.0193,0.0,0.0,0.0,0.0,0.0,0.0,0.0,0.0,0.0,0.0,0.0,0.0,0.0,0.0,0.0,0.0,0.0,0.0,0.0,0.0,0.0,0.0,0.0,0.0,0.0,0.0,0.0,0.0,0.0,0.0,0.0,0.0,0.0,0.0,0.0,0.0,0.0,0.0,0.0,0.0,0.0,0.0,1.2863,1.3215,0.0,0.0,0.0,1.3108,1.2448,0.0,0.0,0.0,0.0,0.0,0.0,0.0,0.0,0.0,0.0,0.0,0.0,0.0,0.0,0.0,0.0,0.0,0.0,0.0,0.0,0.0,0.0,0.0,0.0,0.0,0.0,0.0,0.0,0.0,0.0,0.0,0.0,0.0,0.0,0.0,0.0,0.0,0.0,0.0,0.0,0.0,0.0,0.0,0.0,0.0,0.0,0.0,0.0,0.0,0.0,0.0,0.0,0.0,0.0,0.0,0.0,0.0,1.9736,1.9446,1.9308,1.9272,2.0017,2.0255,1.9955,2.0596,0.0,0.0,0.0,0.0,0.0,0.0,0.0,0.0,0.0,0.0,0.0,0.0,0.0,0.0,0.0,0.0,0.0,0.0,0.0,0.0,0.0,0.0,0.0,0.0,0.0,0.0,0.0,1.4136,0.0,0.0,0.0,0.0,0.0,0.0,0.0,0.0,0.0,0.0,0.0,0.0,0.0,0.0,1.3547,1.3045,1.3363,1.35,0.0,0.0,1.3815,1.4038,1.3177,1.237,0.0,0.0,0.0,0.0,0.0,0.0,0.0,0.0,0.0,0.0,0.0,0.0,0.0,0.0,0.0,0.0,0.0,0.0,0.0,0.0,0.0,0.0,0.0,0.0,0.0,0.0,0.0,0.0,0.0,0.0,0.0,0.0,0.0,0.0,0.0,0.0,0.0,0.0,0.0,0.0,0.0,0.0,0.0,0.0,0.0,0.0,0.0,0.0,0.0,0.0,0.0,0.0,0.0,0.0,0.0,2.0053,1.9828,1.9775,1.9796,2.0172,2.041,2.0379,2.0441,2.0255,0.0,0.0,0.0,0.0,0.0,0.0,0.0,0.0,0.0,0.0,0.0,0.0,0.0,0.0,0.0,0.0,0.0,0.0,0.0,0.0,0.0,0.0,0.0,0.0,0.0,0.0,0.0,0.0,0.0,0.0,0.0,0.0,0.0,0.0,0.0,0.0,0.0,0.0,0.0,0.0,0.0,1.4097,1.3143,1.3687,1.3611,0.0,0.0,1.3246,1.2485,1.2466,1.2564,1.291,0.0,0.0,0.0,0.0,0.0,0.0,0.0,0.0,0.0,0.0,0.0,0.0,0.0,0.0,0.0,0.0,0.0,0.0,0.0,0.0,0.0,0.0,0.0,0.0,0.0,0.0,0.0,0.0,0.0,0.0,0.0,0.0,0.0,0.0,0.0,0.0,0.0,0.0,0.0,0.0,0.0,0.0,0.0,0.0,0.0,0.0,0.0,0.0,0.0,0.0,0.0,0.0,0.0,2.0096,2.0107,1.9927,1.9827,1.9858,2.0472,2.0845,2.0845,2.1124,2.1062,0.0,0.0,0.0,0.0,0.0,0.0,0.0,0.0,0.0,0.0,0.0,0.0,0.0,0.0,0.0,0.0,0.0,0.0,0.0,0.0,0.0,0.0,0.0,0.0,0.0,0.0,0.0,0.0,1.4823,1.5065,1.5394,0.0,0.0,0.0,0.0,0.0,0.0,0.0,0.0,0.0,0.0,1.3305,1.3287,1.3422,0.0,0.0,1.4385,1.4379,1.3126,1.3286,1.3348,1.2716,1.2208,0.0,0.0,0.0,0.0,0.0,0.0,0.0,0.0,0.0,0.0,0.0,0.0,0.0,0.0,0.0,0.0,0.0,0.0,0.0,0.0,0.0,0.0,0.0,0.0,0.0,0.0,0.0,0.0,0.0,0.0,0.0,0.0,0.0,0.0,0.0,0.0,0.0,0.0,0.0,0.0,0.0,0.0,0.0,0.0,0.0,0.0,0.0,0.0,0.0,0.0,0.0,0.0,2.0325,2.0325,2.0265,2.0162,2.0172,2.0917,2.1321,2.1331,2.1642,2.159,0.0,0.0,0.0,0.0,0.0,0.0,0.0,0.0,0.0,0.0,0.0,0.0,0.0,0.0,0.0,0.0,0.0,0.0,0.0,0.0,0.0,0.0,0.0,0.0,0.0,0.0,0.0,0.0,1.4955,1.5182,1.5409,0.0,0.0,0.0,0.0,0.0,0.0,0.0,0.0,0.0,0.0,1.3171,1.3373,1.365,1.4157,1.5,1.5454,1.5344,1.4295,1.4239,1.3909,1.2886,0.0,0.0,0.0,0.0,0.0,0.0,0.0,0.0,0.0,0.0,0.0,0.0,0.0,0.0,0.0,0.0,0.0,0.0,0.0,0.0,0.0,0.0,0.0,0.0,0.0,0.0,0.0,0.0,0.0,0.0,2.1446,0.0,0.0,0.0,0.0,0.0,0.0,0.0,0.0,0.0,0.0,0.0,0.0,0.0,0.0,0.0,0.0,0.0,0.0,0.0,0.0,0.0,0.0,2.0806,2.0817,2.0955,2.1062,2.1083,2.1549,2.1776,2.1787,2.1807,2.159,2.1145,0.0,0.0,0.0,0.0,0.0,0.0,0.0,0.0,0.0,0.0,0.0,0.0,0.0,0.0,0.0,0.0,0.0,0.0,0.0,0.0,0.0,0.0,0.0,0.0,0.0,0.0,1.5387,1.5416,1.5409,0.0,0.0,0.0,0.0,0.0,0.0,0.0,0.0,0.0,0.0,1.3177,1.3952,1.3181,1.4559,1.5483,1.5391,1.5582,1.569,1.5556,1.486,1.4195,0.0,0.0,0.0,0.0,0.0,0.0,0.0,0.0,0.0,0.0,0.0,0.0,0.0,0.0,0.0,0.0,0.0,0.0,0.0,0.0,0.0,0.0,0.0,0.0,0.0,0.0,0.0,2.231,2.2113,0.0,0.0,0.0,0.0,0.0,0.0,0.0,0.0,0.0,0.0,0.0,2.1663,2.1675,0.0,0.0,0.0,0.0,0.0,0.0,0.0,0.0,0.0,0.0,0.0,0.0,2.0839,2.0804,2.1282,2.1408,2.1124,2.1859,2.2101,2.1807,2.1807,2.1735,2.158,0.0,0.0,0.0,0.0,0.0,0.0,0.0,0.0,0.0,0.0,0.0,0.0,0.0,0.0,0.0,0.0,0.0,0.0,0.0,0.0,0.0,0.0,0.0,0.0,0.0,1.5431,0.0,0.0,0.0,0.0,0.0,0.0,0.0,0.0,0.0,0.0,0.0,1.4491,1.3319,1.3592,1.3618,1.2808,1.3262,1.3671,0.0,0.0,0.0,0.0,0.0,0.0,0.0,0.0,0.0,0.0,0.0,0.0,0.0,0.0,0.9376,0.9141,0.9096,0.9096,0.9096,0.0,0.0,0.0,0.0,0.0,0.0,0.0,0.0,0.0,0.0,0.0,0.0,0.0,0.0,2.2858,0.0,2.2897,0.0,0.0,0.0,0.0,0.0,0.0,0.0,0.0,2.1891,2.1917,2.1927,2.2111,2.2455,0.0,2.2949,2.2777,0.0,0.0,0.0,0.0,0.0,0.0,0.0,0.0,2.1272,2.1294,2.1624,2.1649,2.1596,2.1943,2.2111,2.1807,2.1807,2.1807,2.1807,2.1807,2.1807,0.0,0.0,0.0,0.0,0.0,0.0,0.0,0.0,0.0,0.0,0.0,0.0,0.0,0.0,0.0,0.0,0.0,0.0,0.0,0.0,0.0,0.0,0.0,1.5431,0.0,0.0,0.0,0.0,0.0,0.0,0.0,0.0,0.0,1.5101,1.4999,1.4514,1.3411,1.3704,1.379,1.314,0.0,0.0,0.0,0.0,0.0,0.0,0.0,1.3125,1.1463,1.2058,1.2252,1.0886,1.001,0.9624,0.9624,0.0,0.0,0.9324,0.9279,0.9283,0.9279,0.9283,0.9283,0.9283,0.9188,0.9088,0.0,0.0,0.0,0.0,0.0,0.0,0.0,0.0,2.4151,2.3864,0.0,2.3929,0.0,0.0,0.0,0.0,0.0,2.2247,0.0,0.0,2.1981,2.1962,2.2019,2.249,2.2972,2.3383,2.3406,2.3395,2.3361,2.2972,0.0,0.0,0.0,0.0,0.0,0.0,2.2208,2.2197,2.1998,2.2025,2.2392,2.2025,2.1797,2.1807,2.1807,2.1807,2.1807,2.1807,2.1807,2.1807,2.1807,0.0,0.0,0.0,0.0,0.0,0.0,0.0,0.0,0.0,0.0,0.0,0.0,0.0,0.0,0.0,0.0,0.0,0.0,0.0,0.0,1.5452,0.0,0.0,0.0,0.0,0.0,0.0,0.0,0.0,0.0,0.0,1.454,1.4374,1.3791,1.2545,0.0,0.0,0.0,0.0,1.5648,1.4394,1.5261,1.5153,1.292,1.263,1.2339,1.1268,0.0,0.0,0.9624,0.9624,0.9624,0.9624,0.9624,0.9624,0.962,0.9604,0.9612,0.9612,0.9604,0.962,0.9521,0.9296,0.9209,2.5282,0.0,0.0,0.0,0.0,2.457,2.4833,2.4913,2.5214,2.5249,2.5092,2.5262,0.0,0.0,0.0,0.0,0.0,0.0,2.3912,2.3502,2.315,2.2966,2.2949,2.3155,2.3488,2.3971,2.3971,2.3982,2.3971,2.3833,2.3385,2.2685,0.0,0.0,0.0,0.0,2.265,2.2673,2.2908,2.2852,2.2402,2.2553,2.2402,2.1807,2.2101,2.2111,2.1807,2.1807,2.1807,2.1807,2.1807,0.0,0.0,0.0,0.0,0.0,0.0,0.0,0.0,0.0,0.0,0.0,0.0,0.0,0.0,0.0,0.0,0.0,0.0,0.0,1.5752,1.5972,1.6104,0.0,0.0,0.0,0.0,0.0,0.0,0.0,0.0,0.0,1.5658,1.545,1.5194,0.0,0.0,1.5127,1.4285,1.4536,1.4484,1.3318,1.2823,0.0,1.1755,1.1658,1.1272,1.0207,0.9821,0.9624,0.9624,0.9624,0.9624,0.9624,0.9624,0.9624,0.9624,0.9624,0.9624,0.9624,0.9624,0.9529,0.9331,0.9236,0.9034,2.6033,2.4992,2.4978,2.4831,2.4635,2.5507,2.6011,2.6151,2.6386,2.6373,2.6164,2.6151,2.5837,2.5301,2.5315,0.0,0.0,0.0,2.4434,2.3899,2.3819,2.3712,2.3752,2.4154,2.4499,2.4786,2.4797,2.4694,2.4487,2.4476,2.4085,2.3316,0.0,0.0,2.306,2.3082,2.3084,2.3106,2.3501,2.3511,2.321,2.3232,2.3013,2.2384,2.2384,2.2224,2.1818,2.1807,2.189,2.2066,2.2087,2.2159,0.0,0.0,0.0,0.0,0.0,0.0,0.0,0.0,0.0,0.0,0.0,1.6766,1.6524,0.0,0.0,0.0,1.5731,1.5877,1.6082,1.6265,0.0,0.0,0.0,0.0,0.0,0.0,0.0,1.6407,1.6118,1.5926,1.6197,1.5927,1.5825,1.5825,1.5825,1.5445,1.4394,0.0,1.3811,1.2344,1.195,1.1468,1.069,1.0881,1.0788,0.9821,0.9624,0.9624,0.9624,0.9624,0.9624,0.9624,0.9624,0.9624,0.9624,0.9624,0.9624,0.9624,0.9624,0.9525,0.9434,0.9232,0.8931,2.6797,2.6046,2.6086,2.5829,2.5471,2.644,2.717,2.7643,2.7683,2.7366,2.6948,2.6883,2.6543,2.5968,2.6007,0.0,2.5243,2.471,2.4232,2.3855,2.4224,2.4388,2.4434,2.5344,2.5793,2.5781,2.5716,2.5463,2.4992,2.4981,2.4751,2.4326,2.4315,2.4146,2.3734,2.3722,2.3745,2.379,2.3862,2.4083,2.4399,2.4024,2.3652,2.3246,2.2846,2.2424,2.2018,2.1921,2.2108,2.2532,2.2553,2.2749,2.3163,0.0,0.0,0.0,0.0,0.0,0.0,0.0,0.0,0.0,0.0,0.0,0.0,0.0,0.0,0.0,1.6228,0.0,1.6411,1.6426,0.0,0.0,0.0,1.6978,1.6985,1.6979,1.6979,1.6979,0.0,0.0,1.6224,1.6028,1.5832,1.5832,1.5825,1.5445,1.4586,1.449,1.3709,1.195,1.2145,1.195,1.031,1.0493,1.069,0.9723,0.9624,0.9624,0.9624,0.9624,0.9624,0.9624,0.9624,0.9624,0.9624,0.9624,0.9624,0.9624,0.9529,0.9426,0.9327,0.8928,0.8528,2.8346,2.8199,2.8405,2.7848,2.7052,2.7719,2.847,2.9188,2.8939,2.8778,2.866,2.866,2.8098,2.7157,2.7575,2.7469,2.6959,2.6751,2.6625,2.6505,2.616,2.6068,2.608,2.6316,2.6434,2.6358,2.5923,2.5647,2.5532,2.552,2.5463,2.5348,2.5348,2.5066,2.4602,2.4591,2.4785,2.5196,2.5244,2.497,2.4403,2.4277,2.4039,2.3705,2.3557,2.3435,2.3298,2.3002,2.2915,2.3018,2.3029,2.307,2.3184,2.3194,0.0,0.0,0.0,0.0,0.0,0.0,0.0,0.0,0.0,1.7141,1.7883,0.0,1.6177,0.0,1.655,1.674,1.6831,1.696,0.0,0.0,1.7172,1.7216,1.7216,1.7109,1.6979,1.6979,1.669,1.6494,1.6494,1.6312,1.613,1.6123,1.5933,1.5737,1.5445,1.5452,1.4968,1.3703,1.2926,1.2247,1.0979,1.0306,0.992,0.9624,0.9624,0.9624,0.9624,0.9624,0.9624,0.9624,0.9624,0.9624,0.9624,0.9624,0.9624,0.9529,0.913,0.863,0.8432,0.7829,0.7129,2.9578,2.9563,2.983,2.9557,2.8907,2.9096,2.96,3.0328,3.0165,2.9902,2.964,2.9392,2.8908,2.8333,2.8647,2.8621,2.8291,2.8012,2.7925,2.7852,2.7203,2.6942,2.6954,2.687,2.6909,2.6819,2.6528,2.6267,2.606,2.6048,2.5934,2.5716,2.5716,2.567,2.5601,2.5383,2.5417,2.5704,2.5934,2.5825,2.5378,2.5378,2.5037,2.4438,2.4196,2.4009,2.3785,2.3405,2.3277,2.3484,2.3494,2.3577,2.3784,2.3535,2.3276,0.0,0.0,0.0,0.0,0.0,0.0,0.0,0.0,0.0,0.0,0.0,1.6433,1.6572,1.6879,1.7062,1.7069,1.7223,1.7333,1.7333,1.7333,1.7333,1.7333,1.7246,1.7153,1.716,1.6972,1.6784,1.6588,1.6305,1.6123,1.6028,1.5547,1.4962,1.4472,1.4376,1.3896,1.2446,1.1668,1.1179,1.0498,1.0015,0.9624,0.9624,0.9624,0.9624,0.9624,0.9624,0.9624,0.9624,0.9624,0.9624,0.9624,0.9624,0.9624,0.943,0.8634,0.8035,0.8137,0.7431,0.6631,3.0555,3.0596,3.077,3.0796,3.0796,3.0375,3.0519,3.099,3.1018,3.0712,3.0215,2.9719,2.9457,2.9392,2.9457,2.9457,2.9392,2.8856,2.8591,2.8543,2.8032,2.7723,2.7591,2.7497,2.7383,2.7301,2.7231,2.699,2.6577,2.6565,2.6347,2.5922,2.5911,2.6129,2.6519,2.6129,2.5899,2.5911,2.6335,2.6599,2.6517,2.6528,2.608,2.5284,2.4841,2.4392,2.3977,2.3594,2.3546,2.3929,2.3971,2.4146,2.4423,2.3851,2.3335,0.0,2.2563,0.0,0.0,0.0,0.0,0.0,0.0,0.0,0.0,1.6758,1.6608,1.6894,1.7165,1.7333,1.7333,1.7333,1.7333,1.7333,1.7333,1.7333,1.7333,1.7333,1.7333,1.7333,1.7153,1.6878,1.6683,1.6312,1.5933,1.5635,1.4675,1.3703,1.2829,1.2727,1.2247,1.0015,0.9727,0.9821,0.9723,0.9624,0.9624,0.9624,0.9624,0.9624,0.9624,0.9624,0.9624,0.9624,0.9624,0.9624,0.9624,0.9624,0.9529,0.943,0.8233,0.7534,0.7932,0.7232,0.6429,3.1571,3.1543,3.1433,3.1469,3.1396,3.104,3.0917,3.0983,3.1048,3.0921,3.0817,3.0712,3.0398,3.0019,3.0451,3.0424,2.9933,2.9755,2.972,2.9732,2.9605,2.9269,2.879,2.873,2.8462,2.8018,2.7452,2.7174,2.7093,2.7093,2.7036,2.6944,2.6944,2.699,2.707,0.0,0.0,0.0,2.7036,2.6871,2.6517,2.6528,2.6246,2.5764,2.5325,0.0,2.4934,2.4535,2.4322,2.4405,2.4416,0.0,0.0,0.0,0.0,0.0,0.0,0.0,0.0,0.0,0.0,0.0,1.9808,1.9315,1.8506,1.7689,1.7172,1.7238,1.7296,1.7333,1.7333,1.7333,1.7333,1.7333,1.7333,1.7333,1.7333,1.7333,1.7333,1.7333,1.716,1.6979,1.6784,1.5818,1.4949,1.4854,1.3794,1.2635,1.1658,1.2242,1.2247,1.1082,1.0109,0.9624,0.9624,0.9624,0.9624,0.9624,0.9624,0.9624,0.9624,0.9624,0.9624,0.9624,0.9624,0.9624,0.9624,0.9624,0.9331,0.873,0.7836,0.7235,0.7335,0.6234,0.4933,3.2556,0.0,3.2006,3.185,0.0,3.1272,3.0986,3.0986,3.0986,3.0986,3.0986,3.0986,3.083,3.0568,3.0869,3.083,3.0568,3.0543,3.0279,2.996,2.9716,2.925,2.8633,2.8315,2.8007,2.7708,2.7394,2.7231,2.7231,2.7231,2.7231,2.7231,2.7231,2.7231,2.7231,2.7231,2.7231,2.7231,2.7231,2.6962,2.6528,2.6704,2.655,2.5895,2.5644,0.0,0.0,0.0,0.0,0.0,0.0,0.0,0.0,2.3677,0.0,2.295,2.2325,2.1872,2.1872,2.115,2.0257,1.9446,1.8888,1.8427,1.8056,1.7606,1.7333,1.7333,1.7333,1.7333,1.7333,1.7333,1.7333,1.7333,1.7333,1.7333,1.7333,1.7333,1.7333,1.7333,1.7246,1.6965,1.6501,1.5825,1.5057,1.4573,1.342,1.2549,1.2058,1.1955,1.1565,1.0596,1.0015,0.9624,0.9624,0.9624,0.9624,0.9624,0.9624,0.9624,0.9624,0.9624,0.9624,0.9624,0.9624,0.9624,0.9529,0.9331,0.8928,0.8432,0.7437,0.6639,0.6542,0.5636,0.4533,3.3312,3.3241,3.2417,3.2128,3.2055,3.1347,3.0986,3.0986,0.0,0.0,0.0,3.0986,3.0986,3.0986,3.0986,3.0986,3.0986,3.0986,3.0748,3.0203,2.9651,2.9094,2.8486,2.7857,2.7452,2.7383,2.7231,2.7231,2.7231,2.7231,2.7231,2.7231,2.7231,2.7231,2.7231,2.7231,2.7231,2.7231,2.7231,2.7056,2.661,2.6962,2.6727,2.5979,2.5979,2.5717,2.52,2.4871,2.454,2.455,2.455,2.4282,2.3677,2.359,2.3135,2.2492,2.1793,2.1356,2.1186,1.9828,1.8827,1.8643,1.78,1.7333,1.7333,1.7333,1.7333,1.7333,1.7333,1.7333,1.7333,1.7333,1.7333,1.7333,1.7333,1.7333,1.7333,1.7333,1.7333,1.7333,1.7239,1.6958,1.6211,1.5635,1.5153,1.4298,1.3136,1.2467,1.236,1.157,1.0792,0.992,0.9624,0.9624,0.9624,0.9624,0.9624,0.9624,0.9624,0.9624,0.9624,0.9624,0.9624,0.9624,0.9624,0.9525,0.9327,0.8832,0.8333,0.8035,0.6939,0.5942,0.5739,0.5238,0.4634,3.3312,3.3255,3.2431,3.2128,3.2055,3.1347,3.0986,3.0986,3.0986,3.0986,3.0986,3.0986,3.0986,3.0986,3.0986,3.0986,3.0986,3.0986,3.0986,3.0836,3.0748,3.0355,2.9729,2.9094,2.8554,2.8018,2.7464,2.7231,2.7231,2.7231,2.7231,2.7231,2.7231,2.7242,2.7231,2.7231,2.7231,2.7231,2.7231,2.7138,2.7056,2.6787,2.6539,2.6445,2.6052,2.5717,2.52,2.5115,2.4861,2.454,2.455,2.4454,2.4368,2.3851,2.3135,2.2394,2.1793,2.1096,2.0464,1.9828,1.9096,1.8265,1.7613,1.7333,1.7333,1.7333,1.7333,1.7333,1.7333,1.7333,1.7333,1.7333,1.7333,1.7333,1.7333,1.7333,1.7333,1.7333,1.7333,1.7333,1.7153,1.6972,1.6595,1.5255,1.4286,1.3806,1.2651,1.1487,1.1482,1.09,1.031,0.9723,0.9624,0.9624,0.9624,0.9624,0.9624,0.9624,0.9624,0.9624,0.9624,0.9624,0.9624,0.9529,0.9525,0.9229,0.873,0.8531,0.7836,0.6842,0.6142,0.5739,0.5236,0.4935,0.4634,3.3312,3.3241,3.2646,3.2273,3.2055,3.1272,3.0986,3.0986,3.0986,3.0986,3.0986,3.0986,3.0986,3.0986,3.0986,3.0986,3.0986,3.0986,3.0836,3.0432,3.0444,2.996,2.9028,2.8724,2.8235,2.7708,2.7383,2.7231,2.7231,2.7231,2.7231,2.7242,2.7495,2.7644,2.7644,2.7633,2.7495,2.7242,2.7231,2.7231,2.7231,2.6962,2.6787,2.6528,2.6135,2.5633,2.52,2.4956,2.47,2.455,2.455,2.4368,2.3937,2.3677,2.3135,2.2492,2.1793,2.1266,2.0907,1.982,1.8819,1.8179,1.7613,1.7333,1.7333,1.7333,1.7333,1.7333,1.7333,1.7333,1.7333,1.7333,1.7333,1.7333,1.7333,1.7333,1.7333,1.7333,1.7333,1.7333,1.7246,1.6864,1.6015,1.5146,1.419,1.3426,1.2462,1.1975,1.1683,1.1389,1.1096,1.0609,1.0216,1.0019,1.0019,0.9723,0.9628,0.9624,0.9624,0.9624,0.9624,0.9624,0.943,0.9031,0.8928,0.863,0.7932,0.7338,0.6739,0.6339,0.5639,0.5236,0.4834,0.4832,0.4634,3.3312,3.3241,3.286,3.2417,3.1982,3.1347,3.1061,3.0986,3.1136,3.1061,3.0986,3.0986,3.0986,3.0986,3.0986,3.0986,3.0986,3.0986,3.0748,3.0266,3.0037,2.9496,2.8645,2.8327,2.795,2.7464,2.7313,2.7231,2.7231,2.7231,2.7288,2.7438,2.7897,2.8149,2.8138,2.8138,2.7897,2.7438,2.7506,2.7461,2.7242,2.7056,2.688,2.6622,2.6146,2.5728,2.538,2.4871,2.4625,2.455,2.455,2.4282,2.3764,2.3764,2.3309,2.2492,2.1872,2.1347,2.0817,1.9546,1.855,1.7994,1.752,1.7333,1.7333,1.7333,1.7333,1.7333,1.7333,1.7333,1.7333,1.7333,1.7333,1.7333,1.7333,1.7333,1.7333,1.7333,1.7333,1.7333,1.7333,1.6763,1.5717,1.5242,1.4478,1.3147,1.2759,1.2565,1.2273,1.2078,1.1785,1.1389,1.0801,1.0413,1.0413,0.992,0.9624,0.9624,0.9624,0.9624,0.9624,0.9624,0.9327,0.873,0.8432,0.8035,0.7138,0.6539,0.6039,0.5739,0.5236,0.4834,0.4834,0.4832,0.4634,3.334,3.3241,3.2874,3.2273,3.1703,3.1556,3.1347,3.1061,3.1421,3.1347,3.0986,3.0986,3.0986,3.0986,3.0986,3.0986,3.0986,3.0986,3.0986,3.0836,3.0279,2.996,2.9639,2.8712,2.8179,2.8018,2.7464,2.7231,2.7231,2.7242,2.7483,2.792,2.839,2.8632,2.8632,2.8632,2.839,2.7931,2.8344,2.8126,2.7206,2.6798,2.6798,2.7149,2.6313,2.5895,2.5812,2.538,2.4956,2.455,2.455,2.4454,2.4368,2.4358,2.3831,2.257,2.2315,2.1418,1.9379,1.892,1.8481,1.7512,1.7347,1.734,1.7333,1.7333,1.7333,1.7333,1.7333,1.7333,1.7333,1.7333,1.7333,1.7333,1.7333,1.7333,1.7333,1.7333,1.7333,1.7333,1.7239,1.6943,1.6096,1.533,1.4382,1.305,1.2759,1.2759,1.257,1.2273,1.198,1.1683,1.1096,1.0511,1.0314,0.9924,0.9628,0.9624,0.9624,0.9525,0.9525,0.9426,0.9327,0.8131,0.8251,0.7656,0.6639,0.6042,0.5746,0.5238,0.4935,0.4832,0.4832,0.4832,0.4734,3.4183,3.3788,3.3631,3.3049,3.23,3.1982,3.1703,3.1421,3.1556,3.1347,3.1061,3.0986,3.0986,3.0986,3.0986,3.0986,3.0986,3.0986,3.0986,3.0986,3.0672,3.019,2.9484,2.9015,2.8395,2.7626,2.7301,2.7231,2.7277,2.7518,2.808,2.8815,2.9091,2.9171,2.9171,2.9171,2.8919,2.8436,2.8597,2.8494,2.8126,2.7638,2.7489,2.7561,2.6552,2.5895,2.5812,2.5211,2.47,2.454,2.455,2.455,2.4454,2.411,2.3667,2.3057,2.2471,2.1798,2.1121,2.0104,1.9154,1.8573,1.7991,1.7538,1.7355,1.7333,1.7333,1.7333,1.7333,1.7333,1.7333,1.7333,1.7333,1.7333,1.7333,1.7333,1.7333,1.7333,1.7333,1.7326,1.6951,1.6379,1.5527,1.4478,1.3528,1.2861,1.2759,1.2662,1.237,1.2175,1.1878,1.1487,1.0904,1.0511,1.0413,0.992,0.9628,0.9628,0.9624,0.9525,0.9038,0.8931,0.8531,0.7244,0.7205,0.6807,0.5543,0.539,0.5211,0.4871,0.4834,0.4832,0.4832,0.4832,0.4832,3.4899,3.4492,3.415,3.3501,3.2717,3.2417,3.2055,3.1776,3.1776,3.1542,3.1211,3.1219,3.1222,3.1196,3.1065,3.0986,3.0986,3.0986,3.0986,3.0986,3.0836,3.0114,2.916,2.9096,2.845,2.7614,2.7587,2.7644,2.769,2.8161,2.8781,2.9424,2.963,2.9688,2.9688,2.9688,2.9435,2.8976,2.9045,2.9056,2.8896,2.8574,2.8179,2.7702,2.6568,2.5822,2.5728,2.4882,2.455,2.455,2.4664,2.4736,2.465,2.4317,2.4027,2.3516,2.2602,2.2062,2.2064,2.0829,1.9854,1.9319,1.8444,1.7912,1.7501,1.7377,1.7333,1.7333,1.7333,1.7333,1.7333,1.7333,1.7333,1.7333,1.7333,1.7333,1.7333,1.7138,1.6951,1.6951,1.6285,1.5662,1.4846,1.3773,1.2878,1.285,1.2807,1.2565,1.2093,1.1933,1.1688,1.1189,1.0635,1.0427,1.0349,0.9983,0.9681,0.9267,0.9279,0.9075,0.832,0.8216,0.7854,0.6816,0.6432,0.5896,0.532,0.5039,0.4963,0.4906,0.4888,0.4906,0.4932,0.4914,0.4914,3.5212,3.5026,3.4085,3.3342,3.2717,3.2704,3.2417,3.2055,3.2082,3.1863,3.1601,3.1727,3.181,3.1694,3.1313,3.1013,3.0999,3.1026,3.1039,3.0963,3.042,2.9754,2.9118,2.8967,2.8574,2.8061,2.831,2.8551,2.8632,2.9125,2.9458,2.9527,2.994,3.017,3.0147,3.0135,2.994,2.955,2.9837,2.9906,2.9504,2.9424,2.8733,2.7487,2.6422,2.5793,2.5349,2.4807,2.4571,2.456,2.4974,2.5192,2.5233,2.5485,2.5028,2.3792,2.2981,2.2072,2.1176,2.0823,2.0289,1.9318,1.8916,1.8311,1.7882,1.7574,1.7435,1.7355,1.7421,1.7399,1.7399,1.7369,1.7347,1.7362,1.7355,1.7362,1.7268,1.6767,1.6298,1.6211,1.5662,1.4986,1.4416,1.3475,1.3019,1.2996,1.291,1.2607,1.217,1.1795,1.1386,1.0927,1.0489,1.0219,1.0328,0.9875,0.9384,0.887,0.8568,0.8488,0.794,0.7404,0.6936,0.6556,0.625,0.5796,0.5203,0.4971,0.4981,0.4981,0.5022,0.5047,0.5026,0.5073,0.5065,3.5578,3.5096,3.4332,3.3868,3.3645,3.3268,3.2717,3.2155,3.2535,3.2326,3.1843,3.2214,3.2385,3.2372,3.2163,3.1875,3.1548,3.1535,3.1535,3.1498,3.1199,3.0716,3.0138,2.9689,2.9115,2.8556,2.862,2.8884,2.9206,2.9424,2.9665,2.994,3.0124,3.0216,3.0216,3.0216,3.0112,2.9998,3.0147,3.0124,2.985,2.9285,2.8567,2.7867,2.7141,2.6541,2.6115,2.5664,2.5399,2.5399,2.5564,2.5647,2.5658,2.533,2.4809,2.4108,2.3299,2.2743,2.2582,2.1835,2.1139,2.0514,1.9688,1.9102,1.8641,1.8208,1.7955,1.7947,1.7947,1.7947,1.7867,1.7596,1.7413,1.7596,1.7647,1.7433,1.7211,1.6869,1.6417,1.5765,1.5027,1.4294,1.38,1.3363,1.3254,1.3319,1.327,1.301,1.2612,1.2287,1.1918,1.0999,1.031,0.9796,0.9389,0.9282,0.8891,0.8257,0.778,0.7494,0.7069,0.6771,0.6386,0.5885,0.5694,0.569,0.509,0.5059,0.5059,0.5067,0.5114,0.5141,0.5106,0.5145,0.5135,3.5902,3.5419,3.5012,3.459,3.4211,3.3803,3.3308,3.2832,3.3069,3.2907,3.2641,3.3027,3.3132,3.2986,3.2973,3.2618,3.2057,3.2058,3.1967,3.1758,3.1733,3.1235,3.0408,3.0073,2.9558,2.9074,2.9125,2.9389,2.9688,2.9722,2.9906,3.0193,3.0216,3.0216,3.0216,3.0216,3.0216,3.0216,3.0216,3.0216,3.0079,2.9353,2.8721,2.8302,2.7746,2.7162,2.6468,2.6055,2.5885,2.5896,2.602,2.6073,2.5931,2.5189,2.4554,2.4044,2.3517,2.3242,2.3285,2.2535,2.182,2.1387,2.0432,1.966,1.9247,1.8654,1.8405,1.8299,1.8299,1.8299,1.8225,1.7896,1.7743,1.7933,1.7977,1.7666,1.7079,1.6794,1.5995,1.4965,1.4325,1.3853,1.3426,1.3416,1.3497,1.3572,1.3534,1.3275,1.2859,1.2719,1.2546,1.1508,1.0514,0.9697,0.9037,0.8525,0.7995,0.7331,0.7206,0.6778,0.6328,0.6129,0.5931,0.5416,0.521,0.5214,0.5198,0.5163,0.5153,0.5155,0.5204,0.5247,0.5224,0.521,0.5212,3.6079,3.6009,3.6051,3.5349,3.4464,3.4295,3.4167,3.3952,3.3758,3.367,3.3634,3.4072,3.3898,3.3668,3.3506,3.3127,3.2644,3.2584,3.2272,3.1762,3.1675,3.1042,2.9988,3.0221,3.0074,2.9515,2.9952,3.0158,3.0147,3.0135,3.0181,3.0204,3.0216,3.0216,3.0216,3.0216,3.0216,3.0216,3.0216,3.0216,3.0125,2.9624,2.9131,2.868,2.8183,2.7323,2.609,2.5958,2.602,2.603,2.6361,2.64,2.5922,2.5189,2.4464,2.3764,2.3601,2.3329,2.2745,2.2544,2.2232,2.1736,2.0893,2.0131,1.9668,1.8947,1.8408,1.8423,1.8408,1.8372,1.8394,1.8343,1.8299,1.8306,1.82,1.7825,1.7061,1.6312,1.5285,1.3981,1.3685,1.3577,1.369,1.3674,1.3658,1.3755,1.3685,1.3474,1.2982,1.2885,1.2639,1.2046,1.0704,0.9233,0.8526,0.779,0.6991,0.6368,0.6476,0.6308,0.593,0.5595,0.5619,0.5308,0.5306,0.5306,0.5275,0.5245,0.5245,0.5257,0.5312,0.5337,0.5318,0.5302,0.5326,3.6445,3.6093,3.6065,3.5869,3.5447,3.5054,3.4486,3.39,3.4471,3.4366,3.3775,3.4447,3.4561,3.4136,3.3733,3.3301,3.3107,3.2651,3.2147,3.1573,3.1479,3.1219,3.0818,3.0442,3.0154,3.0009,3.0135,3.0216,3.0216,3.0216,3.0216,3.0216,3.0216,3.0216,3.0216,3.0216,3.0216,3.0216,3.0216,3.0216,3.0136,2.9393,2.8932,2.8746,2.7998,2.7285,2.6848,2.6827,2.6837,2.6806,2.6972,2.6526,2.546,2.4501,2.3719,2.3029,2.2946,2.2846,2.2653,2.2653,2.2544,2.2114,2.1314,2.0766,2.0444,1.952,1.895,1.8957,1.8972,1.8972,1.8972,1.8972,1.8855,1.8664,1.8117,1.7585,1.6788,1.5457,1.4337,1.392,1.3717,1.3755,1.3825,1.3836,1.3965,1.4029,1.3986,1.3837,1.3646,1.3006,1.2431,1.1801,1.0116,0.8803,0.8033,0.7152,0.6316,0.5923,0.5992,0.6047,0.5573,0.5341,0.5369,0.5382,0.5382,0.5371,0.5341,0.5326,0.532,0.5328,0.5353,0.5369,0.538,0.527,0.5156,3.6557,3.6416,3.6416,3.6262,3.6051,3.5719,3.519,3.4641,3.5322,3.5077,3.4424,3.4886,3.4739,3.3988,3.3489,3.3025,3.2587,3.2164,3.1632,3.1129,3.1292,3.1217,3.0937,3.0397,3.0216,3.0216,3.0216,3.0216,3.0216,3.0216,3.0216,3.0216,3.0216,3.0216,3.0216,3.0216,3.0216,3.0227,3.0034,2.9943,2.976,2.9024,2.8466,2.8373,2.7726,2.7357,2.7262,2.7061,2.6965,2.7061,2.6764,2.5781,2.451,2.3728,2.3046,2.2745,2.2653,2.2653,2.2653,2.2653,2.2653,2.2443,2.153,2.0917,2.0712,1.9894,1.9272,1.9272,1.9257,1.9272,1.9264,1.8945,1.874,1.8568,1.8018,1.7264,1.6355,1.4898,1.4077,1.3959,1.3959,1.3959,1.4003,1.4062,1.4191,1.4196,1.4196,1.3862,1.364,1.2852,1.2091,1.1105,0.9567,0.8361,0.7593,0.671,0.5605,0.5477,0.5481,0.5605,0.5369,0.5367,0.5382,0.5382,0.5382,0.5382,0.5359,0.5363,0.5363,0.5382,0.5382,0.5382,0.527,0.4706,0.448,3.6473,3.6964,3.6978,3.6641,3.6192,3.6136,3.6037,3.6009,3.6136,3.5802,3.5283,3.52,3.4487,3.3381,3.3014,3.2399,3.1488,3.1306,3.0913,3.0609,3.0758,3.0859,3.0397,3.0216,3.0216,3.0216,3.0216,3.0216,3.0216,3.0216,3.0216,3.0216,3.0216,3.0216,3.0216,3.0216,3.0216,3.0125,2.976,2.9577,2.9474,2.8549,2.8081,2.7998,2.7526,2.7272,2.7262,2.6678,2.6476,2.686,2.5674,2.4609,2.3728,2.3038,2.2653,2.2653,2.2653,2.2653,2.2653,2.2653,2.2653,2.2552,2.1632,2.0925,2.0719,1.9894,1.9272,1.9272,1.9272,1.9272,1.9056,1.852,1.8073,1.7877,1.7515,1.6909,1.566,1.4595,1.4256,1.4164,1.4186,1.4186,1.4159,1.418,1.4191,1.4191,1.4083,1.3413,1.2748,1.22,1.1651,1.0335,0.8692,0.7922,0.7043,0.6379,0.5382,0.5382,0.5382,0.5382,0.5382,0.5382,0.5382,0.5382,0.5382,0.5382,0.5382,0.5382,0.5382,0.5382,0.5382,0.5382,0.4931,0.4143,0.3473,3.6838,3.6978,3.6978,3.6894,3.6754,3.6754,3.6473,3.6164,3.6571,3.5889,3.4805,3.4942,3.4249,3.2817,3.2253,3.168,3.1258,3.0758,3.0397,3.0306,3.0385,3.0397,3.0216,3.0216,3.0216,3.0216,3.0216,3.0216,3.0216,3.0216,3.0216,3.0216,3.0216,3.0216,3.0216,3.0216,3.0216,3.0125,2.976,2.9485,2.929,2.8456,2.7987,2.7987,2.7526,2.7262,2.7262,2.6582,2.5897,2.5479,2.4609,2.3926,2.3628,2.3038,2.2653,2.2653,2.2653,2.2653,2.2653,2.2653,2.2653,2.2544,2.1522,2.0925,2.0822,1.9894,1.9376,1.9272,1.9272,1.8959,1.852,1.8094,1.7457,1.6405,1.6193,1.5779,1.4826,1.4401,1.4196,1.4196,1.4196,1.4196,1.4196,1.4196,1.4191,1.397,1.3527,1.2753,1.1978,1.0887,1.0123,0.9247,0.7928,0.7268,0.6492,0.5826,0.5493,0.5382,0.5382,0.5382,0.5382,0.5382,0.5382,0.5382,0.5382,0.5382,0.5382,0.5382,0.5382,0.527,0.4706,0.4369,0.3807,0.3134,0.2465,3.6978,3.6978,3.6978,3.6978,3.6978,3.6978,3.6782,3.6571,3.6796,3.5977,3.4726,3.4714,3.3814,3.2167,3.1723,3.1256,3.0824,3.0397,3.0216,3.0216,3.0216,3.0216,3.0216,3.0216,3.0216,3.0216,3.0216,3.0216,3.0216,3.0216,3.0216,3.0216,3.0216,3.0216,3.0216,3.0216,3.0216,3.0125,2.976,2.9405,2.9117,2.8456,2.7904,2.7715,2.7347,2.7061,2.637,2.5499,2.5011,2.4698,2.4214,2.3538,2.3238,2.2846,2.2653,2.2653,2.2653,2.2653,2.2653,2.2653,2.2653,2.2443,2.153,2.1019,2.0719,1.9894,1.9272,1.8736,1.8743,1.8318,1.7569,1.714,1.6299,1.525,1.4934,1.4724,1.4196,1.4191,1.4196,1.4196,1.4196,1.4196,1.4196,1.4191,1.3862,1.3521,1.2856,1.1873,1.0887,0.9688,0.8589,0.8039,0.7487,0.6715,0.6272,0.5826,0.5493,0.5382,0.5382,0.5382,0.5382,0.5382,0.5382,0.5382,0.5382,0.5382,0.527,0.5156,0.5043,0.4706,0.403,0.336,0.28,0.191,0.1349,3.6978,3.6978,3.6978,3.6978,3.6978,3.6978,3.6964,3.6964,3.6964,3.6111,3.4832,3.4618,3.3377,3.1345,3.1305,3.0954,3.0216,3.0227,3.0216,3.0216,3.0216,3.0216,3.0216,3.0216,3.0216,3.0216,3.0216,3.0216,3.0216,3.0216,3.0216,3.0216,3.0216,3.0216,3.0216,3.0216,3.0216,3.0125,2.976,2.9405,2.8932,2.8175,2.761,2.7241,2.686,2.6264,2.5187,2.4313,2.4016,2.4688,2.4016,2.3238,2.2754,2.2653,2.2653,2.2653,2.2653,2.2653,2.2653,2.2653,2.2653,2.2451,2.153,2.0814,2.0498,1.968,1.8736,1.7884,1.7884,1.7463,1.6723,1.5879,1.5143,1.4509,1.4304,1.4196,1.4196,1.4196,1.4196,1.4196,1.4196,1.4196,1.4191,1.397,1.3635,1.2861,1.2087,1.0777,0.9904,0.8916,0.8039,0.7376,0.6824,0.6383,0.6049,0.5714,0.5493,0.5382,0.5382,0.5382,0.5382,0.5382,0.5382,0.5382,0.5382,0.5156,0.4819,0.4706,0.448,0.3695,0.2798,0.2242,0.1797,0.0677,-0.0113,3.6978,3.6978,3.6978,3.6978,3.6978,3.6978,3.6978,3.6978,3.6978,3.596,3.4616,3.4192,3.295,3.1128,3.0903,3.0563,3.0204,3.0216,3.0216,3.0216,3.0216,3.0216,3.0216,3.0216,3.0216,3.0216,3.0216,3.0216,3.0216,3.0216,3.0216,3.0216,3.0216,3.0216,3.0216,3.0216,3.0216,3.0125,2.976,2.9393,2.8828,2.7778,2.703,2.6744,2.5974,2.5285,2.4894,2.4115,2.3827,2.3728,2.3338,2.2846,2.2653,2.2653,2.2653,2.2653,2.2653,2.2653,2.2653,2.2653,2.2552,2.2342,2.142,2.0609,1.9849,1.8923,1.7884,1.7147,1.6935,1.6624,1.5879,1.4928,1.4509,1.4299,1.4196,1.4196,1.4196,1.4196,1.4196,1.4196,1.4083,1.4191,1.4083,1.3197,1.2639,1.22,1.1105,0.9684,0.8806,0.8146,0.7595,0.6935,0.649,0.6161,0.5935,0.5714,0.5493,0.5382,0.5382,0.5382,0.5382,0.5156,0.5044,0.5156,0.5382,0.5044,0.448,0.3918,0.3582,0.2574,0.1569,0.1014,0.0453,-0.0682,-0.1149,3.6978,3.6978,3.6978,3.6978,3.6978,3.6978,3.6822,3.6401,3.6401,3.54,3.3888,3.3479,3.2488,3.1074,3.0679,3.0476,3.0216,3.0216,3.0216,3.0216,3.0216,3.0216,3.0216,3.0216,3.0216,3.0216,3.0216,3.0216,3.0216,3.0216,3.0216,3.0216,3.0216,3.0216,3.0216,3.0216,2.9932,2.9474,2.929,2.8817,2.7767,2.701,2.6244,2.5858,2.4894,2.4304,2.4214,2.3628,2.3238,2.3147,2.2846,2.2653,2.2653,2.2653,2.2653,2.2653,2.2653,2.2653,2.2653,2.2552,2.2333,2.181,2.0893,1.9857,1.8916,1.7982,1.7041,1.6411,1.6092,1.5779,1.5041,1.4617,1.4191,1.4196,1.4196,1.4196,1.4191,1.4191,1.4196,1.4083,1.3635,1.3413,1.2975,1.22,1.1328,1.0672,1.0229,0.892,0.8036,0.7487,0.7154,0.6715,0.627,0.6047,0.5824,0.5601,0.5493,0.5382,0.5382,0.5382,0.5382,0.5044,0.4706,0.4819,0.4931,0.448,0.3805,0.3245,0.2351,0.1344,0.045,-0.0113,-0.0684,-0.1261,-0.1513,3.6978,3.6978,3.6978,3.6978,3.6978,3.6822,3.6308,3.5709,3.548,3.4568,3.3139,3.2636,3.2052,3.1038,3.0679,3.0397,3.0306,3.0216,3.0216,3.0216,3.0216,3.0216,3.0216,3.0216,3.0216,3.0216,3.0216,3.0216,3.0216,3.0216,3.0216,3.0216,3.0216,3.0034,3.0034,2.9943,2.9371,2.8516,2.833,2.7757,2.6522,2.6041,2.5363,2.4501,2.3917,2.3529,2.3438,2.3046,2.2653,2.2653,2.2653,2.2653,2.2653,2.2653,2.2653,2.2653,2.2653,2.2443,2.2131,2.2131,2.1717,2.0672,1.9842,1.8902,1.7871,1.7041,1.6199,1.5672,1.525,1.5035,1.4299,1.4196,1.4191,1.4196,1.4196,1.4083,1.397,1.397,1.3748,1.3743,1.3192,1.2748,1.1982,1.1105,1.0017,0.914,0.8809,0.8371,0.7487,0.6935,0.6712,0.649,0.6044,0.5824,0.5601,0.5603,0.5382,0.527,0.527,0.5156,0.5044,0.4594,0.4255,0.4255,0.4255,0.3582,0.2798,0.2015,0.1121,0.0112,-0.0452,-0.0913,-0.1379,-0.1734,-0.1886,3.6978,3.6978,3.6978,3.6978,3.69,3.6243,3.5682,3.5251,3.468,3.3804,3.2722,3.2376,3.1701,3.0847,3.0397,3.0216,3.0216,3.0216,3.0216,3.0216,3.0216,3.0216,3.0216,3.0216,3.0216,3.0216,3.0216,3.0216,3.0216,3.0216,3.0216,3.0216,3.0125,2.9852,2.9187,2.891,2.833,2.7369,2.7179,2.6693,2.6021,2.5158,2.4295,2.3338,2.3038,2.2946,2.2846,2.2754,2.2653,2.2653,2.2653,2.2653,2.2552,2.2552,2.2544,2.2552,2.2443,2.2131,2.1505,2.1191,2.0467,1.942,1.8589,1.7752,1.6804,1.608,1.5351,1.4826,1.4509,1.4407,1.4191,1.4196,1.4191,1.4191,1.3975,1.364,1.297,1.2748,1.2639,1.2422,1.22,1.1869,1.0996,1.012,0.9247,0.8481,0.8039,0.7706,0.7157,0.6712,0.649,0.6156,0.5822,0.5712,0.5491,0.5493,0.5382,0.5156,0.4931,0.448,0.4255,0.3918,0.3694,0.3246,0.2687,0.2016,0.1232,0.0672,-0.0,-0.0897,-0.1249,-0.1495,-0.1742,-0.1877,-0.1915,3.6978,3.6978,3.6978,3.6744,3.6322,3.5924,3.5034,3.4061,3.3694,3.2968,3.214,3.1725,3.1294,3.0668,3.0306,3.0216,3.0216,3.0216,3.0216,3.0216,3.0216,3.0216,3.0216,3.0216,3.0216,3.0216,3.0216,3.0216,3.0216,3.0216,3.0125,3.0034,2.976,2.9198,2.8631,2.8143,2.7389,2.6426,2.6041,2.5644,2.4875,2.4007,2.3129,2.2846,2.2653,2.2653,2.2653,2.2653,2.2653,2.2653,2.2653,2.2653,2.2443,2.2123,2.2021,2.2333,2.2021,2.1505,2.0885,2.0364,1.9428,1.8178,1.7549,1.6704,1.5755,1.503,1.4611,1.4407,1.4196,1.4196,1.4196,1.4191,1.3856,1.3413,1.3305,1.2753,1.1873,1.1546,1.1214,1.0887,1.0449,1.0123,0.9794,0.9027,0.8257,0.7706,0.7376,0.7046,0.6715,0.6379,0.6154,0.5933,0.571,0.5603,0.538,0.5156,0.4931,0.4817,0.4369,0.3807,0.3135,0.2574,0.2015,0.1456,0.0896,0.056,0.0224,-0.0224,-0.1009,-0.1573,-0.1595,-0.1733,-0.1761,-0.1909,-0.1943,3.6978,3.6978,3.6978,3.6466,3.5628,3.5494,3.435,3.2978,3.2784,3.2239,3.1306,3.1062,3.0871,3.0487,3.0306,3.0216,3.0216,3.0216,3.0216,3.0216,3.0216,3.0216,3.0216,3.0216,3.0216,3.0216,2.984,3.0034,3.0125,2.9943,2.984,2.9555,2.891,2.8258,2.7872,2.72,2.635,2.5586,2.5109,2.4421,2.3447,2.2854,2.2653,2.2653,2.2653,2.2653,2.2653,2.2653,2.2653,2.2653,2.2552,2.2544,2.2131,2.1404,2.1191,2.1607,2.0987,2.0577,1.9952,1.9435,1.829,1.6823,1.6499,1.5654,1.4917,1.4509,1.4191,1.4196,1.4196,1.397,1.3748,1.3748,1.3192,1.2422,1.1982,1.1655,1.0781,1.0233,0.9684,0.9247,0.8699,0.8589,0.8478,0.8367,0.7706,0.7485,0.7157,0.6826,0.6492,0.6156,0.5933,0.5712,0.5603,0.5493,0.5268,0.4817,0.448,0.4142,0.3471,0.2799,0.1792,0.0896,0.0448,0.0112,-0.0224,-0.0561,-0.0785,-0.0899,-0.1351,-0.1699,-0.1833,-0.1861,-0.1897,-0.1926,-0.1954,3.6978,3.6978,3.6978,3.6332,3.5251,3.468,3.3456,3.2007,3.1967,3.1572,3.1062,3.0984,3.0691,3.0306,3.0216,3.0216,3.0216,3.0216,3.0216,3.0216,3.0216,3.0125,3.0125,3.0216,2.9932,2.9738,2.9187,2.9474,2.9555,2.9187,2.891,2.8713,2.7851,2.701,2.6456,2.6061,2.5197,2.4242,2.4044,2.3737,2.3147,2.2745,2.2653,2.2653,2.2653,2.2653,2.2552,2.2544,2.2443,2.2443,2.2443,2.203,2.1293,2.1089,2.0364,1.9849,1.9332,1.902,1.8304,1.7996,1.7153,1.5879,1.5351,1.4826,1.4509,1.4299,1.4196,1.4196,1.4083,1.364,1.297,1.2635,1.1978,1.1324,1.0891,1.0233,0.9471,0.9137,0.8589,0.8257,0.7928,0.7706,0.7595,0.7376,0.7265,0.7043,0.6935,0.6604,0.6383,0.5935,0.5712,0.5603,0.538,0.527,0.4819,0.448,0.3698,0.3248,0.2463,0.1568,0.0672,-0.0224,-0.0561,-0.0897,-0.1234,-0.1349,-0.1353,-0.1469,-0.1699,-0.183,-0.1855,-0.1886,-0.192,-0.1945,-0.1967,3.6573,3.6978,3.6494,3.5615,3.464,3.3875,3.2905,3.1906,3.1677,3.1407,3.1074,3.0984,3.0691,3.0306,3.0216,3.0216,3.0216,3.0216,3.0216,3.0216,3.0125,2.984,2.9463,2.9279,2.9187,2.8609,2.8132,2.7955,2.8226,2.8132,2.7851,2.7673,2.6904,2.6254,2.5499,2.5109,2.4637,2.4152,2.3746,2.3347,2.2854,2.2653,2.2653,2.2552,2.2552,2.2552,2.2443,2.192,2.1717,2.1514,2.1089,2.0467,1.9849,1.9339,1.8722,1.8408,1.7667,1.7463,1.7575,1.7047,1.6099,1.5357,1.4934,1.4826,1.4299,1.4191,1.4191,1.4196,1.3527,1.2861,1.2313,1.176,1.0781,1.0127,0.9688,0.9027,0.8367,0.8039,0.7709,0.7376,0.7154,0.7154,0.7154,0.7154,0.7046,0.6935,0.6715,0.6383,0.6049,0.5714,0.5603,0.5493,0.5268,0.5156,0.448,0.3918,0.2581,0.1908,0.1233,0.0336,-0.0561,-0.1234,-0.1348,-0.146,-0.1572,-0.169,-0.1814,-0.1823,-0.1828,-0.1852,-0.1879,-0.1908,-0.1935,-0.1954,-0.1971,3.5736,3.6229,3.5642,3.4815,3.3985,3.3237,3.2488,3.1749,3.1749,3.1496,3.1151,3.0972,3.0589,3.0306,3.0216,3.0216,3.0216,3.0216,3.0216,3.0216,2.9852,2.9382,2.891,2.8538,2.7955,2.7179,2.6999,2.6914,2.6819,2.6628,2.6426,2.6723,2.5771,2.5401,2.5109,2.4627,2.4053,2.3854,2.3555,2.3147,2.2745,2.2644,2.2434,2.2232,2.2131,2.203,2.1717,2.0987,2.0475,2.0261,1.9849,1.9332,1.8819,1.8304,1.7681,1.7265,1.6518,1.6418,1.6636,1.6318,1.5678,1.5143,1.4826,1.4617,1.4293,1.4083,1.3748,1.364,1.2644,1.1982,1.1433,1.0672,0.9794,0.903,0.8481,0.7928,0.7485,0.7487,0.7487,0.7265,0.7154,0.7154,0.7154,0.7046,0.6935,0.6715,0.6495,0.6165,0.5839,0.5512,0.5083,0.4981,0.4672,0.4331,0.3414,0.2611,0.1473,0.0677,-0.0,-0.0564,-0.1244,-0.1582,-0.1695,-0.1693,-0.1806,-0.1817,-0.1834,-0.184,-0.1847,-0.1879,-0.1907,-0.1925,-0.1947,-0.1964,-0.1975,3.4389,3.4472,3.4389,3.3888,3.3164,3.3066,3.25,3.1749,3.1661,3.1484,3.1229,3.0847,3.0499,3.0306,3.0216,3.0216,3.0216,3.0216,3.0125,2.984,2.9279,2.8817,2.8258,2.7579,2.7189,2.6798,2.6244,2.5877,2.5684,2.5197,2.5304,2.5499,2.4913,2.4538,2.435,2.4152,2.3746,2.3546,2.3247,2.3046,2.2846,2.2544,2.2021,2.1293,2.0987,2.057,1.9539,1.9435,1.9332,1.9332,1.8916,1.8401,1.7779,1.747,1.6948,1.6418,1.6105,1.5897,1.5903,1.5897,1.5571,1.5041,1.4504,1.4078,1.3856,1.297,1.2639,1.2422,1.1437,1.0453,0.9798,0.892,0.8478,0.8149,0.782,0.7598,0.7265,0.7265,0.7265,0.7265,0.7154,0.7154,0.7046,0.6935,0.6826,0.6606,0.6203,0.587,0.5552,0.5227,0.4572,0.4254,0.3834,0.3148,0.1984,0.1162,0.0461,-0.0115,-0.0802,-0.126,-0.172,-0.1832,-0.1831,-0.183,-0.1834,-0.1844,-0.1854,-0.1864,-0.1881,-0.1911,-0.1934,-0.1947,-0.1957,-0.197,-0.1976,3.3164,3.2735,3.2661,3.2821,3.2993,3.2401,3.2001,3.1749,3.1661,3.1484,3.105,3.0769,3.0487,3.0306,3.0216,3.0216,3.0216,3.0216,2.984,2.9371,2.8817,2.7977,2.721,2.6552,2.5974,2.5489,2.4922,2.4735,2.4735,2.4341,2.444,2.4538,2.4341,2.4251,2.4152,2.3854,2.3546,2.3247,2.3046,2.2946,2.2544,2.192,2.1293,2.0987,2.0055,1.9738,1.9228,1.8513,1.8304,1.8087,1.7562,1.7147,1.673,1.6624,1.6418,1.5891,1.5785,1.5583,1.5476,1.5476,1.5369,1.4713,1.3846,1.3083,1.3083,1.1982,1.1437,1.1,1.0339,0.9247,0.903,0.826,0.7595,0.7376,0.7168,0.7179,0.719,0.7206,0.7209,0.723,0.719,0.7157,0.6935,0.6826,0.6604,0.65,0.61,0.569,0.526,0.4719,0.4059,0.3266,0.2827,0.2009,0.0828,0.0118,-0.0351,-0.0934,-0.1516,-0.163,-0.1863,-0.1866,-0.1866,-0.1864,-0.1866,-0.1879,-0.1889,-0.1895,-0.1911,-0.1932,-0.1949,-0.1964,-0.1972,-0.1977,-0.1977,3.1773,3.1279,3.1192,3.1796,3.2476,3.2001,3.1661,3.1661,3.1572,3.1306,3.0871,3.0679,3.0487,3.0306,3.0216,3.0216,3.0125,2.984,2.929,2.8724,2.7966,2.702,2.6071,2.5304,2.4922,2.4251,2.4161,2.4251,2.435,2.426,2.4251,2.4251,2.4152,2.4152,2.4161,2.3854,2.3456,2.3055,2.2846,2.2535,2.203,2.1404,2.0261,1.996,1.902,1.8394,1.7982,1.7364,1.7153,1.6836,1.6524,1.6099,1.5885,1.5785,1.5785,1.5684,1.547,1.5261,1.4934,1.5041,1.4826,1.3948,1.3181,1.2417,1.1764,1.0887,1.0233,1.0014,0.9137,0.8371,0.8383,0.7744,0.7444,0.7241,0.7309,0.7328,0.7323,0.7331,0.7317,0.7312,0.7172,0.7066,0.6845,0.663,0.6261,0.6157,0.5967,0.5315,0.4637,0.409,0.3306,0.2493,0.1552,0.0597,-0.0478,-0.0834,-0.107,-0.1313,-0.1786,-0.1775,-0.1892,-0.1896,-0.1892,-0.1881,-0.1889,-0.1912,-0.1922,-0.1925,-0.1934,-0.1946,-0.196,-0.1973,-0.1974,-0.1977,-0.1977,3.0254,3.0122,3.017,3.0821,3.168,3.1725,3.1613,3.1577,3.1371,3.1038,3.0668,3.0566,3.0476,3.0216,3.0125,2.9943,2.9749,2.9095,2.8527,2.7966,2.6924,2.5974,2.5401,2.4833,2.4449,2.4251,2.4161,2.4161,2.4161,2.4161,2.4161,2.4053,2.3845,2.3746,2.4053,2.3646,2.3147,2.2644,2.2544,2.1717,2.1097,2.0577,1.9443,1.8513,1.7779,1.7252,1.673,1.6518,1.6311,1.6205,1.6099,1.5885,1.5885,1.5684,1.5583,1.5589,1.5148,1.4277,1.3186,1.4056,1.3727,1.2965,1.2091,1.1433,1.0672,0.9688,0.894,0.885,0.8069,0.7513,0.7318,0.737,0.7309,0.735,0.7415,0.744,0.7429,0.7426,0.741,0.7284,0.7111,0.6922,0.6689,0.6446,0.6049,0.5815,0.5727,0.5044,0.4001,0.3087,0.2162,0.1446,0.0484,-0.0364,-0.1213,-0.1572,-0.1814,-0.1945,-0.1944,-0.193,-0.1924,-0.1928,-0.1919,-0.1901,-0.1916,-0.1943,-0.195,-0.1954,-0.1958,-0.1962,-0.1967,-0.1976,-0.1977,-0.1977,-0.21,3.0086,3.0086,3.0086,3.0278,3.0603,3.0627,3.0721,3.0906,3.1051,3.0859,3.0668,3.0578,3.0487,3.0125,2.9474,2.9187,2.9002,2.8132,2.7568,2.6638,2.5877,2.5314,2.4833,2.4449,2.4161,2.4161,2.4161,2.4161,2.4161,2.4161,2.4161,2.4053,2.312,2.3029,2.3029,2.2627,2.181,2.1404,2.0783,2.0055,1.9746,1.9124,1.8408,1.7477,1.6948,1.6311,1.5998,1.5885,1.5885,1.5885,1.5885,1.5885,1.5779,1.5577,1.5369,1.5047,1.4498,1.2965,1.1873,1.1873,1.1873,1.1223,1.0794,1.0139,0.9471,0.8367,0.797,0.7927,0.761,0.7304,0.7396,0.7423,0.7456,0.7456,0.7491,0.7497,0.7491,0.7494,0.7372,0.7251,0.7051,0.6485,0.6142,0.5477,0.4988,0.4388,0.4167,0.3574,0.2628,0.1571,0.0733,0.0245,-0.0491,-0.123,-0.1847,-0.1958,-0.1954,-0.196,-0.1965,-0.1962,-0.196,-0.1956,-0.1954,-0.194,-0.1957,-0.1974,-0.1969,-0.1967,-0.1971,-0.1976,-0.1977,-0.1977,-0.1977,-0.21,-0.2099,2.9532,2.9544,2.9544,2.9544,2.9605,2.9929,3.0121,3.0233,3.0543,3.0524,3.0267,3.0011,2.9829,2.9371,2.8713,2.8154,2.8049,2.7105,2.6532,2.5693,2.5304,2.4833,2.435,2.4161,2.4161,2.4161,2.4161,2.4161,2.4161,2.4161,2.3845,2.302,2.2089,2.1481,2.1387,2.0877,2.0562,2.0261,1.9746,1.9131,1.861,1.8094,1.7477,1.6948,1.6418,1.5885,1.5885,1.5885,1.5885,1.5885,1.5885,1.5885,1.5678,1.5244,1.4928,1.4277,1.2635,1.1214,1.0343,0.9574,0.9599,0.9446,0.8991,0.8775,0.846,0.7725,0.7556,0.7492,0.7396,0.7442,0.7505,0.7535,0.7581,0.7581,0.7614,0.7619,0.7517,0.7525,0.7285,0.7037,0.6077,0.5723,0.5009,0.4451,0.3753,0.315,0.2426,0.1818,0.1332,0.0489,-0.037,-0.0863,-0.111,-0.1605,-0.1976,-0.1973,-0.1972,-0.1976,-0.1977,-0.1976,-0.1975,-0.1968,-0.1973,-0.1977,-0.1976,-0.1976,-0.1977,-0.1977,-0.1977,-0.1977,-0.1977,-0.1977,-0.1977,-0.2099,-0.2222,2.8522,2.851,2.851,2.8558,2.8703,2.9544,2.9726,2.9421,2.995,2.9846,2.9438,2.8932,2.8642,2.8358,2.7516,2.7107,2.6853,2.6021,2.5684,2.5304,2.4726,2.435,2.4251,2.4161,2.4161,2.4161,2.4161,2.4161,2.4161,2.3746,2.302,2.1912,2.0727,1.999,1.9672,1.9286,1.9264,1.9049,1.8603,1.8087,1.7569,1.7364,1.6842,1.6318,1.5992,1.5885,1.5885,1.5885,1.5891,1.5891,1.5891,1.5785,1.5244,1.4153,1.3614,1.2417,1.0339,0.9578,0.8809,0.8036,0.7774,0.8066,0.8458,0.8127,0.7812,0.7522,0.7459,0.75,0.7524,0.7532,0.7557,0.7633,0.7706,0.7741,0.7788,0.7807,0.7702,0.7464,0.7096,0.6357,0.5009,0.4151,0.3291,0.2696,0.2445,0.1591,0.0857,0.0367,-0.0,-0.0,-0.0864,-0.1482,-0.1729,-0.1853,-0.1977,-0.1977,-0.1977,-0.1977,-0.1977,-0.1977,-0.1977,-0.1977,-0.1977,-0.1977,-0.1977,-0.1977,-0.1977,-0.1977,-0.1977,-0.1977,-0.21,-0.2099,-0.2222,-0.2345,-0.2467,2.851,2.851,2.851,2.851,2.8558,2.8835,2.8915,2.8892,2.9238,2.9003,2.8364,2.7964,2.7495,2.7167,2.6151,2.5774,2.5418,2.5024,2.4786,2.444,2.4421,2.4242,2.4161,2.4161,2.4161,2.4161,2.4161,2.4152,2.3945,2.3429,2.24,2.1293,1.9583,1.864,1.8,1.7543,1.7788,1.782,1.7463,1.7041,1.6624,1.6524,1.6205,1.5992,1.5885,1.5885,1.5885,1.5891,1.5785,1.569,1.5583,1.5363,1.3943,1.329,1.2635,1.0343,0.9247,0.8589,0.7817,0.7376,0.7214,0.7342,0.7873,0.7803,0.7478,0.7519,0.7578,0.7616,0.7646,0.7657,0.769,0.7755,0.7793,0.7818,0.785,0.7612,0.738,0.6641,0.6151,0.4798,0.3446,0.2831,0.1847,0.1354,0.0983,0.0123,-0.0617,-0.0987,-0.1234,-0.1111,-0.1234,-0.1853,-0.1977,-0.1977,-0.1977,-0.1977,-0.1977,-0.1977,-0.1977,-0.1977,-0.1977,-0.1977,-0.1977,-0.1977,-0.1977,-0.1977,-0.1977,-0.1977,-0.1977,-0.2099,-0.2222,-0.2221,-0.2344,-0.259,-0.2714,2.851,2.851,2.851,2.8351,2.8018,2.8018,2.779,2.7524,2.8003,2.7959,2.7403,2.6636,2.609,2.5665,2.4785,2.4231,2.4174,2.415,2.3966,2.3993,2.4088,2.4134,2.4161,2.4161,2.4161,2.4161,2.4152,2.4152,2.3529,2.2089,2.0861,1.9753,1.8307,1.7503,1.6919,1.6631,1.653,1.6568,1.6418,1.5992,1.5885,1.5885,1.5885,1.5885,1.5885,1.5891,1.5785,1.5785,1.5583,1.5154,1.5041,1.4272,1.296,1.2195,1.066,0.8696,0.8257,0.7817,0.7382,0.7326,0.729,0.7396,0.7519,0.7603,0.7649,0.769,0.7722,0.7752,0.7769,0.779,0.7834,0.7869,0.7869,0.7869,0.7625,0.7378,0.6519,0.5659,0.4429,0.2954,0.2093,0.1478,0.0739,0.0246,-0.037,-0.0863,-0.1358,-0.1482,-0.1729,-0.1729,-0.1606,-0.1977,-0.1977,-0.1977,-0.1977,-0.1977,-0.1977,-0.1977,-0.1977,-0.1977,-0.1977,-0.1977,-0.1977,-0.1977,-0.1977,-0.1977,-0.1977,-0.1976,-0.1976,-0.2222,-0.2345,-0.2591,-0.2714,-0.2961,-0.3208,2.851,2.851,2.8419,2.7926,2.7267,2.7103,2.6517,2.5622,2.648,2.6711,2.6172,2.5017,2.4431,2.4142,2.3439,2.3074,2.3241,2.3382,2.3657,2.3584,2.3996,2.4152,2.4161,2.4161,2.4161,2.4152,2.3845,2.3329,2.261,2.1167,1.9317,1.7989,1.7032,1.6398,1.6141,1.6107,1.6107,1.6123,1.6099,1.5885,1.5885,1.5885,1.5885,1.5885,1.5891,1.5791,1.5583,1.5369,1.5154,1.4606,1.3835,1.3068,1.1864,1.055,0.8689,0.7943,0.751,0.7418,0.734,0.729,0.741,0.7521,0.7638,0.772,0.7763,0.7793,0.7815,0.782,0.7828,0.7831,0.7861,0.7872,0.775,0.7378,0.6764,0.6027,0.5042,0.3815,0.2338,0.1232,0.0616,-0.0,-0.0493,-0.0987,-0.0863,-0.1605,-0.1853,-0.1977,-0.1977,-0.1977,-0.1977,-0.1977,-0.1977,-0.1977,-0.1977,-0.1977,-0.1977,-0.1977,-0.1977,-0.1977,-0.1977,-0.1977,-0.1977,-0.1977,-0.1977,-0.1977,-0.1977,-0.1976,-0.2099,-0.2344,-0.259,-0.2837,-0.3085,-0.3331,-0.3455,2.851,2.8431,2.7765,2.7348,2.7092,2.6412,2.5913,2.5411,2.4817,2.4666,2.4482,2.3831,2.3175,2.2906,2.2658,2.2474,2.2612,2.3048,2.3377,2.3657,2.3941,2.4044,2.4152,2.3954,2.4053,2.3845,2.3229,2.1887,2.0759,1.9317,1.8304,1.7609,1.6656,1.6162,1.5916,1.6012,1.6042,1.5903,1.5885,1.5885,1.5885,1.5885,1.5885,1.5891,1.5891,1.5577,1.525,1.4482,1.4046,1.3285,1.2195,1.1105,0.9904,0.8475,0.7706,0.7279,0.7236,0.7269,0.7326,0.7404,0.7521,0.7606,0.7701,0.7771,0.7826,0.7856,0.7872,0.7872,0.7872,0.7872,0.7872,0.775,0.7503,0.6764,0.578,0.4551,0.3323,0.197,0.037,-0.0247,-0.0864,-0.1234,-0.1729,-0.1853,-0.1729,-0.1853,-0.1977,-0.1977,-0.1977,-0.1977,-0.1977,-0.1977,-0.1977,-0.1977,-0.1977,-0.1977,-0.1977,-0.1977,-0.1977,-0.1977,-0.1977,-0.1977,-0.1977,-0.1977,-0.1977,-0.1977,-0.1977,-0.1976,-0.2099,-0.2467,-0.2837,-0.3085,-0.3331,-0.3579,-0.3703,2.851,2.8339,2.7592,2.667,2.583,2.5231,2.4723,2.4049,2.3377,2.3086,2.3191,2.2732,2.2298,2.2061,2.2061,2.208,2.2226,2.2914,2.3067,2.34,2.3752,2.3683,2.3746,2.3438,2.2702,2.2391,2.1473,2.0238,1.8909,1.829,1.7582,1.6974,1.6276,1.606,1.591,1.603,1.6054,1.5897,1.5891,1.5885,1.5885,1.5885,1.5885,1.5891,1.5464,1.5143,1.4266,1.3388,1.2625,1.176,1.0777,0.957,0.8585,0.7706,0.7299,0.7236,0.7298,0.7361,0.7432,0.7527,0.7627,0.7693,0.7766,0.7837,0.7847,0.7872,0.7872,0.7872,0.7872,0.7872,0.7875,0.7877,0.7013,0.6151,0.4303,0.2583,0.1478,0.0123,-0.074,-0.1234,-0.1605,-0.1606,-0.1977,-0.1977,-0.1853,-0.1853,-0.1977,-0.1977,-0.1977,-0.1977,-0.1977,-0.1977,-0.1977,-0.1977,-0.1977,-0.1977,-0.1977,-0.1977,-0.1977,-0.1977,-0.1977,-0.1977,-0.1977,-0.1977,-0.1977,-0.1977,-0.1977,-0.2099,-0.2346,-0.2714,-0.3083,-0.3331,-0.3579,-0.383,-0.3842,2.8431,2.8179,2.7255,2.5819,2.4221,2.3963,2.3367,2.252,2.2185,2.2097,2.2213,2.1928,2.1731,2.1731,2.1731,2.1731,2.2016,2.2731,2.2848,2.3121,2.3519,2.3349,2.2828,2.2316,2.1371,2.0546,1.9723,1.8797,1.7667,1.7252,1.6836,1.5992,1.5885,1.5885,1.5885,1.5891,1.5891,1.5891,1.5885,1.5779,1.5785,1.5785,1.5779,1.5351,1.4702,1.3835,1.2965,1.1978,1.1105,1.0229,0.9354,0.8475,0.7817,0.7271,0.7343,0.7285,0.7358,0.7437,0.7535,0.7652,0.7703,0.7755,0.7831,0.7867,0.7869,0.7872,0.7872,0.7872,0.7872,0.7875,0.788,0.7261,0.6399,0.4797,0.2583,0.0862,-0.0247,-0.1234,-0.1605,-0.1977,-0.1977,-0.1977,-0.1977,-0.1977,-0.1977,-0.1977,-0.1977,-0.1977,-0.1977,-0.1977,-0.1977,-0.1977,-0.1977,-0.1977,-0.1977,-0.1977,-0.1977,-0.1977,-0.1977,-0.1977,-0.1977,-0.1977,-0.1977,-0.1977,-0.1977,-0.21,-0.2223,-0.2221,-0.259,-0.296,-0.3208,-0.3455,-0.371,-0.3842,-0.3867,2.8099,2.7348,2.5663,2.4648,2.4049,2.3387,2.2784,2.2432,2.2185,2.2106,2.2008,2.182,2.1731,2.1731,2.1731,2.175,2.1788,2.2482,2.2793,2.3003,2.2795,2.2641,2.2005,2.0869,1.9834,1.9005,1.8185,1.7562,1.6829,1.6518,1.6205,1.5885,1.5885,1.5885,1.5885,1.5885,1.5779,1.5672,1.5452,1.5238,1.4809,1.4917,1.5137,1.4696,1.4035,1.3058,1.186,1.0437,0.979,0.9027,0.8257,0.7595,0.7376,0.7165,0.7233,0.7345,0.7418,0.7535,0.7646,0.7752,0.7799,0.7815,0.7869,0.7869,0.7872,0.7875,0.7875,0.7875,0.7875,0.7883,0.7638,0.6276,0.5167,0.2707,0.0493,-0.0493,-0.1482,-0.1729,-0.1853,-0.1977,-0.1977,-0.1977,-0.1977,-0.1977,-0.1977,-0.1977,-0.1977,-0.1977,-0.1977,-0.1977,-0.1977,-0.1977,-0.1977,-0.1977,-0.1977,-0.1977,-0.1977,-0.1977,-0.1977,-0.1977,-0.1977,-0.1977,-0.1977,-0.1977,-0.2099,-0.2099,-0.2221,-0.2467,-0.2838,-0.3208,-0.3331,-0.3581,-0.3838,-0.3993,-0.4033]},{"header":{"parameterUnit":"m.s-1","parameterCategory":1,"la1":31.0,"la2":29.5877,"lo1":-88.7671,"lo2":-86.6584,"dy":0.0162,"dx":0.0185,"nx":115,"ny":88,"refTime":"2024-05-12T06:00:00:Z","depth":0,"parameterNumber":3,"parameterNumberName":"V-component_of_WINDS"},"data":[0.0,0.0,0.0,0.0,0.0,0.0,0.0,0.0,0.0,0.0,0.0,0.0,0.0,0.0,0.0,0.0,0.0,0.0,0.0,0.0,0.0,0.0,0.0,0.0,0.0,0.0,0.0,0.0,0.0,0.0,0.0,0.0,0.0,0.0,0.0,0.0,0.0,0.0,0.0,0.0,0.0,0.0,0.0,0.0,0.0,0.0,0.0,0.0,0.0,0.0,0.0,0.0,0.0,0.0,0.0,0.0,0.0,0.0,0.0,0.0,0.0,0.0,0.0,0.0,0.0,0.0,0.0,0.0,0.0,0.0,0.0,0.0,0.0,0.0,0.0,0.0,0.0,0.0,0.0,0.0,0.0,0.0,0.0,0.0,0.0,0.0,0.0,0.0,0.0,0.0,0.0,0.0,0.0,0.0,0.0,0.0,0.0,0.0,0.0,0.0,0.0,0.0,0.0,0.0,0.0,0.0,0.0,0.0,0.0,0.0,0.0,0.0,0.0,0.0,0.0,0.0,0.0,0.0,0.0,0.0,0.0,0.0,0.0,0.0,0.0,0.0,0.0,0.0,0.0,0.0,0.0,0.0,0.0,0.0,0.0,0.0,0.0,0.0,0.0,0.0,0.0,0.0,0.0,0.0,0.0,0.0,0.0,0.0,0.0,0.0,0.0,0.0,0.0,0.0,0.0,0.0,0.0,0.0,0.0,0.0,0.0,0.0,0.0,0.0,0.0,0.0,0.0,0.0,0.0,0.0,0.0,0.0,0.0,0.0,0.0,0.0,0.0,0.0,0.0,0.0,0.0,0.0,0.0,0.0,0.0,0.0,0.0,0.0,0.0,0.0,0.0,0.0,0.0,0.0,0.0,0.0,0.0,0.0,0.0,0.0,0.0,0.0,0.0,0.0,0.0,0.0,0.0,0.0,0.0,0.0,0.0,0.0,0.0,0.0,0.0,0.0,0.0,0.0,0.0,0.0,0.0,0.0,0.0,0.0,0.0,0.0,0.0,0.0,0.0,0.0,0.0,0.0,0.0,0.0,0.0,0.0,0.0,0.0,0.0,0.0,0.0,0.0,0.0,0.0,0.0,0.0,0.0,0.0,0.0,0.0,0.0,0.0,0.0,0.0,0.0,0.0,0.0,0.0,0.0,0.0,0.0,0.0,0.0,0.0,0.0,0.0,0.0,0.0,0.0,0.0,0.0,0.0,0.0,0.0,0.0,0.0,0.0,0.0,0.0,0.0,0.0,0.0,0.0,0.0,0.0,0.0,0.0,0.0,0.0,0.0,0.0,0.0,0.0,0.0,0.0,0.0,0.0,0.0,0.0,0.0,0.0,0.0,0.0,0.0,0.0,0.0,0.0,0.0,0.0,0.0,0.0,0.0,0.0,0.0,0.0,0.0,0.0,0.0,0.0,0.0,0.0,0.0,0.0,0.0,0.0,0.0,0.0,0.0,0.0,0.0,0.0,0.0,0.0,0.0,0.0,0.0,0.0,0.0,0.0,0.0,0.0,0.0,0.0,0.0,0.0,0.0,0.0,0.0,0.0,0.0,0.0,0.0,0.0,0.0,0.0,0.0,0.0,0.0,0.0,0.0,0.0,0.0,0.0,0.0,0.0,0.0,0.0,0.0,0.0,0.0,0.0,0.0,0.0,0.0,0.0,0.0,0.0,0.0,0.0,0.0,0.0,0.0,0.0,0.0,0.0,0.0,0.0,0.0,0.0,0.0,0.0,0.0,0.0,0.0,0.0,0.0,0.0,0.0,0.0,0.0,0.0,0.0,0.0,0.0,0.0,0.0,0.0,0.0,0.0,0.0,0.0,0.0,0.0,0.0,0.0,0.0,0.0,0.0,0.0,0.0,0.0,0.0,0.0,0.0,0.0,0.0,0.0,0.0,0.0,0.0,0.0,0.0,0.0,0.0,0.0,0.0,0.0,0.0,0.0,0.0,0.0,0.0,0.0,0.0,0.0,0.0,0.0,0.0,0.0,0.0,0.0,0.0,0.0,0.0,0.0,0.0,0.0,0.0,0.0,0.0,0.0,0.0,0.0,0.0,0.0,0.0,0.0,0.0,0.0,0.0,0.0,0.0,0.0,0.0,0.0,0.0,0.0,0.0,0.0,0.0,0.0,0.0,0.0,0.0,0.0,0.0,0.0,0.0,0.0,0.0,0.0,0.0,0.0,0.0,0.0,0.0,0.0,0.0,0.0,0.0,0.0,0.0,0.0,0.0,0.0,0.0,0.0,0.0,0.0,0.0,0.0,0.0,0.0,0.0,0.0,0.0,0.0,0.0,0.0,0.0,0.0,0.0,0.0,0.0,0.0,0.0,0.0,0.0,0.0,0.0,0.0,0.0,0.0,0.0,0.0,0.0,0.0,0.0,0.0,0.0,0.0,0.0,0.0,0.0,0.0,0.0,0.0,0.0,0.0,0.0,0.0,0.0,0.0,0.0,0.0,0.0,0.0,0.0,0.0,0.0,0.0,0.0,0.0,0.0,0.0,0.0,0.0,0.0,0.0,0.0,0.0,0.0,0.0,0.0,0.0,0.0,0.0,0.0,0.0,0.0,0.0,0.0,0.0,0.0,0.0,0.0,0.0,0.0,0.0,0.0,0.0,0.0,0.0,0.0,0.0,0.0,0.0,0.0,0.0,0.0,0.0,0.0,0.0,0.0,0.0,0.0,0.0,0.0,0.0,0.0,0.0,0.0,0.0,0.0,0.0,0.0,0.0,0.0,0.0,0.0,0.0,0.0,0.0,0.0,0.0,0.0,0.0,0.0,0.0,0.0,0.0,0.0,0.0,0.0,0.0,0.0,0.0,0.0,0.0,0.0,0.0,0.0,0.0,0.0,0.0,0.0,0.0,0.0,0.0,0.0,0.0,0.0,0.0,0.0,0.0,0.0,0.0,0.0,0.0,0.0,0.0,0.0,0.0,0.0,0.0,0.0,0.0,0.0,0.0,0.0,0.0,0.0,0.0,0.0,0.0,0.0,0.0,0.0,0.0,0.0,0.0,0.0,0.0,0.0,0.0,0.0,0.0,0.0,0.0,0.0,0.0,0.0,0.0,0.0,0.0,0.0,0.0,0.0,0.0,0.0,0.0,0.0,0.0,0.0,0.0,0.0,0.0,0.0,0.0,0.0,0.0,0.0,0.0,0.0,0.0,0.0,0.0,0.0,0.0,0.0,0.0,0.0,0.0,0.0,0.0,0.0,0.0,0.0,0.0,0.0,0.0,0.0,0.0,0.0,0.0,0.0,0.0,0.0,0.0,0.0,0.0,0.0,0.0,0.0,0.0,0.0,0.0,0.0,0.0,0.0,0.0,0.0,0.0,0.0,0.0,0.0,0.0,0.0,0.0,0.0,0.0,0.0,0.0,0.0,0.0,0.0,0.0,0.0,0.0,0.0,0.0,0.0,0.0,0.0,0.0,0.0,0.0,0.0,0.0,0.0,0.0,0.0,0.0,0.0,0.0,0.0,0.0,0.0,0.0,0.0,0.0,0.0,0.0,0.0,0.0,0.0,0.0,0.0,0.0,0.0,0.0,0.0,0.0,0.0,0.0,0.0,0.0,0.0,0.0,0.0,0.0,0.0,0.0,0.0,0.0,0.0,0.0,0.0,0.0,0.0,0.0,0.0,0.0,0.0,0.0,0.0,0.0,0.0,0.0,0.0,0.0,0.0,0.0,0.0,0.0,0.0,0.0,0.0,0.0,0.0,0.0,0.0,0.0,0.0,0.0,0.0,0.0,0.0,0.0,0.0,0.0,0.0,0.0,0.0,0.0,0.0,0.0,0.0,0.0,0.0,0.0,0.0,0.0,0.0,0.0,0.0,0.0,0.0,0.0,0.0,0.0,0.0,0.0,0.0,0.0,0.0,0.0,0.0,0.0,0.0,0.0,0.0,0.0,0.0,0.0,0.0,0.0,0.0,0.0,0.0,0.0,0.0,0.0,0.0,0.0,0.0,0.0,0.0,0.0,0.0,0.0,0.0,0.0,0.0,0.0,0.0,0.0,0.0,0.0,0.0,0.0,0.0,0.0,0.0,0.0,0.0,0.0,0.0,0.0,0.0,0.0,0.0,0.0,0.0,0.0,0.0,0.0,0.0,0.0,0.0,0.0,0.0,0.0,0.0,0.0,0.0,0.0,0.0,0.0,0.0,0.0,0.0,0.0,0.0,0.0,0.0,0.0,0.0,0.0,0.0,0.0,0.0,0.0,0.0,0.0,0.0,0.0,0.0,0.0,0.0,0.0,0.0,0.0,0.0,0.0,0.0,-3.0244,0.0,0.0,0.0,0.0,0.0,0.0,0.0,0.0,0.0,0.0,0.0,0.0,0.0,0.0,0.0,0.0,0.0,0.0,0.0,0.0,0.0,0.0,0.0,0.0,0.0,0.0,0.0,0.0,0.0,0.0,0.0,0.0,0.0,0.0,0.0,0.0,0.0,0.0,0.0,0.0,0.0,0.0,0.0,0.0,0.0,0.0,0.0,0.0,0.0,0.0,0.0,0.0,0.0,0.0,0.0,0.0,0.0,0.0,0.0,0.0,0.0,0.0,0.0,0.0,0.0,0.0,0.0,0.0,0.0,0.0,0.0,0.0,0.0,0.0,0.0,0.0,0.0,0.0,0.0,0.0,0.0,0.0,0.0,0.0,0.0,0.0,0.0,0.0,0.0,0.0,0.0,0.0,0.0,0.0,0.0,0.0,0.0,0.0,0.0,0.0,0.0,0.0,0.0,0.0,0.0,0.0,0.0,0.0,0.0,0.0,-2.8442,-2.8874,-2.9394,-2.9761,-2.9933,0.0,0.0,0.0,0.0,0.0,0.0,0.0,0.0,0.0,0.0,0.0,0.0,0.0,0.0,0.0,0.0,0.0,0.0,0.0,0.0,0.0,0.0,0.0,0.0,0.0,0.0,0.0,0.0,0.0,0.0,0.0,0.0,0.0,0.0,0.0,0.0,0.0,0.0,0.0,0.0,0.0,0.0,0.0,0.0,0.0,0.0,0.0,0.0,0.0,0.0,0.0,0.0,0.0,0.0,0.0,0.0,0.0,0.0,0.0,0.0,0.0,0.0,0.0,0.0,0.0,0.0,0.0,0.0,0.0,0.0,0.0,0.0,0.0,0.0,0.0,0.0,0.0,0.0,0.0,0.0,0.0,0.0,0.0,0.0,0.0,0.0,0.0,0.0,0.0,0.0,0.0,0.0,0.0,0.0,0.0,0.0,0.0,0.0,0.0,0.0,0.0,0.0,0.0,0.0,0.0,0.0,0.0,0.0,0.0,0.0,0.0,0.0,-2.94,-3.0116,-3.0288,0.0,0.0,0.0,0.0,0.0,0.0,0.0,0.0,0.0,0.0,0.0,0.0,0.0,0.0,0.0,0.0,0.0,0.0,0.0,0.0,0.0,0.0,0.0,0.0,0.0,0.0,0.0,0.0,0.0,0.0,0.0,0.0,0.0,0.0,0.0,0.0,0.0,0.0,0.0,0.0,0.0,0.0,0.0,0.0,0.0,0.0,0.0,0.0,0.0,0.0,0.0,0.0,0.0,0.0,0.0,0.0,0.0,0.0,0.0,0.0,0.0,0.0,0.0,0.0,0.0,0.0,0.0,0.0,0.0,0.0,0.0,0.0,0.0,0.0,0.0,0.0,0.0,0.0,0.0,0.0,0.0,0.0,0.0,0.0,0.0,0.0,0.0,0.0,0.0,0.0,0.0,0.0,0.0,0.0,0.0,0.0,0.0,0.0,0.0,0.0,0.0,0.0,0.0,0.0,0.0,0.0,0.0,0.0,0.0,0.0,-2.9488,-2.8855,-3.0258,0.0,-3.1934,0.0,0.0,0.0,0.0,0.0,0.0,0.0,0.0,0.0,0.0,0.0,0.0,0.0,0.0,0.0,0.0,0.0,0.0,0.0,0.0,0.0,0.0,0.0,0.0,0.0,0.0,0.0,0.0,0.0,0.0,0.0,0.0,0.0,0.0,0.0,0.0,0.0,0.0,0.0,0.0,0.0,0.0,0.0,0.0,0.0,0.0,0.0,0.0,0.0,0.0,0.0,0.0,0.0,0.0,0.0,0.0,0.0,0.0,0.0,0.0,0.0,0.0,0.0,0.0,0.0,0.0,0.0,0.0,0.0,0.0,0.0,0.0,0.0,0.0,0.0,0.0,0.0,0.0,0.0,0.0,0.0,0.0,0.0,0.0,0.0,0.0,0.0,0.0,0.0,0.0,0.0,0.0,0.0,0.0,0.0,0.0,0.0,0.0,0.0,0.0,0.0,0.0,0.0,0.0,0.0,0.0,0.0,0.0,0.0,0.0,-2.9246,-2.8912,-2.9966,-3.1097,0.0,0.0,0.0,0.0,0.0,0.0,0.0,0.0,0.0,0.0,0.0,0.0,0.0,0.0,0.0,0.0,0.0,0.0,0.0,0.0,0.0,0.0,0.0,0.0,0.0,0.0,0.0,0.0,0.0,0.0,0.0,0.0,0.0,0.0,0.0,0.0,0.0,0.0,0.0,0.0,0.0,0.0,0.0,0.0,0.0,0.0,0.0,0.0,0.0,0.0,0.0,0.0,0.0,0.0,0.0,0.0,0.0,0.0,0.0,0.0,0.0,0.0,0.0,0.0,0.0,0.0,0.0,0.0,0.0,0.0,0.0,0.0,0.0,0.0,0.0,0.0,0.0,0.0,0.0,0.0,0.0,0.0,0.0,0.0,0.0,0.0,0.0,0.0,0.0,0.0,0.0,0.0,0.0,0.0,0.0,0.0,0.0,0.0,0.0,0.0,0.0,0.0,0.0,0.0,0.0,0.0,0.0,0.0,0.0,0.0,-2.8895,-2.9,-2.9246,-2.9808,-3.0753,-3.2155,0.0,0.0,0.0,0.0,0.0,0.0,0.0,0.0,0.0,0.0,0.0,0.0,0.0,0.0,0.0,0.0,0.0,0.0,0.0,0.0,0.0,0.0,0.0,0.0,0.0,0.0,0.0,0.0,0.0,0.0,0.0,0.0,0.0,0.0,0.0,0.0,0.0,0.0,0.0,0.0,0.0,0.0,0.0,0.0,0.0,0.0,0.0,0.0,0.0,0.0,0.0,0.0,0.0,0.0,0.0,0.0,0.0,0.0,0.0,0.0,0.0,0.0,0.0,0.0,0.0,0.0,0.0,0.0,0.0,0.0,0.0,0.0,0.0,0.0,0.0,0.0,0.0,0.0,0.0,0.0,0.0,0.0,0.0,0.0,0.0,0.0,0.0,0.0,0.0,0.0,0.0,0.0,0.0,0.0,0.0,0.0,0.0,0.0,0.0,0.0,0.0,0.0,0.0,0.0,0.0,0.0,0.0,0.0,-2.886,-2.8895,-2.9281,-3.0018,-3.0088,-3.0617,0.0,0.0,0.0,0.0,0.0,0.0,0.0,0.0,0.0,0.0,0.0,0.0,0.0,0.0,0.0,0.0,0.0,0.0,0.0,0.0,0.0,0.0,0.0,0.0,0.0,0.0,0.0,0.0,0.0,0.0,0.0,0.0,0.0,0.0,0.0,0.0,0.0,0.0,0.0,0.0,0.0,0.0,0.0,0.0,0.0,0.0,0.0,0.0,0.0,0.0,0.0,0.0,0.0,0.0,0.0,0.0,0.0,0.0,0.0,0.0,0.0,0.0,0.0,0.0,0.0,0.0,0.0,0.0,0.0,0.0,0.0,0.0,0.0,0.0,0.0,0.0,0.0,0.0,0.0,0.0,0.0,0.0,0.0,0.0,0.0,0.0,0.0,0.0,0.0,0.0,0.0,0.0,0.0,0.0,0.0,0.0,0.0,0.0,0.0,0.0,0.0,0.0,0.0,0.0,0.0,0.0,0.0,0.0,0.0,-2.814,-2.8631,-2.9509,-3.0703,-2.986,-2.9976,0.0,0.0,0.0,0.0,0.0,0.0,0.0,0.0,0.0,0.0,0.0,0.0,0.0,0.0,0.0,0.0,0.0,0.0,0.0,0.0,0.0,0.0,0.0,0.0,0.0,0.0,0.0,0.0,0.0,0.0,0.0,0.0,0.0,0.0,0.0,0.0,0.0,0.0,0.0,0.0,0.0,0.0,0.0,0.0,0.0,0.0,0.0,0.0,0.0,0.0,0.0,0.0,0.0,0.0,0.0,0.0,0.0,0.0,0.0,0.0,0.0,0.0,0.0,0.0,0.0,0.0,0.0,0.0,0.0,0.0,0.0,0.0,0.0,0.0,0.0,0.0,0.0,0.0,0.0,0.0,0.0,0.0,0.0,0.0,0.0,0.0,0.0,0.0,0.0,0.0,0.0,0.0,0.0,0.0,0.0,0.0,0.0,0.0,0.0,0.0,0.0,0.0,0.0,0.0,0.0,0.0,0.0,0.0,0.0,-2.8087,0.0,-2.9404,-3.0369,-2.9702,-2.9667,0.0,0.0,0.0,0.0,0.0,0.0,0.0,0.0,0.0,0.0,0.0,0.0,0.0,0.0,0.0,0.0,0.0,0.0,0.0,0.0,0.0,0.0,0.0,0.0,0.0,0.0,0.0,0.0,0.0,0.0,0.0,0.0,0.0,0.0,0.0,0.0,0.0,0.0,0.0,0.0,0.0,0.0,0.0,0.0,0.0,0.0,0.0,0.0,0.0,0.0,0.0,0.0,0.0,0.0,0.0,0.0,0.0,0.0,0.0,0.0,0.0,0.0,0.0,0.0,0.0,0.0,0.0,0.0,0.0,0.0,0.0,0.0,0.0,0.0,0.0,0.0,0.0,0.0,0.0,0.0,0.0,0.0,0.0,0.0,0.0,0.0,0.0,0.0,0.0,0.0,0.0,0.0,0.0,0.0,0.0,0.0,0.0,0.0,0.0,0.0,0.0,0.0,0.0,0.0,0.0,0.0,0.0,0.0,-2.8087,-2.886,-2.8895,-2.8983,-2.9,-2.9685,-2.972,0.0,0.0,0.0,0.0,0.0,0.0,0.0,0.0,0.0,0.0,0.0,0.0,0.0,0.0,0.0,0.0,0.0,0.0,0.0,0.0,0.0,0.0,0.0,0.0,0.0,0.0,0.0,0.0,0.0,0.0,0.0,0.0,0.0,0.0,0.0,0.0,0.0,0.0,0.0,0.0,0.0,0.0,0.0,0.0,0.0,0.0,0.0,0.0,0.0,0.0,0.0,0.0,0.0,0.0,0.0,0.0,0.0,0.0,0.0,0.0,0.0,0.0,0.0,0.0,0.0,0.0,0.0,0.0,0.0,0.0,0.0,0.0,0.0,0.0,0.0,0.0,0.0,0.0,0.0,0.0,0.0,0.0,0.0,0.0,0.0,0.0,0.0,0.0,0.0,0.0,0.0,0.0,0.0,0.0,0.0,0.0,0.0,0.0,0.0,0.0,0.0,0.0,0.0,0.0,0.0,0.0,0.0,0.0,0.0,-2.856,-2.8784,-2.9554,-3.0872,-2.9869,-2.9913,0.0,0.0,0.0,0.0,0.0,0.0,0.0,0.0,0.0,0.0,0.0,0.0,0.0,0.0,0.0,0.0,0.0,0.0,0.0,0.0,0.0,0.0,0.0,0.0,0.0,0.0,0.0,0.0,0.0,0.0,0.0,0.0,0.0,0.0,0.0,0.0,0.0,0.0,0.0,0.0,0.0,0.0,0.0,0.0,0.0,0.0,0.0,0.0,0.0,0.0,0.0,0.0,0.0,0.0,0.0,0.0,0.0,0.0,0.0,0.0,0.0,0.0,0.0,0.0,0.0,0.0,0.0,0.0,0.0,0.0,0.0,0.0,0.0,0.0,0.0,0.0,0.0,0.0,0.0,0.0,0.0,0.0,0.0,0.0,0.0,0.0,0.0,0.0,0.0,0.0,0.0,0.0,0.0,0.0,0.0,0.0,0.0,0.0,0.0,0.0,0.0,0.0,0.0,0.0,0.0,0.0,0.0,0.0,0.0,-2.9885,-2.9824,-3.0291,-3.1497,-3.0279,-3.0136,-3.1236,0.0,0.0,0.0,0.0,0.0,0.0,0.0,0.0,0.0,0.0,0.0,0.0,0.0,0.0,0.0,0.0,0.0,0.0,0.0,0.0,0.0,0.0,0.0,0.0,0.0,0.0,0.0,0.0,0.0,0.0,0.0,0.0,0.0,0.0,0.0,0.0,0.0,0.0,0.0,0.0,0.0,0.0,0.0,0.0,0.0,0.0,0.0,0.0,0.0,0.0,0.0,0.0,0.0,0.0,0.0,0.0,0.0,0.0,0.0,0.0,0.0,0.0,0.0,0.0,0.0,0.0,0.0,0.0,0.0,0.0,0.0,0.0,0.0,0.0,0.0,0.0,0.0,0.0,0.0,0.0,0.0,0.0,0.0,0.0,0.0,0.0,0.0,0.0,0.0,0.0,0.0,0.0,0.0,0.0,0.0,0.0,0.0,0.0,0.0,0.0,0.0,0.0,0.0,0.0,0.0,0.0,0.0,0.0,-3.2412,-3.1723,-3.1254,-3.1097,-3.0924,-3.0543,0.0,0.0,0.0,0.0,0.0,0.0,0.0,0.0,0.0,0.0,0.0,0.0,0.0,0.0,0.0,0.0,0.0,0.0,0.0,0.0,0.0,0.0,0.0,0.0,0.0,0.0,0.0,0.0,0.0,0.0,0.0,0.0,0.0,0.0,0.0,0.0,0.0,0.0,0.0,0.0,0.0,0.0,0.0,0.0,0.0,0.0,0.0,0.0,0.0,0.0,0.0,0.0,0.0,0.0,0.0,0.0,0.0,0.0,0.0,0.0,0.0,0.0,0.0,0.0,0.0,0.0,0.0,0.0,0.0,0.0,0.0,0.0,0.0,0.0,0.0,0.0,0.0,0.0,0.0,0.0,0.0,0.0,0.0,0.0,0.0,0.0,0.0,0.0,0.0,0.0,0.0,0.0,0.0,0.0,0.0,0.0,0.0,0.0,0.0,0.0,0.0,0.0,0.0,0.0,0.0,0.0,0.0,0.0,0.0,-3.1662,-3.25,-3.323,-3.3682,-3.2334,-3.1827,0.0,0.0,0.0,0.0,0.0,0.0,0.0,0.0,0.0,0.0,0.0,0.0,0.0,0.0,0.0,0.0,0.0,0.0,0.0,0.0,0.0,0.0,0.0,0.0,0.0,0.0,0.0,0.0,0.0,0.0,0.0,0.0,0.0,0.0,0.0,0.0,0.0,0.0,0.0,0.0,0.0,0.0,0.0,0.0,0.0,0.0,0.0,0.0,0.0,0.0,0.0,0.0,0.0,0.0,0.0,0.0,0.0,0.0,0.0,0.0,0.0,0.0,0.0,0.0,0.0,0.0,0.0,0.0,0.0,0.0,0.0,0.0,0.0,0.0,0.0,0.0,0.0,0.0,0.0,0.0,0.0,0.0,0.0,0.0,0.0,0.0,0.0,0.0,0.0,0.0,0.0,0.0,0.0,0.0,0.0,0.0,0.0,0.0,0.0,0.0,0.0,0.0,0.0,0.0,0.0,0.0,0.0,0.0,-3.1445,-3.273,-3.3515,-3.4244,-3.505,-3.3802,-3.2942,0.0,0.0,0.0,0.0,0.0,0.0,0.0,0.0,0.0,0.0,0.0,0.0,0.0,0.0,0.0,0.0,0.0,0.0,0.0,0.0,0.0,0.0,0.0,0.0,0.0,0.0,0.0,0.0,0.0,0.0,0.0,0.0,0.0,0.0,0.0,0.0,0.0,0.0,0.0,0.0,0.0,0.0,0.0,0.0,0.0,0.0,0.0,0.0,0.0,0.0,0.0,0.0,0.0,0.0,0.0,0.0,0.0,0.0,0.0,0.0,0.0,0.0,0.0,0.0,0.0,0.0,0.0,0.0,0.0,0.0,0.0,0.0,0.0,0.0,0.0,0.0,0.0,0.0,0.0,0.0,0.0,0.0,0.0,0.0,0.0,0.0,0.0,0.0,0.0,0.0,0.0,0.0,0.0,0.0,0.0,0.0,0.0,0.0,0.0,0.0,0.0,0.0,0.0,0.0,0.0,0.0,0.0,0.0,-3.2514,-3.4415,-3.4408,-3.4662,-3.5199,-3.4975,-3.3823,0.0,0.0,0.0,0.0,0.0,0.0,0.0,0.0,0.0,0.0,0.0,0.0,0.0,0.0,0.0,0.0,0.0,0.0,0.0,0.0,0.0,0.0,0.0,0.0,0.0,0.0,0.0,0.0,0.0,0.0,0.0,0.0,0.0,0.0,0.0,0.0,0.0,0.0,0.0,0.0,0.0,0.0,0.0,0.0,0.0,0.0,0.0,0.0,0.0,0.0,0.0,0.0,0.0,0.0,0.0,0.0,0.0,0.0,0.0,0.0,0.0,0.0,0.0,0.0,0.0,0.0,0.0,0.0,0.0,0.0,0.0,0.0,0.0,0.0,0.0,0.0,0.0,0.0,0.0,0.0,0.0,0.0,0.0,0.0,0.0,0.0,0.0,0.0,0.0,0.0,0.0,0.0,0.0,0.0,0.0,0.0,0.0,0.0,0.0,0.0,0.0,0.0,0.0,0.0,0.0,0.0,0.0,0.0,-3.2362,-3.3117,-3.4193,-3.4562,-3.413,-3.4326,-3.3753,0.0,0.0,0.0,0.0,0.0,0.0,0.0,0.0,0.0,0.0,0.0,0.0,0.0,0.0,0.0,0.0,0.0,0.0,0.0,0.0,0.0,0.0,0.0,0.0,0.0,0.0,0.0,0.0,0.0,0.0,0.0,0.0,0.0,0.0,0.0,0.0,0.0,0.0,0.0,0.0,0.0,0.0,0.0,0.0,0.0,0.0,0.0,0.0,-3.962,0.0,0.0,0.0,0.0,0.0,0.0,0.0,0.0,0.0,0.0,0.0,0.0,0.0,0.0,0.0,0.0,0.0,0.0,0.0,0.0,0.0,0.0,0.0,0.0,0.0,0.0,0.0,0.0,0.0,0.0,0.0,0.0,0.0,0.0,0.0,0.0,0.0,0.0,0.0,0.0,0.0,0.0,0.0,0.0,0.0,0.0,0.0,0.0,0.0,0.0,0.0,0.0,0.0,0.0,0.0,0.0,0.0,0.0,0.0,-3.2043,-3.2944,-3.3881,-3.4352,-3.4303,-3.4155,-3.3493,0.0,0.0,0.0,0.0,0.0,0.0,0.0,0.0,0.0,0.0,0.0,0.0,0.0,0.0,0.0,0.0,0.0,0.0,0.0,0.0,0.0,0.0,0.0,0.0,0.0,0.0,0.0,0.0,0.0,0.0,0.0,0.0,0.0,0.0,0.0,0.0,0.0,0.0,0.0,0.0,0.0,0.0,0.0,0.0,0.0,0.0,0.0,0.0,0.0,0.0,0.0,0.0,0.0,0.0,0.0,0.0,0.0,0.0,0.0,0.0,0.0,0.0,0.0,0.0,0.0,0.0,0.0,0.0,0.0,0.0,0.0,0.0,0.0,0.0,0.0,0.0,0.0,0.0,0.0,0.0,0.0,0.0,0.0,0.0,0.0,0.0,0.0,0.0,0.0,0.0,0.0,0.0,0.0,0.0,0.0,0.0,0.0,0.0,0.0,0.0,0.0,0.0,0.0,0.0,0.0,0.0,0.0,-3.1039,-3.1875,-3.31,-3.3661,-3.4203,-3.4684,-3.4005,-3.3129,-3.2077,0.0,0.0,0.0,0.0,0.0,0.0,0.0,0.0,0.0,0.0,0.0,0.0,0.0,0.0,0.0,0.0,0.0,0.0,0.0,0.0,0.0,0.0,0.0,0.0,0.0,0.0,0.0,0.0,0.0,0.0,0.0,0.0,0.0,0.0,0.0,0.0,0.0,0.0,-3.6826,-3.8242,0.0,0.0,0.0,0.0,0.0,0.0,0.0,0.0,-3.9483,0.0,0.0,0.0,0.0,0.0,0.0,0.0,0.0,0.0,0.0,0.0,0.0,0.0,0.0,0.0,0.0,0.0,0.0,0.0,0.0,0.0,0.0,0.0,0.0,0.0,0.0,0.0,0.0,0.0,0.0,0.0,0.0,0.0,0.0,0.0,0.0,0.0,0.0,0.0,0.0,0.0,0.0,0.0,0.0,0.0,0.0,0.0,0.0,0.0,0.0,0.0,0.0,0.0,0.0,0.0,0.0,-3.0601,-3.1867,-3.259,-3.2802,-3.4068,-3.4485,-3.3972,-3.3259,-3.2508,-3.1739,0.0,0.0,0.0,0.0,0.0,0.0,0.0,0.0,0.0,0.0,0.0,0.0,0.0,0.0,0.0,0.0,0.0,0.0,0.0,0.0,0.0,0.0,0.0,0.0,0.0,0.0,0.0,0.0,0.0,0.0,0.0,0.0,0.0,0.0,0.0,0.0,0.0,0.0,0.0,-3.8789,-3.9458,0.0,0.0,0.0,0.0,0.0,0.0,0.0,0.0,-3.9848,0.0,0.0,0.0,0.0,0.0,0.0,0.0,0.0,0.0,0.0,0.0,0.0,0.0,0.0,0.0,0.0,0.0,0.0,0.0,0.0,0.0,0.0,0.0,0.0,0.0,0.0,0.0,0.0,0.0,0.0,0.0,0.0,0.0,0.0,0.0,0.0,0.0,0.0,0.0,0.0,0.0,0.0,0.0,0.0,0.0,0.0,0.0,0.0,0.0,0.0,0.0,0.0,0.0,0.0,0.0,-3.0443,-3.1341,-3.195,-3.215,-3.3193,-3.3574,-3.3243,-3.2862,-3.2348,0.0,0.0,0.0,0.0,0.0,0.0,0.0,0.0,0.0,0.0,0.0,0.0,0.0,0.0,0.0,0.0,0.0,0.0,0.0,0.0,0.0,0.0,0.0,0.0,0.0,0.0,0.0,0.0,0.0,0.0,0.0,0.0,0.0,0.0,0.0,0.0,0.0,0.0,0.0,0.0,-3.8707,-3.9229,-3.9229,0.0,0.0,0.0,0.0,0.0,0.0,-3.9338,-3.9464,0.0,0.0,0.0,0.0,0.0,0.0,0.0,0.0,0.0,0.0,0.0,0.0,0.0,0.0,0.0,0.0,0.0,0.0,0.0,0.0,0.0,0.0,0.0,0.0,0.0,0.0,0.0,0.0,0.0,0.0,0.0,0.0,0.0,0.0,0.0,0.0,0.0,0.0,0.0,0.0,0.0,0.0,0.0,0.0,0.0,0.0,0.0,0.0,0.0,0.0,0.0,0.0,0.0,0.0,0.0,-3.0146,-3.0742,-3.125,-3.162,-3.2332,-3.2613,-3.2481,-3.2464,-3.2133,0.0,0.0,0.0,0.0,0.0,0.0,0.0,0.0,0.0,0.0,0.0,0.0,0.0,0.0,0.0,0.0,0.0,0.0,0.0,0.0,0.0,0.0,0.0,0.0,0.0,0.0,0.0,0.0,0.0,0.0,0.0,0.0,0.0,0.0,0.0,0.0,0.0,0.0,0.0,0.0,0.0,-3.8989,-3.9156,-3.9017,0.0,0.0,0.0,0.0,-3.9189,-3.9248,0.0,0.0,0.0,0.0,0.0,0.0,0.0,0.0,0.0,0.0,0.0,0.0,0.0,0.0,0.0,0.0,0.0,0.0,0.0,0.0,0.0,0.0,0.0,0.0,0.0,0.0,0.0,0.0,0.0,0.0,0.0,0.0,0.0,0.0,0.0,0.0,0.0,0.0,0.0,0.0,0.0,0.0,0.0,0.0,0.0,0.0,0.0,0.0,0.0,0.0,0.0,0.0,0.0,0.0,0.0,0.0,-2.987,-3.0768,-3.1364,-3.1609,-3.2332,-3.2381,-3.1752,-3.1752,-3.1404,0.0,0.0,0.0,0.0,0.0,0.0,0.0,0.0,0.0,0.0,0.0,0.0,0.0,0.0,0.0,0.0,0.0,0.0,0.0,0.0,0.0,0.0,0.0,0.0,0.0,0.0,0.0,0.0,0.0,0.0,0.0,0.0,0.0,0.0,0.0,0.0,0.0,0.0,0.0,0.0,0.0,-3.9137,-3.9008,-3.8942,-3.9064,0.0,0.0,-3.9197,-3.987,-4.0564,0.0,0.0,0.0,0.0,0.0,0.0,0.0,0.0,0.0,0.0,0.0,0.0,0.0,0.0,0.0,0.0,0.0,0.0,0.0,0.0,0.0,0.0,0.0,0.0,0.0,0.0,0.0,0.0,0.0,0.0,0.0,0.0,0.0,0.0,0.0,0.0,0.0,0.0,0.0,0.0,0.0,0.0,0.0,0.0,0.0,0.0,0.0,0.0,0.0,0.0,0.0,0.0,0.0,0.0,0.0,-2.9766,-3.0044,-3.0586,-3.0879,-3.0997,-3.21,-3.2348,-3.1593,-3.2431,-3.2315,0.0,0.0,0.0,0.0,0.0,0.0,0.0,0.0,0.0,0.0,0.0,0.0,0.0,0.0,0.0,0.0,0.0,0.0,0.0,0.0,0.0,0.0,0.0,0.0,0.0,0.0,0.0,0.0,0.0,0.0,0.0,0.0,0.0,0.0,0.0,0.0,0.0,0.0,0.0,0.0,0.0,0.0,-3.9008,-3.8931,0.0,0.0,0.0,-3.9462,-3.9183,0.0,0.0,0.0,0.0,0.0,0.0,0.0,0.0,0.0,0.0,0.0,0.0,0.0,0.0,0.0,0.0,0.0,0.0,0.0,0.0,0.0,0.0,0.0,0.0,0.0,0.0,0.0,0.0,0.0,0.0,0.0,0.0,0.0,0.0,0.0,0.0,0.0,0.0,0.0,0.0,0.0,0.0,0.0,0.0,0.0,0.0,0.0,0.0,0.0,0.0,0.0,0.0,0.0,0.0,0.0,0.0,0.0,-3.0103,-3.0523,-3.0749,-3.0841,-3.2034,-3.2415,-3.1934,-3.2961,0.0,0.0,0.0,0.0,0.0,0.0,0.0,0.0,0.0,0.0,0.0,0.0,0.0,0.0,0.0,0.0,0.0,0.0,0.0,0.0,0.0,0.0,0.0,0.0,0.0,0.0,0.0,-3.4987,0.0,0.0,0.0,0.0,0.0,0.0,0.0,0.0,0.0,0.0,0.0,0.0,0.0,0.0,-3.9065,-3.8989,-3.9087,-3.9206,0.0,0.0,-3.984,-3.9369,-4.0857,-4.1761,0.0,0.0,0.0,0.0,0.0,0.0,0.0,0.0,0.0,0.0,0.0,0.0,0.0,0.0,0.0,0.0,0.0,0.0,0.0,0.0,0.0,0.0,0.0,0.0,0.0,0.0,0.0,0.0,0.0,0.0,0.0,0.0,0.0,0.0,0.0,0.0,0.0,0.0,0.0,0.0,0.0,0.0,0.0,0.0,0.0,0.0,0.0,0.0,0.0,0.0,0.0,0.0,0.0,0.0,0.0,-2.987,-3.0974,-3.1494,-3.1527,-3.2282,-3.2663,-3.2613,-3.2713,-3.2415,0.0,0.0,0.0,0.0,0.0,0.0,0.0,0.0,0.0,0.0,0.0,0.0,0.0,0.0,0.0,0.0,0.0,0.0,0.0,0.0,0.0,0.0,0.0,0.0,0.0,0.0,0.0,0.0,0.0,0.0,0.0,0.0,0.0,0.0,0.0,0.0,0.0,0.0,0.0,0.0,0.0,-3.9534,-3.8997,-3.9471,-4.0096,0.0,0.0,-4.0465,-4.1482,-4.2425,-4.2416,-4.0635,0.0,0.0,0.0,0.0,0.0,0.0,0.0,0.0,0.0,0.0,0.0,0.0,0.0,0.0,0.0,0.0,0.0,0.0,0.0,0.0,0.0,0.0,0.0,0.0,0.0,0.0,0.0,0.0,0.0,0.0,0.0,0.0,0.0,0.0,0.0,0.0,0.0,0.0,0.0,0.0,0.0,0.0,0.0,0.0,0.0,0.0,0.0,0.0,0.0,0.0,0.0,0.0,0.0,-2.9793,-2.981,-3.098,-3.1576,-3.1626,-3.2762,-3.3359,-3.3359,-3.3806,-3.3707,0.0,0.0,0.0,0.0,0.0,0.0,0.0,0.0,0.0,0.0,0.0,0.0,0.0,0.0,0.0,0.0,0.0,0.0,0.0,0.0,0.0,0.0,0.0,0.0,0.0,0.0,0.0,0.0,-3.6689,-3.7286,-3.8101,0.0,0.0,0.0,0.0,0.0,0.0,0.0,0.0,0.0,0.0,-4.0055,-3.9711,-4.0407,0.0,0.0,-4.1193,-4.1464,-4.1632,-4.2789,-4.3322,-4.2249,-4.2927,0.0,0.0,0.0,0.0,0.0,0.0,0.0,0.0,0.0,0.0,0.0,0.0,0.0,0.0,0.0,0.0,0.0,0.0,0.0,0.0,0.0,0.0,0.0,0.0,0.0,0.0,0.0,0.0,0.0,0.0,0.0,0.0,0.0,0.0,0.0,0.0,0.0,0.0,0.0,0.0,0.0,0.0,0.0,0.0,0.0,0.0,0.0,0.0,0.0,0.0,0.0,0.0,-3.0134,-3.0134,-3.1506,-3.2266,-3.2282,-3.3475,-3.4121,-3.4137,-3.4634,-3.4551,0.0,0.0,0.0,0.0,0.0,0.0,0.0,0.0,0.0,0.0,0.0,0.0,0.0,0.0,0.0,0.0,0.0,0.0,0.0,0.0,0.0,0.0,0.0,0.0,0.0,0.0,0.0,0.0,-3.7015,-3.7576,-3.8138,0.0,0.0,0.0,0.0,0.0,0.0,0.0,0.0,0.0,0.0,-4.0839,-4.0259,-4.1093,-4.1706,-4.1493,-4.1889,-4.2158,-4.2112,-4.3182,-4.3781,-4.3156,0.0,0.0,0.0,0.0,0.0,0.0,0.0,0.0,0.0,0.0,0.0,0.0,0.0,0.0,0.0,0.0,0.0,0.0,0.0,0.0,0.0,0.0,0.0,0.0,0.0,0.0,0.0,0.0,0.0,0.0,-2.4028,0.0,0.0,0.0,0.0,0.0,0.0,0.0,0.0,0.0,0.0,0.0,0.0,0.0,0.0,0.0,0.0,0.0,0.0,0.0,0.0,0.0,0.0,-3.0846,-3.0862,-3.2735,-3.3707,-3.374,-3.4485,-3.4849,-3.4866,-3.4899,-3.4551,-3.3839,0.0,0.0,0.0,0.0,0.0,0.0,0.0,0.0,0.0,0.0,0.0,0.0,0.0,0.0,0.0,0.0,0.0,0.0,0.0,0.0,0.0,0.0,0.0,0.0,0.0,0.0,-3.8083,-3.8156,-3.8138,0.0,0.0,0.0,0.0,0.0,0.0,0.0,0.0,0.0,0.0,-4.1165,-4.2001,-4.0568,-4.1401,-4.2252,-4.2286,-4.2237,-4.253,-4.3327,-4.3777,-4.3689,0.0,0.0,0.0,0.0,0.0,0.0,0.0,0.0,0.0,0.0,0.0,0.0,0.0,0.0,0.0,0.0,0.0,0.0,0.0,0.0,0.0,0.0,0.0,0.0,0.0,0.0,0.0,-2.467,-2.4559,0.0,0.0,0.0,0.0,0.0,0.0,0.0,0.0,0.0,0.0,0.0,-2.9817,-2.9832,0.0,0.0,0.0,0.0,0.0,0.0,0.0,0.0,0.0,0.0,0.0,0.0,-3.0895,-3.0989,-3.2616,-3.3604,-3.3806,-3.4312,-3.4691,-3.4899,-3.4899,-3.4783,-3.4535,0.0,0.0,0.0,0.0,0.0,0.0,0.0,0.0,0.0,0.0,0.0,0.0,0.0,0.0,0.0,0.0,0.0,0.0,0.0,0.0,0.0,0.0,0.0,0.0,0.0,-3.8192,0.0,0.0,0.0,0.0,0.0,0.0,0.0,0.0,0.0,0.0,0.0,-4.0638,-4.0688,-4.1832,-4.2541,-4.2221,-4.3042,-4.3692,0.0,0.0,0.0,0.0,0.0,0.0,0.0,0.0,0.0,0.0,0.0,0.0,0.0,0.0,-4.4112,-4.3004,-4.2794,-4.2794,-4.2794,0.0,0.0,0.0,0.0,0.0,0.0,0.0,0.0,0.0,0.0,0.0,0.0,0.0,0.0,-2.5386,0.0,-2.5429,0.0,0.0,0.0,0.0,0.0,0.0,0.0,0.0,-2.8918,-2.9485,-3.018,-3.0433,-3.0907,0.0,-3.1586,-3.1349,0.0,0.0,0.0,0.0,0.0,0.0,0.0,0.0,-3.1686,-3.1718,-3.3139,-3.3983,-3.4063,-3.4444,-3.4707,-3.4899,-3.4899,-3.4899,-3.4899,-3.4899,-3.4899,0.0,0.0,0.0,0.0,0.0,0.0,0.0,0.0,0.0,0.0,0.0,0.0,0.0,0.0,0.0,0.0,0.0,0.0,0.0,0.0,0.0,0.0,0.0,-3.8192,0.0,0.0,0.0,0.0,0.0,0.0,0.0,0.0,0.0,-4.0123,-4.0932,-4.1562,-4.1582,-4.2493,-4.3081,-4.2978,0.0,0.0,0.0,0.0,0.0,0.0,0.0,-4.4308,-4.4726,-4.461,-4.4557,-4.491,-4.5154,-4.5277,-4.5277,0.0,0.0,-4.3864,-4.3654,-4.3673,-4.3654,-4.3673,-4.3673,-4.3673,-4.3693,-4.3694,0.0,0.0,0.0,0.0,0.0,0.0,0.0,0.0,-2.6823,-2.6504,0.0,-2.6576,0.0,0.0,0.0,0.0,0.0,-2.8348,0.0,0.0,-2.9705,-3.0227,-3.0306,-3.0954,-3.1618,-3.2333,-3.2364,-3.2349,-3.2301,-3.1618,0.0,0.0,0.0,0.0,0.0,0.0,-3.308,-3.3064,-3.42,-3.4739,-3.448,-3.4739,-3.4883,-3.4899,-3.4899,-3.4899,-3.4899,-3.4899,-3.4899,-3.4899,-3.4899,0.0,0.0,0.0,0.0,0.0,0.0,0.0,0.0,0.0,0.0,0.0,0.0,0.0,0.0,0.0,0.0,0.0,0.0,0.0,0.0,-3.8246,0.0,0.0,0.0,0.0,0.0,0.0,0.0,0.0,0.0,0.0,-4.1346,-4.2044,-4.2445,-4.2015,0.0,0.0,0.0,0.0,-4.3584,-4.3974,-4.3701,-4.3697,-4.4327,-4.4411,-4.4493,-4.4776,0.0,0.0,-4.5277,-4.5277,-4.5277,-4.5277,-4.5277,-4.5277,-4.5258,-4.5182,-4.522,-4.522,-4.5182,-4.5258,-4.5279,-4.5186,-4.5264,-2.7111,0.0,0.0,0.0,0.0,-2.705,-2.7339,-2.8159,-2.8126,-2.8042,-2.7868,-2.8057,0.0,0.0,0.0,0.0,0.0,0.0,-2.9267,-2.9546,-3.0169,-3.0895,-3.1731,-3.1871,-3.2329,-3.2993,-3.2993,-3.3008,-3.2993,-3.2803,-3.2187,-3.1223,0.0,0.0,0.0,0.0,-3.2803,-3.2835,-3.3645,-3.4201,-3.4497,-3.4399,-3.4497,-3.4899,-3.4691,-3.4707,-3.4899,-3.4899,-3.4899,-3.4899,-3.4899,0.0,0.0,0.0,0.0,0.0,0.0,0.0,0.0,0.0,0.0,0.0,0.0,0.0,0.0,0.0,0.0,0.0,0.0,0.0,-3.8989,-3.9532,-3.9858,0.0,0.0,0.0,0.0,0.0,0.0,0.0,0.0,0.0,-4.2729,-4.3033,-4.3207,0.0,0.0,-4.3623,-4.3639,-4.3762,-4.3923,-4.425,-4.4355,0.0,-4.465,-4.4676,-4.4795,-4.5109,-4.5235,-4.5277,-4.5277,-4.5277,-4.5277,-4.5277,-4.5277,-4.5277,-4.5277,-4.5277,-4.5277,-4.5277,-4.5277,-4.5317,-4.5359,-4.5398,-4.5419,-2.804,-2.7273,-2.7259,-2.7578,-2.8091,-2.8204,-2.8511,-2.9044,-2.9305,-2.929,-2.9058,-2.9044,-2.8695,-2.81,-2.8115,0.0,0.0,0.0,-2.9773,-3.0179,-3.1182,-3.2044,-3.2692,-3.3245,-3.3719,-3.4115,-3.413,-3.3988,-3.3704,-3.3688,-3.3151,-3.2092,0.0,0.0,-3.218,-3.2812,-3.312,-3.3152,-3.3877,-3.4368,-3.4572,-3.4933,-3.5101,-3.5136,-3.5136,-3.5053,-3.4916,-3.4899,-3.5032,-3.5313,-3.5346,-3.5462,0.0,0.0,0.0,0.0,0.0,0.0,0.0,0.0,0.0,0.0,0.0,-3.7004,-3.7113,0.0,0.0,0.0,-3.8934,-3.9297,-3.9804,-4.0256,0.0,0.0,0.0,0.0,0.0,0.0,0.0,-4.1651,-4.2265,-4.288,-4.3321,-4.3463,-4.3479,-4.3479,-4.3479,-4.3615,-4.3974,0.0,-4.414,-4.4511,-4.4599,-4.4745,-4.4957,-4.4891,-4.4934,-4.5235,-4.5277,-4.5277,-4.5277,-4.5277,-4.5277,-4.5277,-4.5277,-4.5277,-4.5277,-4.5277,-4.5277,-4.5277,-4.5277,-4.5298,-4.5357,-4.5379,-4.5419,-2.9116,-2.8927,-2.8971,-2.8939,-2.8917,-2.9493,-2.9781,-2.9903,-3.0476,-3.0393,-2.9798,-2.9856,-2.9479,-2.884,-2.8884,0.0,-2.9426,-2.9976,-3.0464,-3.0809,-3.2588,-3.3414,-3.3477,-3.4723,-3.5338,-3.5322,-3.5394,-3.5047,-3.4399,-3.4383,-3.4067,-3.3482,-3.3467,-3.3541,-3.3738,-3.3722,-3.3754,-3.3818,-3.4719,-3.5041,-3.4846,-3.5954,-3.6247,-3.5626,-3.5861,-3.5712,-3.5066,-3.5081,-3.5379,-3.6059,-3.6092,-3.6406,-3.7069,0.0,0.0,0.0,0.0,0.0,0.0,0.0,0.0,0.0,0.0,0.0,0.0,0.0,0.0,0.0,-4.0166,0.0,-4.0619,-4.0655,0.0,0.0,0.0,-4.1759,-4.1777,-4.2558,-4.3104,-4.3104,0.0,0.0,-4.3394,-4.3446,-4.3497,-4.3497,-4.3479,-4.3615,-4.391,-4.3942,-4.4151,-4.4599,-4.4546,-4.4599,-4.5106,-4.5004,-4.4957,-4.5256,-4.5277,-4.5277,-4.5277,-4.5277,-4.5277,-4.5277,-4.5277,-4.5277,-4.5277,-4.5277,-4.5277,-4.5277,-4.5317,-4.5319,-4.5339,-4.54,-4.5457,-3.053,-3.0506,-3.1271,-3.1064,-3.0177,-3.0785,-3.1344,-3.1853,-3.2,-3.1961,-3.183,-3.183,-3.1206,-3.0161,-3.0626,-3.0642,-3.0338,-3.2165,-3.3026,-3.3172,-3.3939,-3.4281,-3.4296,-3.4607,-3.4763,-3.482,-3.5194,-3.53,-3.5142,-3.5126,-3.5047,-3.4889,-3.4889,-3.4659,-3.4175,-3.4159,-3.4428,-3.4999,-3.5229,-3.5495,-3.584,-3.6161,-3.632,-3.6329,-3.6448,-3.6434,-3.622,-3.6455,-3.6671,-3.6837,-3.6854,-3.692,-3.7102,-3.7119,0.0,0.0,0.0,0.0,0.0,0.0,0.0,0.0,0.0,-3.9188,-3.8791,0.0,-4.0039,0.0,-4.0963,-4.1433,-4.1397,-4.1977,0.0,0.0,-4.2502,-4.2611,-4.2611,-4.2885,-4.3104,-4.3104,-4.3196,-4.3251,-4.3251,-4.334,-4.3429,-4.3411,-4.3481,-4.3532,-4.3615,-4.3634,-4.3781,-4.4132,-4.4346,-4.4538,-4.4868,-4.5087,-4.5213,-4.5277,-4.5277,-4.5277,-4.5277,-4.5277,-4.5277,-4.5277,-4.5277,-4.5277,-4.5277,-4.5277,-4.5277,-4.5317,-4.538,-4.5457,-4.5495,-4.5563,-4.5658,-3.1168,-3.129,-3.227,-3.2256,-3.1685,-3.2173,-3.2587,-3.2953,-3.3209,-3.3209,-3.2919,-3.2643,-3.2106,-3.1467,-3.1816,-3.1787,-3.1558,-3.2943,-3.3577,-3.3638,-3.4662,-3.5112,-3.5127,-3.5658,-3.5873,-3.5915,-3.618,-3.6153,-3.5868,-3.5853,-3.5695,-3.5394,-3.5394,-3.5331,-3.5236,-3.4936,-3.4984,-3.5379,-3.5695,-3.6206,-3.6925,-3.6925,-3.6944,-3.6922,-3.7081,-3.697,-3.6626,-3.6916,-3.7251,-3.7582,-3.7599,-3.7731,-3.8063,-3.8218,-3.817,0.0,0.0,0.0,0.0,0.0,0.0,0.0,0.0,0.0,0.0,0.0,-4.0673,-4.1017,-4.1778,-4.223,-4.2248,-4.2629,-4.29,-4.29,-4.29,-4.29,-4.29,-4.2956,-4.2994,-4.3012,-4.3086,-4.316,-4.3214,-4.3322,-4.3411,-4.3446,-4.36,-4.3763,-4.3886,-4.3918,-4.4072,-4.4503,-4.4714,-4.4838,-4.5023,-4.5173,-4.5277,-4.5277,-4.5277,-4.5277,-4.5277,-4.5277,-4.5277,-4.5277,-4.5277,-4.5277,-4.5277,-4.5277,-4.5277,-4.5338,-4.5477,-4.5566,-4.5568,-4.5629,-4.5733,-3.1503,-3.1545,-3.2567,-3.3025,-3.3025,-3.344,-3.3599,-3.3671,-3.4148,-3.4109,-3.3558,-3.3006,-3.2716,-3.2643,-3.2716,-3.2716,-3.2643,-3.3195,-3.3476,-3.3568,-3.4927,-3.5644,-3.5796,-3.6823,-3.7345,-3.7405,-3.748,-3.7148,-3.6579,-3.6564,-3.6263,-3.5679,-3.5663,-3.5963,-3.65,-3.5963,-3.5647,-3.5663,-3.6248,-3.6949,-3.787,-3.7886,-3.7769,-3.7485,-3.7709,-3.756,-3.6921,-3.7213,-3.7682,-3.8295,-3.8361,-3.8642,-3.9276,-3.9694,-3.9615,0.0,-3.988,0.0,0.0,0.0,0.0,0.0,0.0,0.0,0.0,-4.0709,-4.1107,-4.1814,-4.2484,-4.29,-4.29,-4.29,-4.29,-4.29,-4.29,-4.29,-4.29,-4.29,-4.29,-4.29,-4.2994,-4.3123,-4.3178,-4.334,-4.3481,-4.3548,-4.386,-4.4132,-4.4374,-4.4383,-4.4538,-4.5173,-4.5275,-4.5235,-4.5256,-4.5277,-4.5277,-4.5277,-4.5277,-4.5277,-4.5277,-4.5277,-4.5277,-4.5277,-4.5277,-4.5277,-4.5277,-4.5277,-4.5317,-4.5338,-4.5531,-4.5632,-4.5565,-4.5661,-4.5742,-3.1709,-3.182,-3.3123,-3.3599,-3.3668,-3.4023,-3.4187,-3.4259,-3.4332,-3.4341,-3.4225,-3.4109,-3.3761,-3.334,-3.3819,-3.379,-3.3391,-3.4381,-3.4797,-3.4812,-3.5126,-3.5507,-3.5872,-3.6119,-3.643,-3.6846,-3.727,-3.7401,-3.7291,-3.7291,-3.7212,-3.7085,-3.7085,-3.7148,-3.7259,0.0,0.0,0.0,-3.7212,-3.7499,-3.787,-3.7886,-3.801,-3.8197,-3.8443,0.0,-3.8395,-3.8698,-3.8924,-3.9056,-3.9073,0.0,0.0,0.0,0.0,0.0,0.0,0.0,0.0,0.0,0.0,0.0,-4.1296,-4.1421,-4.181,-4.2183,-4.2502,-4.2665,-4.281,-4.29,-4.29,-4.29,-4.29,-4.29,-4.29,-4.29,-4.29,-4.29,-4.29,-4.29,-4.3012,-4.3104,-4.316,-4.3461,-4.3726,-4.3758,-4.4084,-4.443,-4.4676,-4.4519,-4.4538,-4.4862,-4.5132,-4.5277,-4.5277,-4.5277,-4.5277,-4.5277,-4.5277,-4.5277,-4.5277,-4.5277,-4.5277,-4.5277,-4.5277,-4.5277,-4.5277,-4.5277,-4.5359,-4.5438,-4.5601,-4.568,-4.5665,-4.5808,-4.5966,-3.1993,0.0,-3.3143,-3.3563,0.0,-3.4128,-3.4414,-3.4414,-3.4414,-3.4414,-3.4414,-3.4414,-3.424,-3.3949,-3.4283,-3.424,-3.3949,-3.4522,-3.4986,-3.5234,-3.5415,-3.58,-3.6321,-3.6569,-3.6831,-3.7105,-3.7361,-3.748,-3.748,-3.748,-3.748,-3.748,-3.748,-3.748,-3.748,-3.748,-3.748,-3.748,-3.748,-3.7626,-3.7886,-3.7786,-3.7918,-3.8391,-3.856,0.0,0.0,0.0,0.0,0.0,0.0,0.0,0.0,-3.9798,0.0,-4.0154,-4.0483,-4.0707,-4.0707,-4.1065,-4.1534,-4.1941,-4.2175,-4.2378,-4.2537,-4.2768,-4.29,-4.29,-4.29,-4.29,-4.29,-4.29,-4.29,-4.29,-4.29,-4.29,-4.29,-4.29,-4.29,-4.29,-4.2956,-4.3068,-4.3269,-4.3479,-4.373,-4.3873,-4.424,-4.4495,-4.461,-4.4617,-4.472,-4.5,-4.5173,-4.5277,-4.5277,-4.5277,-4.5277,-4.5277,-4.5277,-4.5277,-4.5277,-4.5277,-4.5277,-4.5277,-4.5277,-4.5277,-4.5317,-4.5359,-4.54,-4.5495,-4.5668,-4.5791,-4.5824,-4.5905,-4.6027,-3.2169,-3.2241,-3.2988,-3.3269,-3.3339,-3.4059,-3.4414,-3.4414,0.0,0.0,0.0,-3.4414,-3.4414,-3.4414,-3.4414,-3.4414,-3.4414,-3.4414,-3.4601,-3.5052,-3.5494,-3.5928,-3.6461,-3.6968,-3.727,-3.7345,-3.748,-3.748,-3.748,-3.748,-3.748,-3.748,-3.748,-3.748,-3.748,-3.748,-3.748,-3.748,-3.748,-3.7583,-3.7828,-3.7626,-3.7817,-3.8335,-3.8335,-3.8488,-3.8805,-3.904,-3.9272,-3.9288,-3.9288,-3.9432,-3.9798,-3.9849,-4.007,-4.0368,-4.0772,-4.1024,-4.1134,-4.1805,-4.2287,-4.2369,-4.2709,-4.29,-4.29,-4.29,-4.29,-4.29,-4.29,-4.29,-4.29,-4.29,-4.29,-4.29,-4.29,-4.29,-4.29,-4.29,-4.29,-4.29,-4.2938,-4.305,-4.3358,-4.3548,-4.3697,-4.4005,-4.4345,-4.4578,-4.4568,-4.4739,-4.4953,-4.5213,-4.5277,-4.5277,-4.5277,-4.5277,-4.5277,-4.5277,-4.5277,-4.5277,-4.5277,-4.5277,-4.5277,-4.5277,-4.5277,-4.5298,-4.5339,-4.5438,-4.5513,-4.5566,-4.5746,-4.5906,-4.5912,-4.5972,-4.6017,-3.2169,-3.2255,-3.3002,-3.3269,-3.3339,-3.4059,-3.4414,-3.4414,-3.4414,-3.4414,-3.4414,-3.4414,-3.4414,-3.4414,-3.4414,-3.4414,-3.4414,-3.4414,-3.4414,-3.4549,-3.4601,-3.492,-3.5429,-3.5928,-3.6383,-3.6846,-3.7285,-3.748,-3.748,-3.748,-3.748,-3.748,-3.748,-3.7496,-3.748,-3.748,-3.748,-3.748,-3.748,-3.7524,-3.7583,-3.7727,-3.7902,-3.7943,-3.8262,-3.8488,-3.8805,-3.886,-3.9023,-3.9272,-3.9288,-3.9325,-3.9379,-3.9694,-4.007,-4.04,-4.0772,-4.118,-4.1498,-4.1805,-4.2145,-4.2512,-4.2786,-4.29,-4.29,-4.29,-4.29,-4.29,-4.29,-4.29,-4.29,-4.29,-4.29,-4.29,-4.29,-4.29,-4.29,-4.29,-4.29,-4.29,-4.2994,-4.3086,-4.3233,-4.3682,-4.3968,-4.4121,-4.4486,-4.4821,-4.4802,-4.4967,-4.5106,-4.5256,-4.5277,-4.5277,-4.5277,-4.5277,-4.5277,-4.5277,-4.5277,-4.5277,-4.5277,-4.5277,-4.5277,-4.5317,-4.5298,-4.536,-4.5438,-4.5476,-4.5601,-4.5781,-4.588,-4.5912,-4.5953,-4.5986,-4.6017,-3.2169,-3.2241,-3.2789,-3.3129,-3.3339,-3.4128,-3.4414,-3.4414,-3.4414,-3.4414,-3.4414,-3.4414,-3.4414,-3.4414,-3.4414,-3.4414,-3.4414,-3.4414,-3.4549,-3.4854,-3.4868,-3.5234,-3.6006,-3.6274,-3.6631,-3.7105,-3.7345,-3.748,-3.748,-3.748,-3.748,-3.7496,-3.7844,-3.8049,-3.8049,-3.8033,-3.7844,-3.7496,-3.748,-3.748,-3.748,-3.7626,-3.7727,-3.7886,-3.8205,-3.8544,-3.8805,-3.8985,-3.9148,-3.9288,-3.9288,-3.9379,-3.9642,-3.9798,-4.007,-4.0368,-4.0772,-4.1071,-4.1255,-4.1788,-4.2269,-4.257,-4.2786,-4.29,-4.29,-4.29,-4.29,-4.29,-4.29,-4.29,-4.29,-4.29,-4.29,-4.29,-4.29,-4.29,-4.29,-4.29,-4.29,-4.29,-4.2956,-4.3087,-4.341,-4.3679,-4.3999,-4.4258,-4.456,-4.4693,-4.477,-4.4846,-4.4919,-4.5057,-4.5148,-4.5192,-4.5192,-4.5256,-4.5297,-4.5277,-4.5277,-4.5277,-4.5277,-4.5277,-4.5338,-4.54,-4.54,-4.5457,-4.5565,-4.5684,-4.5776,-4.5833,-4.5925,-4.5953,-4.5997,-4.5977,-4.6017,-3.2169,-3.2241,-3.2574,-3.2988,-3.3409,-3.4059,-3.4346,-3.4414,-3.4278,-3.4346,-3.4414,-3.4414,-3.4414,-3.4414,-3.4414,-3.4414,-3.4414,-3.4414,-3.4601,-3.4971,-3.5169,-3.5623,-3.6336,-3.6585,-3.6923,-3.7285,-3.7421,-3.748,-3.748,-3.748,-3.7559,-3.7765,-3.8397,-3.8744,-3.8728,-3.8728,-3.8397,-3.7765,-3.7859,-3.7796,-3.7496,-3.7583,-3.7685,-3.7844,-3.8221,-3.8504,-3.8711,-3.904,-3.9218,-3.9288,-3.9288,-3.9432,-3.9746,-3.9746,-3.9969,-4.0368,-4.0707,-4.1007,-4.13,-4.1917,-4.2409,-4.2649,-4.2824,-4.29,-4.29,-4.29,-4.29,-4.29,-4.29,-4.29,-4.29,-4.29,-4.29,-4.29,-4.29,-4.29,-4.29,-4.29,-4.29,-4.29,-4.29,-4.3105,-4.3477,-4.3646,-4.3905,-4.4383,-4.4496,-4.4551,-4.4632,-4.4685,-4.4764,-4.4846,-4.4991,-4.5103,-4.5103,-4.5213,-4.5277,-4.5277,-4.5277,-4.5277,-4.5277,-4.5277,-4.5339,-4.5438,-4.5495,-4.5566,-4.5715,-4.5805,-4.5874,-4.5912,-4.5953,-4.5997,-4.5997,-4.5977,-4.6017,-3.2196,-3.2241,-3.2588,-3.3129,-3.3701,-3.3839,-3.4059,-3.4346,-3.3991,-3.4059,-3.4414,-3.4414,-3.4414,-3.4414,-3.4414,-3.4414,-3.4414,-3.4414,-3.4414,-3.4549,-3.4986,-3.5234,-3.5479,-3.6258,-3.6723,-3.6846,-3.7285,-3.748,-3.748,-3.7496,-3.7828,-3.8428,-3.9076,-3.9408,-3.9408,-3.9408,-3.9076,-3.8444,-3.9013,-3.8713,-3.7619,-3.7743,-3.7743,-3.7539,-3.8107,-3.8391,-3.8448,-3.8711,-3.8985,-3.9288,-3.9288,-3.9325,-3.9379,-3.9362,-3.9661,-4.0302,-4.0466,-4.0926,-4.2037,-4.2246,-4.2503,-4.2806,-4.2936,-4.2918,-4.29,-4.29,-4.29,-4.29,-4.29,-4.29,-4.29,-4.29,-4.29,-4.29,-4.29,-4.29,-4.29,-4.29,-4.29,-4.29,-4.2938,-4.3014,-4.3338,-4.3594,-4.3936,-4.4411,-4.4496,-4.4496,-4.457,-4.4632,-4.4712,-4.477,-4.4919,-4.508,-4.5125,-4.5233,-4.5297,-4.5277,-4.5277,-4.5298,-4.5298,-4.5319,-4.5339,-4.553,-4.5627,-4.575,-4.5791,-4.5893,-4.597,-4.5972,-4.5986,-4.5977,-4.5977,-4.5977,-4.6007,-3.301,-3.2772,-3.2905,-3.3049,-3.3157,-3.3409,-3.3701,-3.3991,-3.3839,-3.4059,-3.4346,-3.4414,-3.4414,-3.4414,-3.4414,-3.4414,-3.4414,-3.4414,-3.4414,-3.4414,-3.4668,-3.5037,-3.5608,-3.5991,-3.6507,-3.7165,-3.7405,-3.748,-3.7543,-3.7875,-3.8649,-3.9661,-4.004,-4.0151,-4.0151,-4.0151,-3.9803,-3.9139,-3.936,-3.9218,-3.8713,-3.8391,-3.8185,-3.8109,-3.8274,-3.8391,-3.8448,-3.8821,-3.9148,-3.9272,-3.9288,-3.9288,-3.9325,-3.9537,-3.9781,-4.0138,-4.0959,-4.1873,-4.2829,-4.3359,-4.3531,-4.323,-4.3433,-4.3407,-4.2955,-4.29,-4.29,-4.29,-4.29,-4.29,-4.29,-4.29,-4.29,-4.29,-4.29,-4.29,-4.29,-4.29,-4.29,-4.2882,-4.3032,-4.3232,-4.3545,-4.3905,-4.4248,-4.4487,-4.4496,-4.4524,-4.4605,-4.4659,-4.4719,-4.4821,-4.4986,-4.508,-4.5103,-4.5213,-4.5297,-4.5297,-4.5277,-4.5298,-4.5438,-4.5419,-4.5476,-4.5738,-4.614,-4.624,-4.5976,-4.6407,-4.6643,-4.6346,-4.5997,-4.5977,-4.5977,-4.5977,-4.5977,-3.3702,-3.3308,-3.3268,-3.3065,-3.2717,-3.2988,-3.3339,-3.3632,-3.3632,-3.3825,-3.421,-3.452,-3.4675,-3.4646,-3.4501,-3.4414,-3.4414,-3.4414,-3.4414,-3.4414,-3.4549,-3.5103,-3.5849,-3.6252,-3.6909,-3.766,-3.797,-3.8049,-3.8112,-3.876,-3.9613,-4.0498,-4.0783,-4.0862,-4.0862,-4.0862,-4.0514,-3.9882,-3.9977,-3.9993,-3.9771,-3.9329,-3.8964,-3.8658,-3.8476,-3.8464,-3.8504,-3.9056,-3.9288,-3.9288,-3.9471,-3.9587,-3.964,-4.0074,-4.0385,-4.073,-4.1845,-4.2836,-4.3537,-4.4163,-4.4331,-4.3906,-4.3985,-4.3782,-4.3317,-4.3009,-4.29,-4.29,-4.29,-4.29,-4.29,-4.29,-4.29,-4.29,-4.29,-4.29,-4.29,-4.2957,-4.3032,-4.3032,-4.3267,-4.3621,-4.405,-4.4356,-4.4543,-4.4815,-4.4665,-4.4551,-4.4742,-4.4926,-4.5193,-4.5299,-4.5612,-4.562,-4.5278,-4.55,-4.5545,-4.5551,-4.5609,-4.6147,-4.6011,-4.601,-4.6311,-4.7008,-4.726,-4.7172,-4.669,-4.6957,-4.722,-4.6676,-4.6502,-4.6676,-4.6929,-4.6754,-4.6754,-3.3856,-3.3824,-3.3641,-3.3197,-3.2717,-3.2704,-3.2988,-3.3339,-3.3368,-3.3577,-3.4037,-3.4929,-3.5328,-3.5354,-3.4777,-3.4443,-3.4428,-3.4457,-3.4472,-3.454,-3.4994,-3.5459,-3.5958,-3.7076,-3.792,-3.8446,-3.8965,-3.9297,-3.9408,-4.0087,-4.0546,-4.064,-4.1209,-4.1525,-4.1494,-4.1478,-4.1209,-4.0672,-4.1067,-4.1162,-4.0609,-4.0498,-3.9913,-3.9074,-3.8624,-3.8602,-3.8848,-3.9127,-3.9322,-3.9305,-3.9967,-4.0315,-4.0382,-4.0984,-4.1653,-4.2483,-4.2994,-4.3554,-4.4149,-4.4403,-4.452,-4.4695,-4.4294,-4.3935,-4.3984,-4.3498,-4.3154,-4.2955,-4.3118,-4.3063,-4.3063,-4.2991,-4.2936,-4.2973,-4.2955,-4.2973,-4.301,-4.3397,-4.3304,-4.3358,-4.3621,-4.4147,-4.5034,-4.4774,-4.5031,-4.5322,-4.5021,-4.4701,-4.5025,-4.5609,-4.6095,-4.6407,-4.6828,-4.7067,-4.5643,-4.5963,-4.6125,-4.6167,-4.68,-4.7529,-4.7446,-4.7414,-4.7839,-4.8169,-4.8288,-4.807,-4.7509,-4.7298,-4.7395,-4.7395,-4.7784,-4.8017,-4.7822,-4.8269,-4.8191,-3.4208,-3.3892,-3.3445,-3.3137,-3.2919,-3.255,-3.2717,-3.3297,-3.3691,-3.4214,-3.4903,-3.5621,-3.5967,-3.5952,-3.572,-3.5401,-3.5038,-3.5024,-3.5024,-3.5136,-3.6049,-3.6768,-3.7218,-3.8,-3.8637,-3.9124,-3.9392,-3.9756,-4.0198,-4.0498,-4.083,-4.1209,-4.1462,-4.1588,-4.1588,-4.1588,-4.1446,-4.1288,-4.1494,-4.1462,-4.1274,-4.1055,-4.0798,-4.0546,-4.0049,-3.991,-4.0214,-4.0479,-4.0647,-4.0647,-4.0912,-4.1044,-4.1061,-4.1538,-4.2328,-4.3268,-4.382,-4.4396,-4.5047,-4.5522,-4.5592,-4.5276,-4.528,-4.5,-4.4728,-4.4505,-4.444,-4.4421,-4.4421,-4.4421,-4.4222,-4.3552,-4.3099,-4.3552,-4.3679,-4.3975,-4.4545,-4.4821,-4.4801,-4.4518,-4.4587,-4.4991,-4.5492,-4.5846,-4.6223,-4.6448,-4.6279,-4.613,-4.6261,-4.6671,-4.6928,-4.7172,-4.7487,-4.7616,-4.72,-4.7201,-4.7396,-4.7431,-4.7769,-4.7993,-4.8017,-4.8179,-4.8507,-4.8807,-4.9026,-4.8987,-4.8425,-4.8133,-4.8133,-4.8211,-4.8658,-4.891,-4.858,-4.8949,-4.8852,-3.4519,-3.4204,-3.381,-3.3403,-3.3037,-3.2643,-3.2732,-3.3264,-3.3798,-3.4525,-3.5311,-3.6043,-3.6476,-3.6635,-3.662,-3.6545,-3.6234,-3.5918,-3.5816,-3.6054,-3.6828,-3.7556,-3.8228,-3.8839,-3.9404,-3.9834,-4.0087,-4.0451,-4.0862,-4.0909,-4.1162,-4.1557,-4.1588,-4.1588,-4.1588,-4.1588,-4.1588,-4.1588,-4.1588,-4.1588,-4.1591,-4.1534,-4.1594,-4.1763,-4.1525,-4.1232,-4.1148,-4.1295,-4.1425,-4.1442,-4.164,-4.1929,-4.2316,-4.2762,-4.3399,-4.4284,-4.4699,-4.5128,-4.5699,-4.6204,-4.6265,-4.5864,-4.5891,-4.576,-4.5342,-4.5314,-4.5269,-4.5291,-4.5291,-4.5291,-4.511,-4.4295,-4.3914,-4.4385,-4.4494,-4.4849,-4.5681,-4.5828,-4.5803,-4.5718,-4.578,-4.6027,-4.6438,-4.6786,-4.7068,-4.7331,-4.7199,-4.707,-4.7165,-4.7466,-4.7653,-4.7935,-4.8422,-4.8752,-4.8759,-4.897,-4.8426,-4.8334,-4.8945,-4.9006,-4.8889,-4.9032,-4.9194,-4.945,-4.9571,-4.9609,-4.9454,-4.9124,-4.9027,-4.9046,-4.9512,-4.992,-4.9707,-4.9571,-4.959,-3.4841,-3.4774,-3.4814,-3.4136,-3.3281,-3.3118,-3.3139,-3.3219,-3.3611,-3.4413,-3.5289,-3.6219,-3.6993,-3.7229,-3.7375,-3.7608,-3.7718,-3.6992,-3.6799,-3.7189,-3.7416,-3.7994,-3.8905,-3.9563,-4.0091,-4.0625,-4.1225,-4.1509,-4.1494,-4.1478,-4.1541,-4.1573,-4.1588,-4.1588,-4.1588,-4.1588,-4.1588,-4.1588,-4.1588,-4.1588,-4.1654,-4.1917,-4.2189,-4.252,-4.2782,-4.2479,-4.155,-4.1541,-4.164,-4.1657,-4.2187,-4.3082,-4.4007,-4.4521,-4.5056,-4.5407,-4.558,-4.5786,-4.6122,-4.6221,-4.635,-4.6348,-4.6112,-4.6024,-4.6054,-4.5743,-4.5562,-4.5599,-4.5562,-4.5472,-4.5526,-4.5399,-4.5291,-4.5309,-4.533,-4.5542,-4.5938,-4.6064,-4.6353,-4.6824,-4.6952,-4.735,-4.7744,-4.7687,-4.7631,-4.7969,-4.7725,-4.7379,-4.7617,-4.8089,-4.8437,-4.8768,-4.93,-4.9816,-5.0278,-5.0615,-4.9745,-4.9199,-5.0032,-5.0467,-5.0099,-5.0079,-5.0292,-5.0503,-5.0484,-5.0484,-5.0192,-4.9901,-4.9901,-5.0017,-5.0542,-5.0775,-5.06,-5.0445,-5.0678,-3.5194,-3.4855,-3.4828,-3.4638,-3.4231,-3.3851,-3.3595,-3.3606,-3.4471,-3.5125,-3.5747,-3.6778,-3.7552,-3.7912,-3.8297,-3.8648,-3.8763,-3.874,-3.8652,-3.8644,-3.9223,-3.9779,-4.0163,-4.0767,-4.1125,-4.1304,-4.1478,-4.1588,-4.1588,-4.1588,-4.1588,-4.1588,-4.1588,-4.1588,-4.1588,-4.1588,-4.1588,-4.1588,-4.1588,-4.1588,-4.167,-4.2174,-4.2492,-4.2618,-4.3113,-4.3244,-4.2965,-4.2932,-4.2949,-4.2899,-4.3164,-4.3714,-4.4546,-4.5125,-4.5563,-4.5938,-4.6023,-4.6073,-4.6189,-4.6189,-4.6221,-4.6363,-4.65,-4.6641,-4.674,-4.6837,-4.6902,-4.692,-4.6957,-4.6957,-4.6957,-4.6957,-4.6667,-4.6196,-4.6288,-4.6722,-4.7408,-4.7571,-4.7635,-4.7759,-4.7838,-4.7969,-4.8213,-4.8251,-4.8701,-4.8927,-4.8776,-4.8657,-4.8792,-4.8966,-4.9397,-4.9632,-5.0281,-5.0568,-5.0715,-5.0887,-5.0525,-5.0041,-5.0623,-5.1089,-5.0887,-5.0814,-5.1086,-5.1202,-5.1202,-5.1105,-5.0814,-5.0678,-5.0619,-5.0697,-5.093,-5.1086,-5.1183,-5.1214,-5.1206,-3.5303,-3.5167,-3.5167,-3.5018,-3.4814,-3.4343,-3.4131,-3.419,-3.4862,-3.5384,-3.5803,-3.6443,-3.7253,-3.7914,-3.8355,-3.9011,-3.9707,-4.0076,-4.0125,-4.0023,-4.0415,-4.0867,-4.1055,-4.1456,-4.1588,-4.1588,-4.1588,-4.1588,-4.1588,-4.1588,-4.1588,-4.1588,-4.1588,-4.1588,-4.1588,-4.1588,-4.1588,-4.1604,-4.172,-4.1785,-4.1916,-4.2429,-4.2805,-4.2867,-4.3312,-4.3568,-4.3628,-4.373,-4.3789,-4.373,-4.3889,-4.4429,-4.5142,-4.558,-4.5972,-4.6122,-4.6189,-4.6189,-4.6189,-4.6189,-4.6189,-4.627,-4.6702,-4.698,-4.707,-4.7443,-4.7699,-4.7699,-4.7663,-4.7699,-4.7681,-4.7788,-4.7575,-4.7139,-4.7247,-4.7756,-4.8529,-4.873,-4.8689,-4.8683,-4.8683,-4.8683,-4.8833,-4.9039,-4.949,-4.9509,-4.9509,-4.9563,-4.9604,-4.9693,-4.9884,-5.0092,-5.0389,-5.0642,-5.0803,-5.0966,-5.1178,-5.1035,-5.1074,-5.1178,-5.1086,-5.1066,-5.1202,-5.1202,-5.1202,-5.1202,-5.0989,-5.1027,-5.1027,-5.1202,-5.1202,-5.1202,-5.1214,-5.121,-5.1211,-3.5221,-3.5696,-3.571,-3.5384,-3.495,-3.4896,-3.4801,-3.4774,-3.4896,-3.5182,-3.5592,-3.5976,-3.666,-3.7565,-3.8147,-3.9128,-4.0485,-4.0799,-4.1024,-4.1178,-4.1189,-4.1138,-4.1456,-4.1588,-4.1588,-4.1588,-4.1588,-4.1588,-4.1588,-4.1588,-4.1588,-4.1588,-4.1588,-4.1588,-4.1588,-4.1588,-4.1588,-4.1654,-4.1916,-4.2045,-4.2093,-4.2726,-4.3035,-4.3113,-4.3416,-4.3645,-4.3628,-4.3964,-4.4064,-4.3831,-4.4468,-4.5089,-4.558,-4.5955,-4.6189,-4.6189,-4.6189,-4.6189,-4.6189,-4.6189,-4.6189,-4.6239,-4.6655,-4.6998,-4.7088,-4.7443,-4.7699,-4.7699,-4.7699,-4.7699,-4.7765,-4.7933,-4.802,-4.8135,-4.8122,-4.8421,-4.8922,-4.927,-4.9309,-4.9396,-4.9471,-4.9471,-4.9377,-4.9452,-4.949,-4.949,-4.9521,-4.9625,-4.974,-4.9857,-4.9968,-5.0237,-5.0587,-5.0733,-5.0921,-5.1029,-5.1202,-5.1202,-5.1202,-5.1202,-5.1202,-5.1202,-5.1202,-5.1202,-5.1202,-5.1202,-5.1202,-5.1202,-5.1202,-5.1202,-5.1202,-5.1202,-5.1208,-5.1219,-5.1269,-3.5574,-3.571,-3.571,-3.5628,-3.5493,-3.5493,-3.5221,-3.4923,-3.5316,-3.5733,-3.6358,-3.6821,-3.7705,-3.911,-3.9476,-4.0186,-4.0737,-4.1189,-4.1456,-4.1522,-4.144,-4.1456,-4.1588,-4.1588,-4.1588,-4.1588,-4.1588,-4.1588,-4.1588,-4.1588,-4.1588,-4.1588,-4.1588,-4.1588,-4.1588,-4.1588,-4.1588,-4.1654,-4.1916,-4.2109,-4.2222,-4.2789,-4.3096,-4.3096,-4.3416,-4.3628,-4.3628,-4.4023,-4.4406,-4.458,-4.5089,-4.5477,-4.5632,-4.5955,-4.6189,-4.6189,-4.6189,-4.6189,-4.6189,-4.6189,-4.6189,-4.6221,-4.6684,-4.6998,-4.7043,-4.7443,-4.7657,-4.7699,-4.7699,-4.7824,-4.7933,-4.8075,-4.8289,-4.8677,-4.8748,-4.8925,-4.9262,-4.9409,-4.9509,-4.9509,-4.9509,-4.9509,-4.9509,-4.9509,-4.949,-4.9532,-4.9615,-4.9759,-4.9891,-5.014,-5.032,-5.0508,-5.0771,-5.0909,-5.1034,-5.1134,-5.119,-5.1202,-5.1202,-5.1202,-5.1202,-5.1202,-5.1202,-5.1202,-5.1202,-5.1202,-5.1202,-5.1202,-5.1202,-5.1214,-5.121,-5.122,-5.1226,-5.1232,-5.1327,-3.571,-3.571,-3.571,-3.571,-3.571,-3.571,-3.552,-3.5316,-3.5533,-3.5977,-3.6434,-3.6741,-3.7886,-3.937,-3.9703,-4.0368,-4.1091,-4.1456,-4.1588,-4.1588,-4.1588,-4.1588,-4.1588,-4.1588,-4.1588,-4.1588,-4.1588,-4.1588,-4.1588,-4.1588,-4.1588,-4.1588,-4.1588,-4.1588,-4.1588,-4.1588,-4.1588,-4.1654,-4.1916,-4.219,-4.2365,-4.2789,-4.3174,-4.3295,-4.3552,-4.373,-4.4105,-4.4614,-4.4889,-4.5018,-4.5302,-4.5701,-4.5854,-4.6073,-4.6189,-4.6189,-4.6189,-4.6189,-4.6189,-4.6189,-4.6189,-4.627,-4.6702,-4.6934,-4.7088,-4.7443,-4.7699,-4.787,-4.7888,-4.8032,-4.8269,-4.8402,-4.8713,-4.9113,-4.923,-4.9313,-4.9509,-4.949,-4.9509,-4.9509,-4.9509,-4.9509,-4.9509,-4.949,-4.9563,-4.9596,-4.9712,-4.9936,-5.014,-5.0425,-5.0644,-5.0754,-5.0858,-5.1005,-5.1081,-5.1134,-5.119,-5.1202,-5.1202,-5.1202,-5.1202,-5.1202,-5.1202,-5.1202,-5.1202,-5.1202,-5.1214,-5.1206,-5.1197,-5.121,-5.1209,-5.1257,-5.1291,-5.1468,-5.1525,-3.571,-3.571,-3.571,-3.571,-3.571,-3.571,-3.5696,-3.5696,-3.5696,-3.5953,-3.6386,-3.6321,-3.7726,-3.923,-3.9711,-4.0158,-4.1588,-4.1604,-4.1588,-4.1588,-4.1588,-4.1588,-4.1588,-4.1588,-4.1588,-4.1588,-4.1588,-4.1588,-4.1588,-4.1588,-4.1588,-4.1588,-4.1588,-4.1588,-4.1588,-4.1588,-4.1588,-4.1654,-4.1916,-4.219,-4.2492,-4.2974,-4.3339,-4.3595,-4.3831,-4.4145,-4.4746,-4.5249,-4.5407,-4.5001,-4.5407,-4.5854,-4.614,-4.6189,-4.6189,-4.6189,-4.6189,-4.6189,-4.6189,-4.6189,-4.6189,-4.6288,-4.6702,-4.7025,-4.7143,-4.7511,-4.787,-4.8153,-4.8153,-4.8307,-4.8569,-4.8872,-4.9146,-4.9377,-4.9478,-4.9509,-4.9509,-4.9509,-4.9509,-4.9509,-4.9509,-4.9509,-4.949,-4.9532,-4.9585,-4.9731,-4.9865,-5.0164,-5.0363,-5.0567,-5.0754,-5.0874,-5.0971,-5.1067,-5.1108,-5.1146,-5.119,-5.1202,-5.1202,-5.1202,-5.1202,-5.1202,-5.1202,-5.1202,-5.1202,-5.1206,-5.1219,-5.121,-5.1211,-5.1234,-5.1252,-5.1357,-5.1472,-5.1753,-5.1914,-3.571,-3.571,-3.571,-3.571,-3.571,-3.571,-3.571,-3.571,-3.571,-3.6434,-3.7447,-3.7808,-3.8922,-4.0566,-4.064,-4.1115,-4.1573,-4.1588,-4.1588,-4.1588,-4.1588,-4.1588,-4.1588,-4.1588,-4.1588,-4.1588,-4.1588,-4.1588,-4.1588,-4.1588,-4.1588,-4.1588,-4.1588,-4.1588,-4.1588,-4.1588,-4.1588,-4.1654,-4.1916,-4.2174,-4.2539,-4.3185,-4.368,-4.3856,-4.4316,-4.4691,-4.491,-4.5354,-4.5529,-4.558,-4.5803,-4.6073,-4.6189,-4.6189,-4.6189,-4.6189,-4.6189,-4.6189,-4.6189,-4.6189,-4.6239,-4.6319,-4.6731,-4.7116,-4.7335,-4.7733,-4.8153,-4.8421,-4.8495,-4.8623,-4.8872,-4.9211,-4.9377,-4.9459,-4.9509,-4.9509,-4.9509,-4.9509,-4.9509,-4.9509,-4.9521,-4.949,-4.9521,-4.9683,-4.9768,-4.9857,-5.0092,-5.0406,-5.0587,-5.0717,-5.0822,-5.0956,-5.1015,-5.1095,-5.1102,-5.1146,-5.119,-5.1202,-5.1202,-5.1202,-5.1202,-5.1206,-5.1217,-5.1206,-5.1202,-5.1217,-5.1211,-5.1217,-5.1222,-5.1263,-5.1363,-5.1611,-5.1853,-5.2105,-5.2663,-3.571,-3.571,-3.571,-3.571,-3.571,-3.571,-3.5871,-3.6243,-3.6243,-3.7141,-3.8473,-3.8855,-3.9763,-4.1049,-4.1272,-4.1374,-4.1588,-4.1588,-4.1588,-4.1588,-4.1588,-4.1588,-4.1588,-4.1588,-4.1588,-4.1588,-4.1588,-4.1588,-4.1588,-4.1588,-4.1588,-4.1588,-4.1588,-4.1588,-4.1588,-4.1588,-4.1769,-4.2093,-4.2222,-4.2522,-4.3169,-4.3647,-4.4112,-4.4339,-4.491,-4.5232,-4.5302,-4.5632,-4.5854,-4.5922,-4.6073,-4.6189,-4.6189,-4.6189,-4.6189,-4.6189,-4.6189,-4.6189,-4.6189,-4.6239,-4.6301,-4.6507,-4.6926,-4.7353,-4.7715,-4.8096,-4.8458,-4.8695,-4.8802,-4.8925,-4.9197,-4.9345,-4.949,-4.9509,-4.9509,-4.9509,-4.949,-4.949,-4.9509,-4.9521,-4.9585,-4.9625,-4.9722,-4.9857,-5.0062,-5.0206,-5.0278,-5.0587,-5.0735,-5.0858,-5.0906,-5.1005,-5.1062,-5.1089,-5.1114,-5.1139,-5.119,-5.1202,-5.1202,-5.1202,-5.1202,-5.1217,-5.121,-5.1219,-5.1208,-5.1211,-5.1206,-5.1225,-5.1274,-5.133,-5.1521,-5.1914,-5.2261,-5.2543,-5.3338,-3.571,-3.571,-3.571,-3.571,-3.571,-3.5871,-3.6308,-3.6816,-3.7063,-3.789,-3.9145,-3.9591,-4.0115,-4.1003,-4.1272,-4.1456,-4.1522,-4.1588,-4.1588,-4.1588,-4.1588,-4.1588,-4.1588,-4.1588,-4.1588,-4.1588,-4.1588,-4.1588,-4.1588,-4.1588,-4.1588,-4.1588,-4.1588,-4.172,-4.172,-4.1785,-4.2142,-4.2678,-4.2802,-4.3152,-4.3922,-4.4209,-4.4601,-4.5125,-4.5459,-4.5684,-4.5752,-4.5972,-4.6189,-4.6189,-4.6189,-4.6189,-4.6189,-4.6189,-4.6189,-4.6189,-4.6189,-4.627,-4.6398,-4.6398,-4.6572,-4.6981,-4.7317,-4.7679,-4.8117,-4.8458,-4.8767,-4.8959,-4.9113,-4.9179,-4.9459,-4.9509,-4.949,-4.9509,-4.9509,-4.9521,-4.9532,-4.9532,-4.9574,-4.9555,-4.9665,-4.974,-4.991,-5.0092,-5.0361,-5.0547,-5.0606,-5.07,-5.0858,-5.0956,-5.0986,-5.1015,-5.1069,-5.1114,-5.1139,-5.1159,-5.1202,-5.1214,-5.1214,-5.1206,-5.1217,-5.122,-5.121,-5.121,-5.121,-5.1222,-5.1252,-5.1288,-5.1355,-5.1406,-5.1795,-5.2297,-5.2658,-5.296,-5.401,-3.571,-3.571,-3.571,-3.571,-3.579,-3.6401,-3.6788,-3.6985,-3.7681,-3.8546,-3.952,-3.9804,-4.0393,-4.1122,-4.1456,-4.1588,-4.1588,-4.1588,-4.1588,-4.1588,-4.1588,-4.1588,-4.1588,-4.1588,-4.1588,-4.1588,-4.1588,-4.1588,-4.1588,-4.1588,-4.1588,-4.1588,-4.1654,-4.1851,-4.2269,-4.2459,-4.2802,-4.3376,-4.3495,-4.3773,-4.4175,-4.4695,-4.5214,-4.5803,-4.5955,-4.6023,-4.6073,-4.614,-4.6189,-4.6189,-4.6189,-4.6189,-4.6239,-4.6239,-4.6221,-4.6239,-4.627,-4.6398,-4.6649,-4.6771,-4.7071,-4.747,-4.7802,-4.8119,-4.8458,-4.8765,-4.9061,-4.9262,-4.9377,-4.9427,-4.949,-4.9509,-4.949,-4.949,-4.9551,-4.9604,-4.9703,-4.974,-4.9768,-4.9822,-4.9857,-4.9917,-5.0116,-5.0301,-5.0508,-5.0682,-5.0754,-5.0805,-5.0925,-5.0986,-5.1015,-5.1056,-5.1095,-5.1127,-5.1171,-5.119,-5.1202,-5.1206,-5.1208,-5.1211,-5.121,-5.1217,-5.1215,-5.1245,-5.1277,-5.1308,-5.1333,-5.1363,-5.1387,-5.1398,-5.2016,-5.2694,-5.3214,-5.3756,-5.483,-3.571,-3.571,-3.571,-3.5951,-3.6322,-3.6716,-3.7405,-3.8162,-3.8591,-3.929,-4.0045,-4.0424,-4.0783,-4.1256,-4.1522,-4.1588,-4.1588,-4.1588,-4.1588,-4.1588,-4.1588,-4.1588,-4.1588,-4.1588,-4.1588,-4.1588,-4.1588,-4.1588,-4.1588,-4.1588,-4.1654,-4.172,-4.1916,-4.2285,-4.2648,-4.2925,-4.341,-4.398,-4.4209,-4.4418,-4.4875,-4.539,-4.5887,-4.6073,-4.6189,-4.6189,-4.6189,-4.6189,-4.6189,-4.6189,-4.6189,-4.6189,-4.627,-4.6381,-4.6429,-4.6301,-4.6429,-4.6649,-4.6908,-4.7115,-4.7488,-4.798,-4.8214,-4.8513,-4.885,-4.916,-4.9327,-4.9427,-4.9509,-4.9509,-4.9509,-4.949,-4.9544,-4.9625,-4.9655,-4.9759,-4.9936,-5.0012,-5.0068,-5.014,-5.0233,-5.032,-5.0385,-5.0548,-5.0699,-5.0805,-5.0874,-5.0941,-5.1005,-5.1029,-5.1037,-5.1082,-5.1108,-5.1159,-5.1183,-5.1206,-5.1208,-5.12,-5.122,-5.1226,-5.1252,-5.1263,-5.1288,-5.1327,-5.1359,-5.1364,-5.1367,-5.1386,-5.1396,-5.1499,-5.2202,-5.294,-5.3799,-5.4674,-5.563,-3.571,-3.571,-3.571,-3.6149,-3.6894,-3.7078,-3.7982,-3.9128,-3.9418,-3.999,-4.0799,-4.1034,-4.1153,-4.139,-4.1522,-4.1588,-4.1588,-4.1588,-4.1588,-4.1588,-4.1588,-4.1588,-4.1588,-4.1588,-4.1588,-4.1588,-4.1835,-4.172,-4.1654,-4.1785,-4.1835,-4.2013,-4.2459,-4.2896,-4.3125,-4.3529,-4.4071,-4.4541,-4.4835,-4.5213,-4.577,-4.609,-4.6189,-4.6189,-4.6189,-4.6189,-4.6189,-4.6189,-4.6189,-4.6189,-4.6239,-4.6221,-4.6398,-4.6695,-4.6771,-4.6602,-4.6863,-4.7044,-4.7291,-4.7506,-4.7959,-4.8513,-4.8604,-4.8903,-4.9174,-4.9377,-4.949,-4.9509,-4.9509,-4.9532,-4.9574,-4.9574,-4.9665,-4.9822,-4.991,-4.9987,-5.0183,-5.0298,-5.0406,-5.0508,-5.0625,-5.0644,-5.0663,-5.0681,-5.0805,-5.0839,-5.0925,-5.099,-5.1034,-5.1056,-5.1082,-5.1127,-5.1159,-5.119,-5.1194,-5.12,-5.1211,-5.12,-5.125,-5.1271,-5.1316,-5.134,-5.1365,-5.1367,-5.1386,-5.1384,-5.14,-5.1476,-5.1603,-5.1906,-5.2487,-5.3288,-5.4322,-5.5142,-5.5962,-3.571,-3.571,-3.571,-3.6174,-3.6985,-3.7681,-3.8487,-3.9349,-4.0008,-4.0593,-4.1034,-4.1117,-4.1288,-4.1522,-4.1588,-4.1588,-4.1588,-4.1588,-4.1588,-4.1588,-4.1588,-4.1654,-4.1654,-4.1588,-4.1769,-4.1884,-4.2269,-4.2093,-4.2013,-4.2269,-4.2459,-4.2569,-4.3092,-4.3647,-4.403,-4.4243,-4.4763,-4.5353,-4.5459,-4.5598,-4.5922,-4.6122,-4.6189,-4.6189,-4.6189,-4.6189,-4.6239,-4.6221,-4.627,-4.627,-4.627,-4.6447,-4.6724,-4.6817,-4.7115,-4.7335,-4.7548,-4.7674,-4.7995,-4.8132,-4.8439,-4.8872,-4.9061,-4.9262,-4.9377,-4.9459,-4.9509,-4.9509,-4.9521,-4.9604,-4.9703,-4.9749,-4.9891,-5.0043,-5.0159,-5.0298,-5.0486,-5.0528,-5.0644,-5.0699,-5.0771,-5.0805,-5.0822,-5.0874,-5.089,-5.0921,-5.0956,-5.102,-5.1067,-5.1102,-5.1127,-5.1159,-5.1183,-5.1214,-5.1219,-5.1211,-5.1273,-5.1264,-5.1269,-5.1324,-5.1343,-5.1367,-5.1384,-5.1379,-5.1391,-5.1525,-5.1681,-5.1795,-5.1906,-5.2409,-5.3112,-5.401,-5.4986,-5.5708,-5.6313,-3.6097,-3.571,-3.6177,-3.688,-3.7638,-3.8458,-3.9215,-3.9932,-4.0363,-4.0746,-4.1049,-4.1117,-4.1288,-4.1522,-4.1588,-4.1588,-4.1588,-4.1588,-4.1588,-4.1588,-4.1654,-4.1835,-4.2077,-4.2206,-4.2269,-4.2615,-4.2909,-4.3047,-4.2847,-4.2909,-4.3092,-4.3229,-4.3689,-4.4128,-4.4614,-4.4835,-4.514,-4.5423,-4.5615,-4.5821,-4.609,-4.6189,-4.6189,-4.6239,-4.6239,-4.6239,-4.627,-4.6477,-4.6572,-4.6666,-4.6817,-4.7071,-4.7335,-4.7567,-4.7834,-4.7955,-4.8212,-4.8307,-4.8288,-4.8476,-4.882,-4.9079,-4.923,-4.9262,-4.9459,-4.949,-4.949,-4.9509,-4.9615,-4.9731,-4.9849,-4.9943,-5.0183,-5.0339,-5.0425,-5.0548,-5.0681,-5.0754,-5.0825,-5.0874,-5.0906,-5.0906,-5.0906,-5.0906,-5.0941,-5.0956,-5.1005,-5.1067,-5.1108,-5.1146,-5.1159,-5.119,-5.1194,-5.1206,-5.1211,-5.1217,-5.14,-5.141,-5.1352,-5.1386,-5.1384,-5.1391,-5.1486,-5.1464,-5.1441,-5.1632,-5.196,-5.2195,-5.2351,-5.3034,-5.3815,-5.4635,-5.5415,-5.5962,-5.645,-3.6844,-3.6387,-3.6908,-3.7663,-3.8413,-3.9088,-3.9763,-4.0455,-4.0455,-4.0677,-4.0966,-4.1102,-4.1339,-4.1522,-4.1588,-4.1588,-4.1588,-4.1588,-4.1588,-4.1588,-4.1851,-4.2158,-4.2459,-4.271,-4.3047,-4.3495,-4.363,-4.3706,-4.3764,-4.3881,-4.398,-4.3823,-4.4412,-4.4669,-4.4835,-4.5123,-4.5476,-4.5581,-4.5736,-4.5922,-4.6122,-4.6172,-4.6253,-4.635,-4.6398,-4.6447,-4.6572,-4.6863,-4.7089,-4.716,-4.7335,-4.7548,-4.7775,-4.7995,-4.8249,-4.842,-4.866,-4.8714,-4.866,-4.8768,-4.8978,-4.9146,-4.9262,-4.9345,-4.944,-4.9521,-4.9574,-4.9604,-4.9787,-4.991,-5.0019,-5.0206,-5.0385,-5.0567,-5.0682,-5.0771,-5.0839,-5.0858,-5.0858,-5.089,-5.0906,-5.0906,-5.0906,-5.0941,-5.0956,-5.1005,-5.1053,-5.1133,-5.125,-5.1365,-5.1606,-5.1733,-5.2095,-5.2125,-5.2095,-5.1985,-5.1913,-5.1714,-5.166,-5.1676,-5.184,-5.1773,-5.1769,-5.171,-5.1707,-5.2038,-5.2526,-5.2683,-5.2897,-5.3795,-5.4615,-5.5123,-5.5747,-5.6255,-5.6547,-3.8026,-3.7951,-3.8026,-3.8473,-3.9175,-3.9233,-3.9778,-4.0455,-4.0524,-4.0662,-4.0882,-4.1122,-4.1406,-4.1522,-4.1588,-4.1588,-4.1588,-4.1588,-4.1654,-4.1835,-4.2206,-4.2522,-4.2896,-4.329,-4.3512,-4.3731,-4.4112,-4.4373,-4.4485,-4.4763,-4.4725,-4.4614,-4.4944,-4.5194,-4.5318,-4.5423,-4.5615,-4.5718,-4.5871,-4.5972,-4.6073,-4.6221,-4.6429,-4.6724,-4.6863,-4.7026,-4.7464,-4.7506,-4.7548,-4.7548,-4.7715,-4.7937,-4.8192,-4.8326,-4.8532,-4.8714,-4.8839,-4.8927,-4.8946,-4.8927,-4.9012,-4.9197,-4.9358,-4.9502,-4.9544,-4.9703,-4.9768,-4.9822,-5.0038,-5.0252,-5.0404,-5.0587,-5.0663,-5.0736,-5.0808,-5.0841,-5.089,-5.089,-5.089,-5.089,-5.0906,-5.0906,-5.0941,-5.0956,-5.099,-5.1039,-5.1444,-5.1522,-5.1734,-5.1905,-5.2261,-5.2582,-5.3163,-5.3384,-5.3459,-5.3268,-5.2791,-5.2597,-5.2513,-5.2504,-5.255,-5.2448,-5.2429,-5.2409,-5.2526,-5.28,-5.3093,-5.3385,-5.3854,-5.4732,-5.5396,-5.5767,-5.604,-5.6411,-5.6586,-3.9175,-3.9535,-3.9621,-3.9463,-3.932,-3.9834,-4.0231,-4.0455,-4.0524,-4.0662,-4.1018,-4.1205,-4.139,-4.1522,-4.1588,-4.1588,-4.1588,-4.1588,-4.1835,-4.2142,-4.2522,-4.308,-4.3545,-4.3972,-4.4316,-4.4597,-4.4961,-4.5086,-4.5086,-4.53,-4.5247,-4.5194,-4.53,-4.5371,-4.5423,-4.5581,-4.5718,-4.5871,-4.5972,-4.6023,-4.6221,-4.6477,-4.6724,-4.6863,-4.7248,-4.736,-4.7591,-4.7915,-4.7995,-4.8056,-4.8251,-4.8421,-4.8587,-4.8623,-4.8714,-4.8909,-4.8943,-4.9049,-4.9083,-4.9083,-4.9116,-4.9276,-4.9506,-4.9693,-4.9693,-4.991,-5.0038,-5.0135,-5.0256,-5.0508,-5.0567,-5.0718,-5.0822,-5.0874,-5.1003,-5.108,-5.1157,-5.1273,-5.1293,-5.1447,-5.1157,-5.0925,-5.0956,-5.099,-5.102,-5.1092,-5.1535,-5.1955,-5.2236,-5.2621,-5.3048,-5.3396,-5.3949,-5.4142,-5.4193,-5.3906,-5.3573,-5.3507,-5.3435,-5.3354,-5.3346,-5.3444,-5.3424,-5.3366,-5.3444,-5.3815,-5.4088,-5.4264,-5.4713,-5.5318,-5.5806,-5.6235,-5.6469,-5.6606,-5.6606,-3.9412,-3.9856,-3.9924,-3.9795,-3.9748,-4.0231,-4.0524,-4.0524,-4.0593,-4.0799,-4.1153,-4.1272,-4.139,-4.1522,-4.1588,-4.1588,-4.1654,-4.1835,-4.2222,-4.2585,-4.3064,-4.3663,-4.4259,-4.4725,-4.4961,-4.5371,-4.5441,-4.5371,-4.5318,-4.5388,-4.5371,-4.5371,-4.5423,-4.5423,-4.5441,-4.5581,-4.5787,-4.599,-4.6073,-4.6204,-4.6447,-4.6695,-4.716,-4.7309,-4.7674,-4.7919,-4.8096,-4.8364,-4.8439,-4.855,-4.8678,-4.882,-4.889,-4.8943,-4.8943,-4.8996,-4.9064,-4.915,-4.923,-4.9197,-4.9262,-4.9457,-4.9627,-4.9803,-4.9962,-5.014,-5.0298,-5.0342,-5.0528,-5.07,-5.0777,-5.1057,-5.1338,-5.1525,-5.2008,-5.2144,-5.2105,-5.2163,-5.2066,-5.2028,-5.185,-5.1924,-5.1993,-5.2119,-5.1928,-5.202,-5.2376,-5.278,-5.3001,-5.3457,-5.4059,-5.4376,-5.4704,-5.4762,-5.4744,-5.4583,-5.4482,-5.4711,-5.456,-5.4209,-5.4166,-5.4303,-5.4166,-5.3854,-5.4088,-5.4752,-5.5044,-5.5123,-5.5376,-5.5728,-5.6138,-5.6489,-5.6528,-5.6606,-5.6606,-3.855,-3.8554,-3.8616,-3.9272,-4.0186,-4.0424,-4.0462,-4.0416,-4.0699,-4.1003,-4.1256,-4.1307,-4.1374,-4.1588,-4.1654,-4.1785,-4.19,-4.2333,-4.2694,-4.3064,-4.3722,-4.4316,-4.4669,-4.5032,-4.5264,-4.5371,-4.5441,-4.5441,-4.5441,-4.5441,-4.5441,-4.5476,-4.5563,-4.5615,-4.5476,-4.5667,-4.5922,-4.6172,-4.6221,-4.6572,-4.6835,-4.7044,-4.7524,-4.7915,-4.8192,-4.8383,-4.8587,-4.866,-4.875,-4.8785,-4.882,-4.889,-4.889,-4.8996,-4.9049,-4.9068,-4.9164,-4.9384,-4.9646,-4.9427,-4.9499,-4.9684,-4.9884,-5.0019,-5.0206,-5.0425,-5.0702,-5.0837,-5.0947,-5.1032,-5.1257,-5.1625,-5.2008,-5.2298,-5.2763,-5.2937,-5.2859,-5.284,-5.2724,-5.2663,-5.312,-5.348,-5.3509,-5.346,-5.3094,-5.31,-5.3365,-5.3611,-5.3836,-5.4365,-5.5016,-5.5215,-5.5467,-5.5585,-5.5592,-5.5427,-5.5419,-5.5689,-5.5669,-5.5259,-5.5103,-5.522,-5.4947,-5.4439,-5.4869,-5.565,-5.5845,-5.5942,-5.6079,-5.6177,-5.6333,-5.6586,-5.6606,-5.6606,-5.6602,-3.8508,-3.8508,-3.8508,-3.8754,-3.917,-3.92,-3.9498,-4.0096,-4.065,-4.1138,-4.1256,-4.1323,-4.139,-4.1654,-4.2093,-4.2269,-4.2396,-4.2909,-4.3273,-4.3898,-4.4373,-4.4742,-4.5032,-4.5264,-4.5441,-4.5441,-4.5441,-4.5441,-4.5441,-4.5441,-4.5441,-4.5476,-4.587,-4.5938,-4.5938,-4.6137,-4.6507,-4.6695,-4.6954,-4.7248,-4.7378,-4.7632,-4.7955,-4.8344,-4.8532,-4.875,-4.8874,-4.889,-4.889,-4.889,-4.889,-4.889,-4.8925,-4.903,-4.9116,-4.9216,-4.934,-4.9684,-4.9936,-4.9936,-4.9936,-5.0106,-5.024,-5.0396,-5.0486,-5.0681,-5.1042,-5.1503,-5.1689,-5.197,-5.2627,-5.2821,-5.3053,-5.3053,-5.3304,-5.3343,-5.3304,-5.3323,-5.3301,-5.3278,-5.3561,-5.379,-5.3909,-5.4393,-5.4283,-5.4237,-5.447,-5.4531,-5.4702,-5.5368,-5.6011,-5.6054,-5.6209,-5.6393,-5.6415,-5.6059,-5.5962,-5.6138,-5.6274,-5.6196,-5.6138,-5.602,-5.5942,-5.5552,-5.604,-5.6528,-5.6391,-5.6313,-5.645,-5.6586,-5.6606,-5.6606,-5.6606,-5.6602,-5.6582,-3.78,-3.7815,-3.7815,-3.7815,-3.7892,-3.8308,-3.8901,-3.9579,-4.0349,-4.0876,-4.1091,-4.1496,-4.1819,-4.2142,-4.2569,-4.2941,-4.2986,-4.3588,-4.3939,-4.4502,-4.4725,-4.5032,-4.5318,-4.5441,-4.5441,-4.5441,-4.5441,-4.5441,-4.5441,-4.5441,-4.5563,-4.592,-4.631,-4.6595,-4.666,-4.689,-4.7008,-4.716,-4.7378,-4.765,-4.7856,-4.8075,-4.8344,-4.8532,-4.8714,-4.889,-4.889,-4.889,-4.889,-4.889,-4.889,-4.889,-4.8978,-4.9094,-4.9211,-4.9384,-4.9749,-5.0068,-5.0275,-5.0427,-5.0562,-5.0968,-5.0991,-5.1068,-5.124,-5.1691,-5.2111,-5.2476,-5.2627,-5.2956,-5.3401,-5.3614,-5.3942,-5.3942,-5.4175,-5.4213,-5.4346,-5.4404,-5.4417,-5.4371,-5.4388,-5.4446,-5.4516,-5.5015,-5.54,-5.5477,-5.5572,-5.5537,-5.5511,-5.6033,-5.6503,-5.6517,-5.6532,-5.6579,-5.6586,-5.6508,-5.6469,-5.6586,-5.6606,-5.6586,-5.6567,-5.6352,-5.6508,-5.6606,-5.6586,-5.6586,-5.6606,-5.6606,-5.6606,-5.6606,-5.6606,-5.6606,-5.6606,-5.6582,-5.6558,-3.6507,-3.6492,-3.6492,-3.6553,-3.6738,-3.7815,-3.8565,-3.9043,-3.9745,-4.0334,-4.0705,-4.19,-4.2264,-4.2642,-4.3191,-4.338,-4.3606,-4.4175,-4.4485,-4.4725,-4.5069,-4.5318,-4.5371,-4.5441,-4.5441,-4.5441,-4.5441,-4.5441,-4.5441,-4.5615,-4.592,-4.6459,-4.7106,-4.7381,-4.7493,-4.7735,-4.7681,-4.7747,-4.7838,-4.8056,-4.8269,-4.8364,-4.8569,-4.8768,-4.8855,-4.889,-4.889,-4.889,-4.8909,-4.8909,-4.8909,-4.8943,-4.9094,-4.9358,-4.951,-4.9803,-5.0256,-5.0446,-5.0606,-5.0735,-5.125,-5.1659,-5.1933,-5.2045,-5.2271,-5.2688,-5.3072,-5.3362,-5.3536,-5.3594,-5.3768,-5.431,-5.4832,-5.5084,-5.5412,-5.5548,-5.5681,-5.5752,-5.5781,-5.5791,-5.585,-5.5861,-5.5801,-5.6127,-5.6001,-5.6091,-5.6087,-5.6131,-5.6113,-5.6172,-5.6556,-5.6582,-5.6595,-5.6591,-5.6606,-5.6606,-5.6606,-5.6606,-5.6606,-5.6606,-5.6606,-5.6606,-5.6606,-5.6606,-5.6606,-5.6606,-5.6606,-5.6606,-5.6606,-5.6606,-5.6602,-5.6582,-5.6558,-5.6533,-5.6509,-3.6492,-3.6492,-3.6492,-3.6492,-3.6553,-3.6907,-3.7513,-3.8341,-3.9155,-4.0103,-4.1271,-4.1071,-4.1738,-4.244,-4.3096,-4.3323,-4.3804,-4.4456,-4.4947,-4.5247,-4.5213,-4.5353,-4.5441,-4.5441,-4.5441,-4.5441,-4.5441,-4.5423,-4.5511,-4.5735,-4.6182,-4.6724,-4.7868,-4.8243,-4.8464,-4.886,-4.8543,-4.8302,-4.8307,-4.8458,-4.8623,-4.8678,-4.8785,-4.8855,-4.889,-4.889,-4.889,-4.8909,-4.8943,-4.9015,-4.9049,-4.9098,-4.9439,-4.9598,-4.9749,-5.0275,-5.0508,-5.0644,-5.0789,-5.0874,-5.1331,-5.224,-5.2677,-5.3003,-5.3207,-5.3498,-5.3923,-5.4194,-5.4407,-5.4484,-5.4716,-5.518,-5.5451,-5.5625,-5.5857,-5.593,-5.6059,-5.6112,-5.6168,-5.626,-5.634,-5.6374,-5.6415,-5.6409,-5.63,-5.6445,-5.652,-5.6554,-5.6549,-5.6571,-5.6568,-5.661,-5.6606,-5.6606,-5.6606,-5.6606,-5.6606,-5.6606,-5.6606,-5.6606,-5.6606,-5.6606,-5.6606,-5.6606,-5.6606,-5.6606,-5.6606,-5.6606,-5.6606,-5.6582,-5.6558,-5.6538,-5.6514,-5.6503,-5.6497,-3.6492,-3.6492,-3.6492,-3.6616,-3.6846,-3.6846,-3.7385,-3.8233,-3.8898,-3.9745,-4.0626,-4.1016,-4.155,-4.2295,-4.2929,-4.3267,-4.3388,-4.4249,-4.4837,-4.4888,-4.5303,-4.5389,-4.5441,-4.5441,-4.5441,-4.5441,-4.5423,-4.5423,-4.5684,-4.631,-4.6855,-4.7396,-4.8641,-4.875,-4.879,-4.8992,-4.9047,-4.8807,-4.8714,-4.8855,-4.889,-4.889,-4.889,-4.889,-4.889,-4.8909,-4.8943,-4.8943,-4.9049,-4.9183,-4.9197,-4.9365,-4.9665,-4.9838,-5.0149,-5.0606,-5.0699,-5.0789,-5.0913,-5.1315,-5.1873,-5.2627,-5.3498,-5.4097,-5.4426,-5.4716,-5.4948,-5.5161,-5.5277,-5.5432,-5.5741,-5.5993,-5.5993,-5.5993,-5.6026,-5.604,-5.6126,-5.62,-5.6271,-5.6368,-5.6406,-5.6445,-5.646,-5.6484,-5.6503,-5.6536,-5.6566,-5.6582,-5.6595,-5.6595,-5.6598,-5.6606,-5.6606,-5.6606,-5.6606,-5.6606,-5.6606,-5.6606,-5.6606,-5.6606,-5.6606,-5.6606,-5.6606,-5.6606,-5.6606,-5.6606,-5.6606,-5.6586,-5.6586,-5.6558,-5.6533,-5.6523,-5.6497,-5.6504,-5.6491,-3.6492,-3.6492,-3.6538,-3.6892,-3.7358,-3.7476,-3.787,-3.8528,-3.8892,-3.9231,-3.992,-4.1226,-4.1893,-4.224,-4.2723,-4.2943,-4.3253,-4.3975,-4.4492,-4.4354,-4.513,-4.5423,-4.5441,-4.5441,-4.5441,-4.5423,-4.5563,-4.5786,-4.6102,-4.6717,-4.7512,-4.8114,-4.8772,-4.9009,-4.895,-4.9208,-4.9208,-4.8895,-4.882,-4.889,-4.889,-4.889,-4.889,-4.889,-4.8909,-4.8962,-4.9049,-4.9116,-4.9183,-4.9308,-4.9469,-4.9637,-4.9898,-5.0172,-5.0567,-5.0868,-5.1013,-5.1164,-5.1412,-5.1873,-5.2724,-5.3517,-5.4349,-5.4929,-5.5238,-5.5451,-5.5606,-5.5644,-5.5702,-5.5722,-5.5935,-5.6012,-5.6029,-5.604,-5.6097,-5.6162,-5.622,-5.6316,-5.6377,-5.6451,-5.6481,-5.6504,-5.6521,-5.6534,-5.6536,-5.6579,-5.6591,-5.6606,-5.6606,-5.6606,-5.6606,-5.6606,-5.6606,-5.6606,-5.6606,-5.6606,-5.6606,-5.6606,-5.6606,-5.6606,-5.6606,-5.6606,-5.6606,-5.6606,-5.6606,-5.6606,-5.6606,-5.6586,-5.6563,-5.6514,-5.6503,-5.6491,-5.6498,-5.6484,-5.6496,-3.6492,-3.6554,-3.7013,-3.7298,-3.746,-3.7895,-3.8238,-3.8574,-3.9143,-3.986,-4.0545,-4.066,-4.1171,-4.1968,-4.2169,-4.2268,-4.2526,-4.3577,-4.4198,-4.4492,-4.5027,-4.5459,-4.5423,-4.5528,-4.5476,-4.5563,-4.5837,-4.6406,-4.69,-4.7512,-4.7995,-4.8379,-4.9066,-4.9375,-4.8983,-4.928,-4.9373,-4.8946,-4.889,-4.889,-4.889,-4.889,-4.889,-4.8909,-4.8909,-4.903,-4.9113,-4.9283,-4.9389,-4.9579,-4.9838,-5.0092,-5.0363,-5.0643,-5.0805,-5.0987,-5.1486,-5.1718,-5.2124,-5.2685,-5.3517,-5.4116,-5.4793,-5.5296,-5.5683,-5.5896,-5.6012,-5.6012,-5.6012,-5.6012,-5.6012,-5.6029,-5.6043,-5.6097,-5.6168,-5.6261,-5.6347,-5.6411,-5.6483,-5.6523,-5.6556,-5.6568,-5.6575,-5.6591,-5.6575,-5.6591,-5.6606,-5.6606,-5.6606,-5.6606,-5.6606,-5.6606,-5.6606,-5.6606,-5.6606,-5.6606,-5.6606,-5.6606,-5.6606,-5.6606,-5.6606,-5.6606,-5.6606,-5.6606,-5.6606,-5.6606,-5.6606,-5.6586,-5.6563,-5.6509,-5.6491,-5.6498,-5.6484,-5.6488,-5.65,-3.6492,-3.66,-3.7118,-3.7738,-3.8294,-3.8668,-3.8995,-3.9437,-3.9885,-4.0391,-4.0781,-4.0591,-4.0854,-4.1492,-4.1492,-4.1526,-4.1802,-4.3095,-4.3611,-4.4009,-4.4906,-4.5494,-4.5615,-4.5752,-4.6035,-4.6165,-4.6578,-4.7106,-4.7697,-4.7959,-4.8306,-4.8606,-4.9358,-4.9429,-4.8964,-4.9336,-4.941,-4.8927,-4.8909,-4.889,-4.889,-4.889,-4.889,-4.8909,-4.9046,-4.9146,-4.9346,-4.9531,-4.9711,-4.9943,-5.0164,-5.0408,-5.0625,-5.0805,-5.1122,-5.1486,-5.1931,-5.2376,-5.2879,-5.3556,-5.4271,-5.4735,-5.5258,-5.576,-5.5838,-5.6012,-5.6012,-5.6012,-5.6012,-5.6012,-5.6031,-5.6051,-5.6106,-5.6168,-5.6242,-5.6347,-5.6426,-5.6504,-5.6538,-5.6568,-5.6579,-5.6598,-5.6606,-5.6606,-5.6591,-5.6591,-5.6606,-5.6606,-5.6606,-5.6606,-5.6606,-5.6606,-5.6606,-5.6606,-5.6606,-5.6606,-5.6606,-5.6606,-5.6606,-5.6606,-5.6606,-5.6606,-5.6606,-5.6606,-5.6606,-5.6606,-5.6606,-5.6582,-5.6553,-5.6497,-5.6478,-5.6484,-5.6488,-5.655,-5.6725,-3.6554,-3.6723,-3.7342,-3.8278,-3.9332,-3.9489,-3.9868,-4.0419,-4.0648,-4.0697,-4.07,-4.081,-4.0871,-4.0871,-4.0871,-4.0871,-4.1405,-4.275,-4.3197,-4.3715,-4.494,-4.5578,-4.6038,-4.6266,-4.6624,-4.6972,-4.7324,-4.772,-4.8212,-4.8383,-4.855,-4.8855,-4.889,-4.889,-4.889,-4.8909,-4.8909,-4.8909,-4.889,-4.8925,-4.8943,-4.8943,-4.8925,-4.9061,-4.9239,-4.9469,-4.9684,-4.9891,-5.0092,-5.0278,-5.0469,-5.0643,-5.0789,-5.0929,-5.1432,-5.1834,-5.2356,-5.2917,-5.3614,-5.4445,-5.4813,-5.518,-5.5722,-5.5973,-5.5993,-5.6012,-5.6012,-5.6012,-5.6012,-5.6031,-5.607,-5.6094,-5.616,-5.6241,-5.6347,-5.6439,-5.6503,-5.6568,-5.6579,-5.6606,-5.6606,-5.6606,-5.6606,-5.6606,-5.6606,-5.6606,-5.6606,-5.6606,-5.6606,-5.6606,-5.6606,-5.6606,-5.6606,-5.6606,-5.6606,-5.6606,-5.6606,-5.6606,-5.6606,-5.6606,-5.6606,-5.6606,-5.6606,-5.6606,-5.6606,-5.6602,-5.6577,-5.6538,-5.6503,-5.6485,-5.6491,-5.6496,-5.6597,-5.6725,-5.7096,-3.6785,-3.7298,-3.8407,-3.9065,-3.9437,-3.9901,-4.0271,-4.0468,-4.0648,-4.0714,-4.0745,-4.0823,-4.0871,-4.0871,-4.0871,-4.0905,-4.1194,-4.2506,-4.3093,-4.3491,-4.5224,-4.5912,-4.6394,-4.6873,-4.7299,-4.7638,-4.7999,-4.8251,-4.8532,-4.866,-4.8785,-4.889,-4.889,-4.889,-4.889,-4.889,-4.8925,-4.8959,-4.9008,-4.9075,-4.9206,-4.9174,-4.9127,-4.922,-4.9352,-4.9599,-4.9879,-5.0176,-5.0366,-5.0548,-5.0699,-5.0822,-5.0874,-5.0983,-5.1467,-5.226,-5.2782,-5.3614,-5.4407,-5.5161,-5.549,-5.5606,-5.5993,-5.5993,-5.6012,-5.6031,-5.6031,-5.6031,-5.6031,-5.6089,-5.6123,-5.6174,-5.6228,-5.6361,-5.6463,-5.6521,-5.6582,-5.6595,-5.661,-5.6606,-5.6606,-5.6606,-5.6606,-5.6606,-5.6606,-5.6606,-5.6606,-5.6606,-5.6606,-5.6606,-5.6606,-5.6606,-5.6606,-5.6606,-5.6606,-5.6606,-5.6606,-5.6606,-5.6606,-5.6606,-5.6606,-5.6606,-5.6606,-5.6606,-5.6582,-5.6563,-5.6538,-5.6509,-5.6511,-5.6491,-5.6484,-5.6527,-5.6667,-5.7107,-5.7672]}]]